ftp/pub/palmer/observations_modified/2019/August/AR190813_BASE.txt

Download

Sample DateTime	Unit Id	WS Avg 2min	WD Avg 2min	WGS 10min	WGD 10min	Air Temp	Rel Humidity	Dew Point	Pyranometer	Quantum	Air Pressure	Snow Level	Rainfall	PW Current	Visibility	CBase 1	CBase 2	CBase 3	Vert Vis
2019/08/13  00:00:00  BASE  2.01684  276  2.42256  273  -7.0  100   -7.0  0     0     1005.4   NA       0.0000   9999     820   0     0    
2019/08/13  00:01:00  BASE  1.85808  266  2.42256  273  -7.0  100   -7.0  0     0     1005.4   NA       0.0000   9999     850   0     0    
2019/08/13  00:02:00  BASE  1.43472  255  2.42256  273  -7.0  100   -7.0  0     0     1005.4   NA       0.0000   9999     890   0     0    
2019/08/13  00:03:00  BASE  1.38768  250  2.42256  273  -7.0  100   -7.0  0     0     1005.4   NA       0.0000   9999     950   0     0    
2019/08/13  00:04:00  BASE  1.72284  243  2.42256  273  -7.0  100   -7.0  0     0     1005.4   NA       0.0000   9999     1020  0     0    
2019/08/13  00:05:00  BASE  1.95216  235  2.42256  273  -7.0  100   -7.0  0     0     1005.4   NA       0.0000   9999     1020  0     0    
2019/08/13  00:06:00  BASE  2.0286   240  2.42256  273  -7.0  100   -7.0  0     0     1005.4   NA       0.0000   9999     1020  0     0    
2019/08/13  00:07:00  BASE  1.91688  250  2.42256  273  -7.0  100   -7.0  0     0     1005.3   NA       0.0000   9999     1050  0     0    
2019/08/13  00:08:00  BASE  1.95216  247  2.42256  273  -7.0  100   -7.0  0     0     1005.3   NA       0.0000   9999     1050  0     0    
2019/08/13  00:09:00  BASE  2.01096  242  2.42256  273  -7.1  100   -7.1  0     0     1005.3   NA       0.0000   9999     1210  0     0    
2019/08/13  00:10:00  BASE  1.72284  247  2.24028  251  -7.1  100   -7.1  0     0     1005.3   NA       0.0000   9999     1020  0     0    
2019/08/13  00:11:00  BASE  1.3818   254  2.24028  251  -7.1  100   -7.1  0     0     1005.3   NA       0.0000   9999     1020  0     0    
2019/08/13  00:12:00  BASE  1.38768  264  2.24028  251  -7.1  100   -7.1  0     0     1005.3   NA       0.0000   9999     1050  0     0    
2019/08/13  00:13:00  BASE  1.6464   268  2.24028  251  -7.1  100   -7.1  0     0     1005.3   NA       0.0000   9999     1020  0     0    
2019/08/13  00:14:00  BASE  1.71696  261  2.24028  251  -7.1  100   -7.1  0     0     1005.3   NA       0.0000   9999     950   0     0    
2019/08/13  00:15:00  BASE  1.7052   265  2.24028  251  -7.1  100   -7.1  0     0     1005.3   NA       0.0000   9999     1020  0     0    
2019/08/13  00:16:00  BASE  1.56408  275  2.24028  251  -7.1  100   -7.1  0     0     1005.3   NA       0.0000   9999     820   0     0    
2019/08/13  00:17:00  BASE  1.2936   276  2.24028  251  -7.1  100   -7.1  0     0     1005.3   NA       0.0000   9999     890   0     0    
2019/08/13  00:18:00  BASE  1.44648  280  2.21088  231  -7.1  100   -7.1  0     0     1005.3   NA       0.0000   9999     850   0     0    
2019/08/13  00:19:00  BASE  2.29908  259  3.41628  219  -7.1  100   -7.1  0     0     1005.3   NA       0.0000   9999     820   0     0    
2019/08/13  00:20:00  BASE  2.7342   230  3.41628  219  -7.1  100   -7.1  0     0     1005.3   NA       0.0000   9999     890   0     0    
2019/08/13  00:21:00  BASE  2.6166   225  3.41628  219  -7.1  100   -7.1  0     0     1005.3   NA       0.0000   9999     820   0     0    
2019/08/13  00:22:00  BASE  2.34612  225  3.41628  219  -7.1  100   -7.1  0     0     1005.3   NA       0.0000   9999     790   0     0    
2019/08/13  00:23:00  BASE  2.22852  238  3.41628  219  -7.1  100   -7.1  0     0     1005.3   NA       0.0000   9999     790   0     0    
2019/08/13  00:24:00  BASE  2.29908  249  3.41628  219  -7.2  100   -7.2  0     0     1005.4   NA       0.0000   9999     620   0     0    
2019/08/13  00:25:00  BASE  1.72284  256  3.41628  219  -7.2  100   -7.2  0     0     1005.4   NA       0.0000   9999     620   0     0    
2019/08/13  00:26:00  BASE  1.39944  264  3.41628  219  -7.2  100   -7.2  0     0     1005.4   NA       0.0000   9999     690   0     0    
2019/08/13  00:27:00  BASE  1.38768  257  3.41628  219  -7.2  100   -7.2  0     0     1005.4   NA       0.0000   9999     790   0     0    
2019/08/13  00:28:00  BASE  1.68168  234  3.41628  219  -7.2  100   -7.2  0     0     1005.4   NA       0.0000   9999     820   0     0    
2019/08/13  00:29:00  BASE  2.25204  214  3.1458   253  -7.2  100   -7.2  0     0     1005.4   NA       0.0000   9999     750   0     0    
2019/08/13  00:30:00  BASE  2.4402   221  3.1458   253  -7.3  100   -7.3  0     0     1005.4   NA       0.0000   9999     720   0     0    
2019/08/13  00:31:00  BASE  1.94628  238  3.1458   253  -7.3  100   -7.3  0     0     1005.4   NA       0.0000   9999     690   0     0    
2019/08/13  00:32:00  BASE  1.17012  249  3.1458   253  -7.3  100   -7.3  0     0     1005.4   NA       0.0000   9999     620   0     0    
2019/08/13  00:33:00  BASE  0.72324  255  3.1164   217  -7.3  100   -7.3  0     0     1005.4   NA       0.0000   9999     660   0     0    
2019/08/13  00:34:00  BASE  0.39984  242  3.1164   217  -7.3  100   -7.3  0     0     1005.4   NA       0.0000   9999     920   1640  0    
2019/08/13  00:35:00  BASE  0.35868  244  3.1164   217  -7.3  100   -7.3  0     0     1005.4   NA       0.0000   9999     790   0     0    
2019/08/13  00:36:00  BASE  0.81144  256  3.1164   217  -7.3  100   -7.3  0     0     1005.4   NA       0.0000   9999     820   0     0    
2019/08/13  00:37:00  BASE  1.00548  256  3.1164   217  -7.3  100   -7.3  0     0     1005.4   NA       0.0000   9999     850   0     0    
2019/08/13  00:38:00  BASE  0.97608  250  3.1164   217  -7.3  100   -7.3  0     0     1005.4   NA       0.0000   9999     850   0     0    
2019/08/13  00:39:00  BASE  1.0584   247  3.1164   217  -7.3  100   -7.3  0     0     1005.4   NA       0.0000   9999     850   0     0    
2019/08/13  00:40:00  BASE  1.13484  251  1.87572  249  -7.4  100   -7.4  0     0     1005.4   NA       0.0000   9999     750   0     0    
2019/08/13  00:41:00  BASE  1.21716  243  1.69344  226  -7.4  100   -7.4  0     0     1005.4   NA       0.0000   9999     620   0     0    
2019/08/13  00:42:00  BASE  0.60564  233  1.69344  226  -7.4  100   -7.4  0     0     1005.4   NA       0.0000   9999     620   0     0    
2019/08/13  00:43:00  BASE  0.27636  249  1.69344  226  -7.4  100   -7.4  0     0     1005.3   NA       0.0000   9999     690   0     0    
2019/08/13  00:44:00  BASE  0.29988  265  1.69344  226  -7.4  100   -7.4  0     0     1005.4   NA       0.0000   9999     850   0     0    
2019/08/13  00:45:00  BASE  0.0294   286  1.69344  226  -7.4  100   -7.4  0     0     1005.4   NA       0.0000   9999     750   0     0    
2019/08/13  00:46:00  BASE  0        320  1.69344  226  -7.4  100   -7.4  0     0     1005.3   NA       0.0000   9999     720   0     0    
2019/08/13  00:47:00  BASE  0        4    1.69344  226  -7.4  100   -7.4  0     0     1005.3   NA       0.0000   9999     750   0     0    
2019/08/13  00:48:00  BASE  0        39   1.69344  226  -7.4  100   -7.4  0     0     1005.4   NA       0.0000   9999     820   0     0    
2019/08/13  00:49:00  BASE  0        42   1.69344  226  -7.4  100   -7.4  0     0     1005.4   NA       0.0000   9999     820   0     0    
2019/08/13  00:50:00  BASE  0        43   1.69344  226  -7.4  100   -7.4  0     0     1005.4   NA       0.0000   9999     820   0     0    
2019/08/13  00:51:00  BASE  0        46   0.90552  277  -7.4  100   -7.4  0     0     1005.4   NA       0.0000   9999     890   0     0    
2019/08/13  00:52:00  BASE  0.39396  8    1.69344  219  -7.4  100   -7.4  0     0     1005.4   NA       0.0000   9999     790   0     0    
2019/08/13  00:53:00  BASE  1.37004  219  2.1462   197  -7.3  100   -7.3  0     0     1005.4   NA       0.0000   9999     790   0     0    
2019/08/13  00:54:00  BASE  1.78752  199  2.1462   197  -7.3  100   -7.3  0     0     1005.4   NA       0.0000   9999     820   0     0    
2019/08/13  00:55:00  BASE  1.58172  199  2.1462   197  -7.3  100   -7.3  0     0     1005.4   NA       0.0000   9999     850   0     0    
2019/08/13  00:56:00  BASE  1.45236  206  2.1462   197  -7.3  100   -7.3  0     0     1005.3   NA       0.0000   9999     690   0     0    
2019/08/13  00:57:00  BASE  0.77028  199  2.1462   197  -7.3  100   -7.3  0     0     1005.3   NA       0.0000   9999     690   0     0    
2019/08/13  00:58:00  BASE  0.19404  198  2.1462   197  -7.3  100   -7.3  0     0     1005.3   NA       0.0000   9999     750   0     0    
2019/08/13  00:59:00  BASE  0.10584  211  2.1462   197  -7.3  100   -7.3  0     0     1005.4   NA       0.0000   9999     720   0     0    
2019/08/13  01:00:00  BASE  0.294    224  2.1462   197  -7.3  100   -7.3  0     0     1005.4   NA       0.0000   9999     620   0     0    
2019/08/13  01:01:00  BASE  0.54096  234  2.1462   197  -7.3  100   -7.3  0     0     1005.4   NA       0.0000   9999     560   0     0    
2019/08/13  01:02:00  BASE  0.45864  239  2.1462   197  -7.3  100   -7.3  0     0     1005.4   NA       0.0000   9999     520   0     0    
2019/08/13  01:03:00  BASE  0.2646   227  2.0286   188  -7.3  100   -7.3  0     0     1005.4   NA       0.0000   9999     620   0     0    
2019/08/13  01:04:00  BASE  0.0588   213  1.75224  217  -7.3  100   -7.3  0     0     1005.4   NA       0.0000   9999     690   0     0    
2019/08/13  01:05:00  BASE  0        248  1.51116  214  -7.3  100   -7.3  0     0     1005.3   NA       0.0000   9999     750   0     0    
2019/08/13  01:06:00  BASE  0.0294   280  1.1172   223  -7.3  100   -7.3  0     0     1005.3   NA       0.0000   9999     750   0     0    
2019/08/13  01:07:00  BASE  0.13524  287  1.1172   223  -7.3  100   -7.3  0     0     1005.3   NA       0.0000   9999     820   0     0    
2019/08/13  01:08:00  BASE  0.11172  295  1.1172   223  -7.3  100   -7.3  0     0     1005.3   NA       0.0000   9999     820   0     0    
2019/08/13  01:09:00  BASE  0        312  1.1172   223  -7.3  100   -7.3  0     0     1005.3   NA       0.0000   9999     790   0     0    
2019/08/13  01:10:00  BASE  0.08232  317  1.1172   223  -7.3  100   -7.3  0     0     1005.3   NA       0.0000   9999     790   0     0    
2019/08/13  01:11:00  BASE  0.43512  280  0.84672  247  -7.3  100   -7.3  0     0     1005.3   NA       0.0000   9999     790   0     0    
2019/08/13  01:12:00  BASE  0.40572  248  0.81732  247  -7.3  100   -7.3  0     0     1005.3   NA       0.0000   9999     720   0     0    
2019/08/13  01:13:00  BASE  0.05292  247  0.81732  247  -7.3  100   -7.3  0     0     1005.3   NA       0.0000   9999     720   0     0    
2019/08/13  01:14:00  BASE  0        268  0.81732  247  -7.3  100   -7.3  0     0     1005.3   NA       0.0000   9999     790   0     0    
2019/08/13  01:15:00  BASE  0        307  0.81732  247  -7.3  100   -7.3  0     0     1005.3   NA       0.0000   9999     790   0     0    
2019/08/13  01:16:00  BASE  0.42336  312  1.0878   310  -7.3  100   -7.3  0     0     1005.3   NA       0.0000   9999     790   0     0    
2019/08/13  01:17:00  BASE  0.78792  297  1.0878   310  -7.3  100   -7.3  0     0     1005.3   NA       0.0000   9999     750   0     0    
2019/08/13  01:18:00  BASE  0.81144  301  1.0878   320  -7.3  100   -7.3  0     0     1005.3   NA       0.0000   9999     720   0     0    
2019/08/13  01:19:00  BASE  0.53508  291  1.0878   320  -7.3  100   -7.3  0     0     1005.3   NA       0.0000   9999     690   0     0    
2019/08/13  01:20:00  BASE  0.45864  271  1.0878   320  -7.3  100   -7.3  0     0     1005.3   NA       0.0000   9999     720   0     0    
2019/08/13  01:21:00  BASE  0.42336  265  1.0878   320  -7.3  100   -7.3  0     0     1005.3   NA       0.0000   9999     720   0     0    
2019/08/13  01:22:00  BASE  0.1176   277  1.0878   320  -7.3  100   -7.3  0     0     1005.3   NA       0.0000   9999     660   0     0    
2019/08/13  01:23:00  BASE  0.0588   289  1.0878   320  -7.3  100   -7.3  0     0     1005.3   NA       0.0000   9999     520   0     0    
2019/08/13  01:24:00  BASE  0        288  1.0878   320  -7.3  100   -7.3  0     0     1005.3   NA       0.0000   9999     560   0     0    
2019/08/13  01:25:00  BASE  0        280  1.0878   320  -7.3  100   -7.3  0     0     1005.3   NA       0.0000   9999     560   0     0    
2019/08/13  01:26:00  BASE  0        249  1.0878   320  -7.3  100   -7.3  0     0     1005.3   NA       0.0000   9999     620   0     0    
2019/08/13  01:27:00  BASE  0        252  1.0878   320  -7.3  100   -7.3  0     0     1005.3   NA       0.0000   9999     590   0     0    
2019/08/13  01:28:00  BASE  0        270  0.90552  251  -7.3  100   -7.3  0     0     1005.3   NA       0.0000   9999     620   0     0    
2019/08/13  01:29:00  BASE  0        253  0.90552  251  -7.3  100   -7.3  0     0     1005.3   NA       0.0000   9999     690   0     0    
2019/08/13  01:30:00  BASE  0        248  0.78792  286  -7.3  100   -7.3  0     0     1005.3   NA       0.0000   9999     690   0     0    
2019/08/13  01:31:00  BASE  0.07644  275  0.78792  286  -7.4  100   -7.4  0     0     1005.3   NA       0.0000   9999     660   0     0    
2019/08/13  01:32:00  BASE  0.21168  63   0.69384  78   -7.4  100   -7.4  0     0     1005.2   NA       0.0000   9999     690   0     0    
2019/08/13  01:33:00  BASE  0.13524  68   0.69384  78   -7.4  100   -7.4  0     0     1005.2   NA       0.0000   9999     750   0     0    
2019/08/13  01:34:00  BASE  0.05292  54   0.69384  78   -7.4  100   -7.4  0     0     1005.3   NA       0.0000   9999     750   0     0    
2019/08/13  01:35:00  BASE  0.147    31   0.81732  34   -7.4  100   -7.4  0     0     1005.3   NA       0.0000   9999     750   0     0    
2019/08/13  01:36:00  BASE  0.09408  8    0.81732  34   -7.3  100   -7.3  0     0     1005.3   NA       0.0000   9999     750   0     0    
2019/08/13  01:37:00  BASE  0.18816  24   1.0878   49   -7.3  100   -7.3  0     0     1005.3   NA       0.0000   9999     750   0     0    
2019/08/13  01:38:00  BASE  0.74088  39   1.29948  27   -7.3  100   -7.3  0     0     1005.3   NA       0.0000   9999     750   0     0    
2019/08/13  01:39:00  BASE  1.02312  32   1.29948  27   -7.3  100   -7.3  0     0     1005.3   NA       0.0000   9999     720   0     0    
2019/08/13  01:40:00  BASE  0.88788  36   1.35828  40   -7.3  100   -7.3  0     0     1005.3   NA       0.0000   9999     720   0     0    
2019/08/13  01:41:00  BASE  1.06428  35   1.48176  40   -7.3  100   -7.3  0     0     1005.3   NA       0.0000   9999     690   0     0    
2019/08/13  01:42:00  BASE  0.97608  38   1.48176  40   -7.3  100   -7.3  0     0     1005.3   NA       0.0000   9999     620   0     0    
2019/08/13  01:43:00  BASE  0.7938   45   1.48176  40   -7.3  100   -7.3  0     0     1005.3   NA       0.0000   9999     590   0     0    
2019/08/13  01:44:00  BASE  1.02312  45   1.48176  40   -7.3  100   -7.3  0     0     1005.2   NA       0.0000   9999     620   0     0    
2019/08/13  01:45:00  BASE  1.18188  41   1.51116  46   -7.3  100   -7.3  0     0     1005.2   NA       0.0000   9999     620   0     0    
2019/08/13  01:46:00  BASE  1.24656  40   1.51116  46   -7.3  100   -7.3  0     0     1005.2   NA       0.0000   9999     620   0     0    
2019/08/13  01:47:00  BASE  1.17012  41   1.51116  46   -7.3  100   -7.3  0     0     1005.2   NA       0.0000   9999     660   0     0    
2019/08/13  01:48:00  BASE  1.24068  26   1.69344  12   -7.3  100   -7.3  0     0     1005.2   NA       0.0000   9999     660   0     0    
2019/08/13  01:49:00  BASE  1.2054   11   1.69344  12   -7.3  100   -7.3  0     0     1005.2   NA       0.0000   9999     660   0     0    
2019/08/13  01:50:00  BASE  1.02312  5    1.69344  12   -7.3  100   -7.3  0     0     1005.2   NA       0.0000   9999     660   0     0    
2019/08/13  01:51:00  BASE  1.36416  5    1.78752  12   -7.3  100   -7.3  0     0     1005.2   NA       0.0000   9999     660   0     0    
2019/08/13  01:52:00  BASE  1.69344  10   1.90512  7    -7.3  100   -7.3  0     0     1005.2   NA       0.0000   9999     660   0     0    
2019/08/13  01:53:00  BASE  1.66992  7    1.90512  7    -7.3  100   -7.3  0     0     1005.2   NA       0.0000   9999     660   0     0    
2019/08/13  01:54:00  BASE  1.64052  360  1.90512  7    -7.3  100   -7.3  0     0     1005.2   NA       0.0000   9999     660   0     0    
2019/08/13  01:55:00  BASE  1.65228  2    1.90512  8    -7.3  100   -7.3  0     0     1005.3   NA       0.0000   9999     660   0     0    
2019/08/13  01:56:00  BASE  1.91688  12   2.45196  354  -7.3  100   -7.3  0     0     1005.2   NA       0.0000   9999     660   0     0    
2019/08/13  01:57:00  BASE  2.21088  8    2.45196  354  -7.3  100   -7.3  0     0     1005.2   NA       0.0000   9999     590   0     0    
2019/08/13  01:58:00  BASE  2.33436  12   3.087    22   -7.3  100   -7.3  0     0     1005.2   NA       0.0000   9999     620   0     0    
2019/08/13  01:59:00  BASE  2.71068  26   3.35748  30   -7.3  100   -7.3  0     0     1005.2   NA       0.0000   9999     620   0     0    
2019/08/13  02:00:00  BASE  2.97528  28   3.35748  30   -7.4  100   -7.4  0     0     1005.2   NA       0.0000   9999     620   0     0    
2019/08/13  02:01:00  BASE  2.88708  24   3.35748  30   -7.4  100   -7.4  0     0     1005.2   NA       0.0000   9999     620   0     0    
2019/08/13  02:02:00  BASE  2.74008  18   3.35748  30   -7.4  100   -7.4  0     0     1005.2   NA       0.0000   9999     560   0     0    
2019/08/13  02:03:00  BASE  2.5872   10   3.35748  30   -7.4  100   -7.4  0     0     1005.2   NA       0.0000   9999     460   0     0    
2019/08/13  02:04:00  BASE  2.39316  13   3.35748  30   -7.4  100   -7.4  0     0     1005.2   NA       0.0000   9999     490   0     0    
2019/08/13  02:05:00  BASE  1.9992   29   3.35748  30   -7.4  100   -7.4  0     0     1005.2   NA       0.0000   9999     430   0     0    
2019/08/13  02:06:00  BASE  1.60524  32   3.35748  30   -7.4  100   -7.4  0     0     1005.2   NA       0.0000   9999     590   0     0    
2019/08/13  02:07:00  BASE  1.88748  20   3.35748  30   -7.5  100   -7.5  0     0     1005.2   NA       0.0000   9999     620   0     0    
2019/08/13  02:08:00  BASE  2.64012  16   3.35748  17   -7.4  100   -7.4  0     0     1005.1   NA       0.0000   9999     590   0     0    
2019/08/13  02:09:00  BASE  3.00468  18   3.35748  17   -7.4  100   -7.4  0     0     1005.1   NA       0.0000   9999     560   0     0    
2019/08/13  02:10:00  BASE  2.79888  19   3.35748  17   -7.4  100   -7.4  0     0     1005.1   NA       0.0000   9999     490   0     0    
2019/08/13  02:11:00  BASE  2.7048   23   3.35748  32   -7.4  100   -7.4  0     0     1005.1   NA       0.0000   9999     430   0     0    
2019/08/13  02:12:00  BASE  2.90472  25   3.35748  32   -7.4  100   -7.4  0     0     1005.1   NA       0.0000   9999     390   0     0    
2019/08/13  02:13:00  BASE  3.01644  22   3.35748  32   -7.4  100   -7.4  0     0     1005.1   NA       0.0000   9999     390   0     0    
2019/08/13  02:14:00  BASE  3.19872  20   3.53976  21   -7.4  100   -7.4  0     0     1005.1   NA       0.0000   9999     390   0     0    
2019/08/13  02:15:00  BASE  3.234    21   3.53976  21   -7.5  100   -7.5  0     0     1005.1   NA       0.0000   9999     360   0     0    
2019/08/13  02:16:00  BASE  3.23988  25   3.75144  24   -7.5  100   -7.5  0     0     1005.1   NA       0.0000   9999     360   0     0    
2019/08/13  02:17:00  BASE  3.35748  26   3.75144  24   -7.5  100   -7.5  0     0     1005.0   NA       0.0000   9999     330   0     0    
2019/08/13  02:18:00  BASE  3.28692  24   3.75144  24   -7.6  100   -7.6  0     0     1004.9   NA       0.0000   9999     360   0     0    
2019/08/13  02:19:00  BASE  3.1164   27   3.75144  24   -7.6  100   -7.6  0     0     1004.9   NA       0.0000   9999     360   0     0    
2019/08/13  02:20:00  BASE  3.2928   31   3.93372  39   -7.6  100   -7.6  0     0     1004.9   NA       0.0000   9999     390   0     0    
2019/08/13  02:21:00  BASE  3.44568  37   3.93372  39   -7.6  100   -7.6  0     0     1004.9   NA       0.0000   9999     360   0     0    
2019/08/13  02:22:00  BASE  3.19284  35   3.93372  39   -7.6  100   -7.6  0     0     1004.9   NA       0.0000   9999     360   0     0    
2019/08/13  02:23:00  BASE  3.12816  33   3.93372  39   -7.6  100   -7.6  0     0     1004.9   NA       0.0000   9999     360   0     0    
2019/08/13  02:24:00  BASE  3.21636  38   3.93372  39   -7.5  100   -7.5  0     0     1004.9   NA       0.0000   9999     330   0     0    
2019/08/13  02:25:00  BASE  3.23988  39   3.93372  39   -7.5  100   -7.5  0     0     1004.8   NA       0.0000   9999     330   0     0    
2019/08/13  02:26:00  BASE  3.25164  41   3.93372  39   -7.5  100   -7.5  0     0     1004.8   NA       0.0000   9999     330   0     0    
2019/08/13  02:27:00  BASE  3.08112  40   3.93372  39   -7.5  100   -7.5  0     0     1004.8   NA       0.0000   9999     330   0     0    
2019/08/13  02:28:00  BASE  2.83416  39   3.93372  39   -7.5  100   -7.5  0     0     1004.8   NA       0.0000   9999     330   0     0    
2019/08/13  02:29:00  BASE  2.81064  38   3.93372  39   -7.5  100   -7.5  0     0     1004.8   NA       0.0000   9999     330   0     0    
2019/08/13  02:30:00  BASE  2.68716  39   3.75144  35   -7.5  100   -7.5  0     0     1004.8   NA       0.0000   9999     330   0     0    
2019/08/13  02:31:00  BASE  2.5872   44   3.75144  35   -7.5  100   -7.5  0     0     1004.8   NA       0.0000   9999     360   0     0    
2019/08/13  02:32:00  BASE  2.79888  47   3.75144  35   -7.5  100   -7.5  0     0     1004.8   NA       0.0000   9999     360   0     0    
2019/08/13  02:33:00  BASE  2.9694   39   3.75144  35   -7.5  100   -7.5  0     0     1004.8   NA       0.0000   9999     360   0     0    
2019/08/13  02:34:00  BASE  3.07524  36   3.75144  35   -7.5  100   -7.5  0     0     1004.8   NA       0.0000   9999     360   0     0    
2019/08/13  02:35:00  BASE  3.1458   39   3.75144  35   -7.5  100   -7.5  0     0     1004.8   NA       0.0000   9999     330   0     0    
2019/08/13  02:36:00  BASE  3.09288  39   3.51036  38   -7.5  100   -7.5  0     0     1004.8   NA       0.0000   9999     300   0     0    
2019/08/13  02:37:00  BASE  3.08112  42   3.51036  38   -7.5  100   -7.5  0     0     1004.8   NA       0.0000   9999     260   0     0    
2019/08/13  02:38:00  BASE  3.13992  46   3.51036  38   -7.5  100   -7.5  0     0     1004.9   NA       0.0000   9999     260   0     0    
2019/08/13  02:39:00  BASE  3.15756  48   3.51036  38   -7.5  100   -7.5  0     0     1004.9   NA       0.0000   9999     260   0     0    
2019/08/13  02:40:00  BASE  3.02232  48   3.51036  38   -7.5  100   -7.5  0     0     1004.8   NA       0.0000   9999     330   0     0    
2019/08/13  02:41:00  BASE  3.0576   48   3.56916  41   -7.5  100   -7.5  0     0     1004.8   NA       0.0000   9999     360   0     0    
2019/08/13  02:42:00  BASE  3.27516  44   3.56916  41   -7.5  100   -7.5  0     0     1004.8   NA       0.0000   9999     260   0     0    
2019/08/13  02:43:00  BASE  3.44568  39   3.93372  39   -7.5  100   -7.5  0     0     1004.9   NA       0.0000   9999     260   0     0    
2019/08/13  02:44:00  BASE  3.5574   40   3.93372  39   -7.5  100   -7.5  0     0     1004.8   NA       0.0000   9999     300   0     0    
2019/08/13  02:45:00  BASE  3.62208  41   3.93372  40   -7.5  100   -7.5  0     0     1004.8   NA       0.0000   9999     300   0     0    
2019/08/13  02:46:00  BASE  3.71616  42   4.1454   38   -7.5  100   -7.5  0     0     1004.8   NA       0.0000   9999     300   0     0    
2019/08/13  02:47:00  BASE  3.66912  37   4.1454   38   -7.5  100   -7.5  0     0     1004.8   NA       0.0000   9999     300   0     0    
2019/08/13  02:48:00  BASE  3.57504  31   4.1454   38   -7.5  100   -7.5  0     0     1004.8   NA       0.0000   9999     260   0     0    
2019/08/13  02:49:00  BASE  3.58092  31   4.1454   38   -7.5  100   -7.5  0     0     1004.8   NA       0.0000   9999     230   0     0    
2019/08/13  02:50:00  BASE  3.48096  33   4.1454   38   -7.5  100   -7.5  0     0     1004.8   NA       0.0000   9999     230   0     0    
2019/08/13  02:51:00  BASE  3.36924  35   4.1454   38   -7.5  100   -7.5  0     0     1004.8   NA       0.0000   9999     260   0     0    
2019/08/13  02:52:00  BASE  3.36336  38   4.1454   38   -7.5  100   -7.5  0     0     1004.8   NA       0.0000   9999     230   0     0    
2019/08/13  02:53:00  BASE  3.4104   40   4.1454   38   -7.5  100   -7.5  0     0     1004.8   NA       0.0000   9999     300   0     0    
2019/08/13  02:54:00  BASE  3.381    40   4.1454   38   -7.5  100   -7.5  0     0     1004.8   NA       0.0000   9999     260   0     0    
2019/08/13  02:55:00  BASE  3.16932  41   4.1454   38   -7.5  100   -7.5  0     0     1004.8   NA       0.0000   9999     260   0     0    
2019/08/13  02:56:00  BASE  3.2046   40   4.02192  34   -7.5  100   -7.5  0     0     1004.8   NA       0.0000   9999     260   0     0    
2019/08/13  02:57:00  BASE  3.26928  39   4.02192  34   -7.5  100   -7.5  0     0     1004.8   NA       0.0000   9999     230   0     0    
2019/08/13  02:58:00  BASE  3.22224  41   3.93372  29   -7.5  100   -7.5  0     0     1004.7   NA       0.0000   9999     330   0     0    
2019/08/13  02:59:00  BASE  3.31632  33   3.83964  21   -7.5  100   -7.5  0     0     1004.7   NA       0.0000   9999     330   0     0    
2019/08/13  03:00:00  BASE  3.30456  21   3.83964  21   -7.4  100   -7.4  0     0     1004.7   NA       0.0000   9999     260   0     0    
2019/08/13  03:01:00  BASE  3.36336  22   3.83964  21   -7.4  100   -7.4  0     0     1004.7   NA       0.0000   9999     200   0     0    
2019/08/13  03:02:00  BASE  3.72792  26   4.116    27   -7.4  100   -7.4  0     0     1004.7   NA       0.0000   9999     230   0     0    
2019/08/13  03:03:00  BASE  3.86316  26   4.116    27   -7.4  100   -7.4  0     0     1004.7   NA       0.0000   9999     230   0     0    
2019/08/13  03:04:00  BASE  3.80436  26   4.1454   28   -7.4  100   -7.4  0     0     1004.7   NA       0.0000   9999     200   0     0    
2019/08/13  03:05:00  BASE  3.90432  27   4.2042   32   -7.4  100   -7.4  0     0     1004.7   NA       0.0000   9999     230   0     0    
2019/08/13  03:06:00  BASE  3.8808   30   4.2042   32   -7.4  100   -7.4  0     0     1004.7   NA       0.0000   9999     260   0     0    
2019/08/13  03:07:00  BASE  3.63384  32   4.2042   32   -7.4  100   -7.4  0     0     1004.7   NA       0.0000   9999     260   0     0    
2019/08/13  03:08:00  BASE  3.59856  33   4.2042   32   -7.4  100   -7.4  0     0     1004.7   NA       0.0000   9999     300   0     0    
2019/08/13  03:09:00  BASE  3.39864  31   4.2042   32   -7.4  100   -7.4  0     0     1004.7   NA       0.0000   9999     330   0     0    
2019/08/13  03:10:00  BASE  3.22224  25   4.2042   32   -7.4  100   -7.4  0     0     1004.7   NA       0.0000   9999     330   0     0    
2019/08/13  03:11:00  BASE  3.39864  26   4.2042   32   -7.4  100   -7.4  0     0     1004.6   NA       0.0000   9999     330   0     0    
2019/08/13  03:12:00  BASE  2.74596  28   4.2042   32   -7.3  100   -7.3  0     0     1004.6   NA       0.0000   9999     300   0     0    
2019/08/13  03:13:00  BASE  2.28144  30   4.2042   32   -7.3  100   -7.3  0     0     1004.6   NA       0.0000   9999     360   0     0    
2019/08/13  03:14:00  BASE  2.53428  37   4.2042   32   -7.3  100   -7.3  0     0     1004.7   NA       0.0000   9999     360   0     0    
2019/08/13  03:15:00  BASE  2.29908  33   4.02192  34   -7.3  100   -7.3  0     0     1004.7   NA       0.0000   9999     360   0     0    
2019/08/13  03:16:00  BASE  2.15208  17   4.02192  34   -7.3  100   -7.3  0     0     1004.7   NA       0.0000   9999     390   0     0    
2019/08/13  03:17:00  BASE  2.25792  11   4.02192  34   -7.3  100   -7.3  0     0     1004.7   NA       0.0000   9999     330   0     0    
2019/08/13  03:18:00  BASE  1.98156  23   3.83964  29   -7.3  100   -7.3  0     0     1004.7   NA       0.0000   9999     300   0     0    
2019/08/13  03:19:00  BASE  1.82868  39   3.83964  29   -7.3  100   -7.3  0     0     1004.7   NA       0.0000   9999     300   0     0    
2019/08/13  03:20:00  BASE  1.87572  42   3.83964  29   -7.3  100   -7.3  0     0     1004.7   NA       0.0000   9999     460   0     0    
2019/08/13  03:21:00  BASE  1.8816   35   3.087    21   -7.3  100   -7.3  0     0     1004.7   NA       0.0000   9999     330   0     0    
2019/08/13  03:22:00  BASE  2.00508  26   3.087    21   -7.3  100   -7.3  0     0     1004.7   NA       0.0000   9999     260   0     0    
2019/08/13  03:23:00  BASE  1.7934   14   3.087    21   -7.3  100   -7.3  0     0     1004.7   NA       0.0000   9999     330   0     0    
2019/08/13  03:24:00  BASE  1.29948  14   3.087    21   -7.3  100   -7.3  0     0     1004.7   NA       0.0000   9999     360   0     0    
2019/08/13  03:25:00  BASE  1.51704  9    3.087    21   -7.3  100   -7.3  0     0     1004.7   NA       0.0000   9999     390   0     0    
2019/08/13  03:26:00  BASE  2.06388  5    3.087    21   -7.3  100   -7.3  0     0     1004.7   NA       0.0000   9999     300   0     0    
2019/08/13  03:27:00  BASE  2.07564  11   2.93412  10   -7.3  100   -7.3  0     0     1004.7   NA       0.0000   9999     200   0     0    
2019/08/13  03:28:00  BASE  2.02272  11   2.72244  354  -7.3  100   -7.3  0     0     1004.7   NA       0.0000   9999     230   0     0    
2019/08/13  03:29:00  BASE  2.16972  14   2.72244  354  -7.2  100   -7.2  0     0     1004.6   NA       0.0000   9999     260   0     0    
2019/08/13  03:30:00  BASE  2.22264  10   2.72244  354  -7.2  100   -7.2  0     0     1004.6   NA       0.0000   9999     260   0     0    
2019/08/13  03:31:00  BASE  2.16384  358  2.72244  354  -7.2  100   -7.2  0     0     1004.6   NA       0.0000   9999     330   0     0    
2019/08/13  03:32:00  BASE  2.19324  3    2.72244  354  -7.2  100   -7.2  0     0     1004.6   NA       0.0000   9999     260   0     0    
2019/08/13  03:33:00  BASE  2.30496  19   2.72244  354  -7.2  100   -7.2  0     0     1004.5   NA       0.0000   9999     230   0     0    
2019/08/13  03:34:00  BASE  2.34612  21   3.02232  20   -7.2  100   -7.2  0     0     1004.5   NA       0.0000   9999     330   0     0    
2019/08/13  03:35:00  BASE  2.06976  26   3.02232  20   -7.2  100   -7.2  0     0     1004.5   NA       0.0000   9999     200   0     0    
2019/08/13  03:36:00  BASE  1.68168  32   3.02232  20   -7.2  100   -7.2  0     0     1004.5   NA       0.0000   9999     200   0     0    
2019/08/13  03:37:00  BASE  1.54644  34   3.02232  20   -7.2  100   -7.2  0     0     1004.5   NA       0.0000   9999     260   0     0    
2019/08/13  03:38:00  BASE  1.27008  38   3.02232  20   -7.2  100   -7.2  0     0     1004.5   NA       0.0000   9999     260   0     0    
2019/08/13  03:39:00  BASE  0.9996   43   3.02232  20   -7.2  100   -7.2  0     0     1004.5   NA       0.0000   9999     260   0     0    
2019/08/13  03:40:00  BASE  1.03488  40   3.02232  20   -7.2  100   -7.2  0     0     1004.5   NA       0.0000   9999     230   0     0    
2019/08/13  03:41:00  BASE  0.7056   28   3.02232  20   -7.2  100   -7.2  0     0     1004.5   NA       0.0000   9999     200   0     0    
2019/08/13  03:42:00  BASE  0.33516  25   3.02232  20   -7.3  100   -7.3  0     0     1004.5   NA       0.0000   9999     230   0     0    
2019/08/13  03:43:00  BASE  0.5292   37   3.02232  20   -7.3  100   -7.3  0     0     1004.5   NA       0.0000   9999     260   0     0    
2019/08/13  03:44:00  BASE  0.52332  35   2.26968  32   -7.3  100   -7.3  0     0     1004.5   NA       0.0000   9999     230   0     0    
2019/08/13  03:45:00  BASE  0.22344  26   1.96392  22   -7.3  100   -7.3  0     0     1004.5   NA       0.0000   9999     230   0     0    
2019/08/13  03:46:00  BASE  0.08232  34   1.90512  36   -7.3  100   -7.3  0     0     1004.5   NA       0.0000   9999     260   0     0    
2019/08/13  03:47:00  BASE  0        39   1.32888  50   -7.3  100   -7.3  0     0     1004.5   NA       0.0000   9999     300   0     0    
2019/08/13  03:48:00  BASE  0        14   1.32888  50   -7.3  100   -7.3  0     0     1004.5   NA       0.0000   9999     300   0     0    
2019/08/13  03:49:00  BASE  0.24108  11   1.32888  50   -7.3  100   -7.3  0     0     1004.5   NA       0.0000   9999     300   0     0    
2019/08/13  03:50:00  BASE  0.54684  26   1.0878   60   -7.3  100   -7.3  0     0     1004.5   NA       0.0000   9999     330   0     0    
2019/08/13  03:51:00  BASE  0.90552  342  1.75224  297  -7.3  100   -7.3  0     0     1004.5   NA       0.0000   9999     390   0     0    
2019/08/13  03:52:00  BASE  0.84672  305  1.75224  297  -7.3  100   -7.3  0     0     1004.5   NA       0.0000   9999     330   0     0    
2019/08/13  03:53:00  BASE  0.88788  311  1.75224  297  -7.3  100   -7.3  0     0     1004.5   NA       0.0000   9999     360   0     0    
2019/08/13  03:54:00  BASE  1.37004  316  1.78752  314  -7.3  100   -7.3  0     0     1004.5   NA       0.0000   9999     390   0     0    
2019/08/13  03:55:00  BASE  1.37592  311  1.78752  314  -7.2  100   -7.2  0     0     1004.5   NA       0.0000   9999     390   0     0    
2019/08/13  03:56:00  BASE  1.2348   313  1.78752  314  -7.2  100   -7.2  0     0     1004.5   NA       0.0000   9999     360   0     0    
2019/08/13  03:57:00  BASE  1.35828  312  1.81692  299  -7.2  100   -7.2  0     0     1004.5   NA       0.0000   9999     390   0     0    
2019/08/13  03:58:00  BASE  1.617    300  1.81692  299  -7.2  100   -7.2  0     0     1004.5   NA       0.0000   9999     360   0     0    
2019/08/13  03:59:00  BASE  1.30536  299  1.81692  299  -7.2  100   -7.2  0     0     1004.5   NA       0.0000   9999     390   0     0    
2019/08/13  04:00:00  BASE  1.0584   289  1.81692  299  -7.2  100   -7.2  0     0     1004.5   NA       0.0000   9999     360   0     0    
2019/08/13  04:01:00  BASE  0.9702   289  1.81692  299  -7.2  100   -7.2  0     0     1004.5   NA       0.0000   9999     360   0     0    
2019/08/13  04:02:01  BASE  0.95844  289  1.81692  299  -7.2  100   -7.2  0     0     M        NA       0.0000   M        360   0     0    
2019/08/13  04:03:00  BASE  0.87024  303  1.81692  299  -7.2  100   -7.2  0     0     1004.5   NA       0.0000   9999     390   0     0    
2019/08/13  04:04:00  BASE  1.09956  310  1.81692  299  -7.2  100   -7.2  0     0     1004.5   NA       0.0000   9999     390   0     0    
2019/08/13  04:05:00  BASE  1.07604  310  1.81692  299  -7.2  100   -7.2  0     0     1004.5   NA       0.0000   9999     360   0     0    
2019/08/13  04:06:00  BASE  1.029    305  1.81692  299  -7.2  100   -7.2  0     0     1004.5   NA       0.0000   9999     460   0     0    
2019/08/13  04:07:00  BASE  1.0878   296  1.81692  299  -7.2  100   -7.2  0     0     1004.5   NA       0.0000   9999     360   0     0    
2019/08/13  04:08:00  BASE  0.72324  282  1.78752  302  -7.2  100   -7.2  0     0     1004.5   NA       0.0000   9999     330   0     0    
2019/08/13  04:09:00  BASE  0.5586   272  1.42296  309  -7.2  100   -7.2  0     0     1004.4   NA       0.0000   9999     390   0     0    
2019/08/13  04:10:00  BASE  0.64092  261  1.42296  309  -7.2  100   -7.2  0     0     1004.4   NA       0.0000   9999     460   0     0    
2019/08/13  04:11:00  BASE  0.89376  245  1.51116  224  -7.2  100   -7.2  0     0     1004.4   NA       0.0000   9999     390   0     0    
2019/08/13  04:12:00  BASE  1.28772  241  1.51116  224  -7.2  100   -7.2  0     0     1004.4   NA       0.0000   9999     430   0     0    
2019/08/13  04:13:00  BASE  1.39944  246  1.60524  241  -7.2  100   -7.2  0     0     1004.4   NA       0.0000   9999     460   0     0    
2019/08/13  04:14:00  BASE  1.35828  242  1.60524  241  -7.2  100   -7.2  0     0     1004.4   NA       0.0000   9999     520   0     0    
2019/08/13  04:15:00  BASE  0.9996   254  1.60524  241  -7.2  100   -7.2  0     0     1004.4   NA       0.0000   9999     520   0     0    
2019/08/13  04:16:00  BASE  0.36456  278  1.60524  241  -7.3  100   -7.3  0     0     1004.4   NA       0.0000   9999     490   0     0    
2019/08/13  04:17:00  BASE  0        279  1.60524  241  -7.3  100   -7.3  0     0     1004.4   NA       0.0000   9999     430   0     0    
2019/08/13  04:18:00  BASE  0.31752  246  1.60524  241  -7.3  100   -7.3  0     0     1004.4   NA       0.0000   9999     460   0     0    
2019/08/13  04:19:01  BASE  0.31752  220  1.60524  241  -7.2  100   -7.2  0     0     1004.4   NA       0.0000   9999     390   0     0    
2019/08/13  04:20:00  BASE  0        223  1.60524  241  -7.2  100   -7.2  0     0     1004.4   NA       0.0000   9999     460   0     0    
2019/08/13  04:21:00  BASE  0        254  1.60524  241  -7.2  100   -7.2  0     0     1004.4   NA       0.0000   9999     490   0     0    
2019/08/13  04:22:00  BASE  0.30576  270  1.60524  241  -7.2  100   -7.2  0     0     1004.4   NA       0.0000   9999     490   0     0    
2019/08/13  04:23:00  BASE  1.0584   255  1.63464  248  -7.3  100   -7.3  0     0     1004.4   NA       0.0000   9999     360   0     0    
2019/08/13  04:24:00  BASE  1.27008  243  1.63464  248  -7.3  100   -7.3  0     0     1004.4   NA       0.0000   9999     490   11580 0    
2019/08/13  04:25:00  BASE  1.03488  233  1.63464  248  -7.3  100   -7.3  0     0     1004.4   NA       0.0000   9999     590   11290 0    
2019/08/13  04:26:00  BASE  0.95256  232  1.63464  248  -7.3  100   -7.3  0     0     1004.5   NA       0.0000   9999     520   11220 0    
2019/08/13  04:27:00  BASE  0.87612  247  1.63464  248  -7.3  100   -7.3  0     0     1004.5   NA       0.0000   9999     490   11290 0    
2019/08/13  04:28:00  BASE  0.7056   253  1.63464  248  -7.3  100   -7.3  0     0     1004.5   NA       0.0000   9999     490   11090 0    
2019/08/13  04:29:00  BASE  0.2646   251  1.63464  248  -7.3  100   -7.3  0     0     1004.4   NA       0.0000   9999     490   11710 0    
2019/08/13  04:30:00  BASE  0        269  1.63464  248  -7.3  100   -7.3  0     0     1004.4   NA       0.0000   9999     11090 11780 0    
2019/08/13  04:31:00  BASE  0        282  1.63464  248  -7.3  100   -7.3  0     0     1004.5   NA       0.0000   9999     10730 11160 11910
2019/08/13  04:32:00  BASE  0.0294   269  1.63464  248  -7.3  100   -7.3  0     0     1004.5   NA       0.0000   9999     590   11190 0    
2019/08/13  04:33:00  BASE  0.33516  255  1.48176  242  -7.3  100   -7.3  0     0     1004.5   NA       0.0000   9999     590   11390 0    
2019/08/13  04:34:00  BASE  0.33516  257  1.21128  225  -7.3  100   -7.3  0     0     1004.5   NA       0.0000   9999     620   11060 0    
2019/08/13  04:35:00  BASE  0.147    249  1.1466   236  -7.3  100   -7.3  0     0     1004.5   NA       0.0000   9999     590   11320 0    
2019/08/13  04:36:00  BASE  0.15876  248  1.1466   236  -7.3  100   -7.3  0     0     1004.4   NA       0.0000   9999     520   11350 0    
2019/08/13  04:37:00  BASE  0.5292   286  1.0878   302  -7.3  100   -7.3  0     0     1004.4   NA       0.0000   9999     460   0     0    
2019/08/13  04:38:00  BASE  0.83496  310  1.0878   302  -7.3  100   -7.3  0     0     1004.4   NA       0.0000   9999     430   0     0    
2019/08/13  04:39:00  BASE  0.89376  317  1.18188  310  -7.3  100   -7.3  0     0     1004.4   NA       0.0000   9999     460   0     0    
2019/08/13  04:40:00  BASE  0.9996   316  1.18188  310  -7.3  100   -7.3  0     0     1004.4   NA       0.0000   9999     490   0     0    
2019/08/13  04:41:00  BASE  0.90552  312  1.18188  312  -7.3  100   -7.3  0     0     1004.4   NA       0.0000   9999     490   0     0    
2019/08/13  04:42:00  BASE  0.79968  315  1.29948  312  -7.3  100   -7.3  0     0     1004.4   NA       0.0000   9999     560   11220 0    
2019/08/13  04:43:00  BASE  0.9114   319  1.29948  312  -7.2  100   -7.2  0     0     1004.4   NA       0.0000   9999     490   11160 0    
2019/08/13  04:44:00  BASE  1.07604  317  1.29948  312  -7.2  100   -7.2  0     0     1004.4   NA       0.0000   9999     11160 0     0    
2019/08/13  04:45:00  BASE  1.04076  313  1.29948  312  -7.2  100   -7.2  0     0     1004.4   NA       0.0000   9999     11190 0     0    
2019/08/13  04:46:00  BASE  1.02312  305  1.29948  271  -7.2  100   -7.2  0     0     1004.4   NA       0.0000   9999     11190 0     0    
2019/08/13  04:47:00  BASE  1.3524   283  1.96392  263  -7.2  100   -7.2  0     0     1004.4   NA       0.0000   9999     11190 0     0    
2019/08/13  04:48:00  BASE  1.52292  270  1.96392  263  -7.3  100   -7.3  0     0     1004.4   NA       0.0000   9999     11190 0     0    
2019/08/13  04:49:00  BASE  1.37592  273  1.96392  263  -7.3  100   -7.3  0     0     1004.4   NA       0.0000   9999     11190 0     0    
2019/08/13  04:50:00  BASE  1.42884  273  1.96392  263  -7.3  100   -7.3  0     0     1004.4   NA       0.0000   9999     11160 0     0    
2019/08/13  04:51:00  BASE  1.45824  268  1.96392  263  -7.3  100   -7.3  0     0     1004.4   NA       0.0000   9999     11120 0     0    
2019/08/13  04:52:00  BASE  1.48176  265  1.96392  263  -7.3  100   -7.3  0     0     1004.4   NA       0.0000   9999     11120 0     0    
2019/08/13  04:53:00  BASE  1.31712  269  1.96392  263  -7.3  100   -7.3  0     0     1004.4   NA       0.0000   9999     6070  11190 0    
2019/08/13  04:54:00  BASE  1.10544  277  1.96392  263  -7.3  100   -7.3  0     0     1004.4   NA       0.0000   9999     6140  11120 0    
2019/08/13  04:55:00  BASE  1.07016  287  1.96392  263  -7.3  100   -7.3  0     0     1004.4   NA       0.0000   9999     6170  11160 0    
2019/08/13  04:56:01  BASE  1.03488  294  1.96392  263  -7.3  100   -7.3  0     0     1004.3   NA       0.0000   9999     6100  11120 0    
2019/08/13  04:57:00  BASE  0.882    301  1.87572  275  -7.3  100   -7.3  0     0     1004.2   NA       0.0000   9999     6070  11190 0    
2019/08/13  04:58:00  BASE  0.71736  321  1.63464  265  -7.3  100   -7.3  0     0     1004.2   NA       0.0000   9999     6170  11120 0    
2019/08/13  04:59:00  BASE  0.48804  345  1.63464  265  -7.3  100   -7.3  0     0     1004.2   NA       0.0000   9999     6170  11220 0    
2019/08/13  05:00:01  BASE  0.30576  354  1.63464  265  -7.3  100   -7.3  0     0     1004.2   NA       0.0000   9999     6140  11160 0    
2019/08/13  05:01:00  BASE  0.34692  3    1.63464  265  -7.3  100   -7.3  0     0     1004.2   NA       0.0000   9999     6170  11190 0    
2019/08/13  05:02:00  BASE  0.37632  9    1.39356  273  -7.3  100   -7.3  0     0     1004.1   NA       0.0000   9999     6170  11020 0    
2019/08/13  05:03:00  BASE  0.30576  18   1.29948  279  -7.4  100   -7.4  0     0     1004.1   NA       0.0000   9999     750   6200  0    
2019/08/13  05:04:00  BASE  0.45276  35   1.29948  279  -7.4  100   -7.4  0     0     1004.2   NA       0.0000   9999     750   6170  0    
2019/08/13  05:05:01  BASE  0.87612  36   1.32888  32   -7.4  100   -7.4  0     0     1004.2   NA       0.0000   9999     230   720   0    
2019/08/13  05:06:00  BASE  1.08192  23   1.75224  9    -7.4  100   -7.4  0     0     1004.2   NA       0.0000   9999     260   750   0    
2019/08/13  05:07:00  BASE  1.43472  6    2.21088  10   -7.4  100   -7.4  0     0     1004.2   NA       0.0000   9999     230   6270  0    
2019/08/13  05:08:00  BASE  2.00508  0    2.32848  3    -7.4  100   -7.4  0     0     1004.2   NA       0.0000   9999     6170  0     0    
2019/08/13  05:09:01  BASE  2.46372  2    2.87532  4    -7.4  100   -7.4  0     0     1004.2   NA       0.0000   9999     690   6170  0    
2019/08/13  05:10:00  BASE  2.62248  0    2.87532  4    -7.3  100   -7.3  0     0     1004.1   NA       0.0000   9999     520   6330  0    
2019/08/13  05:11:00  BASE  2.52252  359  2.87532  4    -7.3  100   -7.3  0     0     1004.1   NA       0.0000   9999     460   6300  0    
2019/08/13  05:12:00  BASE  2.41668  357  2.87532  4    -7.3  100   -7.3  0     0     1004.1   NA       0.0000   9999     6270  0     0    
2019/08/13  05:13:00  BASE  2.24028  1    2.87532  4    -7.3  100   -7.3  0     0     1004.1   NA       0.0000   9999     6230  0     0    
2019/08/13  05:14:00  BASE  2.04624  3    2.87532  4    -7.3  100   -7.3  0     0     1004.1   NA       0.0000   9999     6270  0     0    
2019/08/13  05:15:00  BASE  1.95804  6    2.87532  4    -7.2  100   -7.2  0     0     1004.1   NA       0.0000   9999     6230  10930 0    
2019/08/13  05:16:00  BASE  1.92864  11   2.87532  4    -7.2  100   -7.2  0     0     1004.1   NA       0.0000   9999     6270  10960 0    
2019/08/13  05:17:00  BASE  1.85808  13   2.87532  4    -7.3  100   -7.3  0     0     1004.1   NA       0.0000   9999     6500  10700 0    
2019/08/13  05:18:00  BASE  1.86396  10   2.87532  4    -7.3  100   -7.3  0     0     1004.1   NA       0.0000   9999     6500  10990 0    
2019/08/13  05:19:00  BASE  1.8228   0    2.75184  3    -7.3  100   -7.3  0     0     1004.1   NA       0.0000   9999     820   6500  0    
2019/08/13  05:20:00  BASE  1.60524  351  2.69304  4    -7.3  100   -7.3  0     0     1004.1   NA       0.0000   9999     620   10990 0    
2019/08/13  05:21:00  BASE  1.34064  349  2.69304  4    -7.3  100   -7.3  0     0     1004.1   NA       0.0000   9999     590   10930 0    
2019/08/13  05:22:00  BASE  1.25244  358  2.24028  6    -7.3  100   -7.3  0     0     1004.1   NA       0.0000   9999     590   10990 0    
2019/08/13  05:23:00  BASE  1.2642   6    2.1462   354  -7.2  100   -7.2  0     0     1004.1   NA       0.0000   9999     690   10760 0    
2019/08/13  05:24:01  BASE  1.39944  7    2.1168   12   -7.2  100   -7.2  0     0     1004.1   NA       0.0000   9999     10830 0     0    
2019/08/13  05:25:01  BASE  1.58172  14   2.1168   12   -7.2  100   -7.2  0     0     1004.0   NA       0.0000   9999     10990 0     0    
2019/08/13  05:26:01  BASE  1.617    21   2.0874   2    -7.2  100   -7.2  0     0     1004.0   NA       0.0000   9999     6460  11020 0    
2019/08/13  05:27:01  BASE  1.71108  26   2.0874   2    -7.2  100   -7.2  0     0     1004.0   NA       0.0000   9999     11060 0     0    
2019/08/13  05:28:00  BASE  1.55232  22   1.96392  28   -7.3  100   -7.3  0     0     1004.0   NA       0.0000   9999     11020 0     0    
2019/08/13  05:29:00  BASE  1.37004  16   1.96392  28   -7.3  100   -7.3  0     0     1004.0   NA       0.0000   9999     10600 0     0    
2019/08/13  05:30:00  BASE  1.29948  13   1.96392  28   -7.3  100   -7.3  0     0     1004.0   NA       0.0000   9999     10990 0     0    
2019/08/13  05:31:00  BASE  1.45824  10   2.1462   5    -7.3  100   -7.3  0     0     1004.0   NA       0.0000   9999     11020 0     0    
2019/08/13  05:32:00  BASE  1.7346   1    2.1462   5    -7.2  100   -7.2  0     0     1004.0   NA       0.0000   9999     790   11090 0    
2019/08/13  05:33:00  BASE  1.71108  355  2.1462   5    -7.2  100   -7.2  0     0     1004.0   NA       0.0000   9999     11120 0     0    
2019/08/13  05:34:00  BASE  1.78752  2    2.21088  3    -7.2  100   -7.2  0     0     1004.0   NA       0.0000   9999     10930 0     0    
2019/08/13  05:35:00  BASE  1.88748  2    2.21088  248  -7.2  100   -7.2  0     0     1004.0   NA       0.0000   9999     750   10930 0    
2019/08/13  05:36:00  BASE  1.88748  359  2.21088  248  -7.2  100   -7.2  0     0     1004.0   NA       0.0000   9999     490   11090 0    
2019/08/13  05:37:00  BASE  1.75812  6    2.21088  248  -7.2  100   -7.2  0     0     1004.0   NA       0.0000   9999     720   11120 0    
2019/08/13  05:38:00  BASE  1.617    9    2.21088  248  -7.2  100   -7.2  0     0     1003.9   NA       0.0000   9999     750   11090 0    
2019/08/13  05:39:00  BASE  1.56996  9    2.21088  248  -7.2  100   -7.2  0     0     1003.9   NA       0.0000   9999     750   10830 0    
2019/08/13  05:40:00  BASE  1.8228   1    2.29908  248  -7.2  100   -7.2  0     0     1003.9   NA       0.0000   9999     750   11020 0    
2019/08/13  05:41:00  BASE  2.1462   352  2.35788  340  -7.2  100   -7.2  0     0     1003.9   NA       0.0000   9999     790   11020 0    
2019/08/13  05:42:00  BASE  2.28144  351  2.54016  352  -7.2  100   -7.2  0     0     1003.9   NA       0.0000   9999     790   11160 0    
2019/08/13  05:43:00  BASE  2.22264  349  2.54016  352  -7.2  100   -7.2  0     0     1003.9   NA       0.0000   9999     750   10960 0    
2019/08/13  05:44:00  BASE  1.93452  351  2.54016  352  -7.2  100   -7.2  0     0     1003.9   NA       0.0000   9999     11090 0     0    
2019/08/13  05:45:00  BASE  1.69932  353  2.54016  352  -7.2  100   -7.2  0     0     1003.8   NA       0.0000   9999     11090 0     0    
2019/08/13  05:46:00  BASE  1.54056  359  2.54016  352  -7.2  100   -7.2  0     0     1003.8   NA       0.0000   9999     11120 0     0    
2019/08/13  05:47:00  BASE  1.48764  3    2.54016  352  -7.2  100   -7.2  0     0     1003.8   NA       0.0000   9999     10960 0     0    
2019/08/13  05:48:00  BASE  1.54056  2    2.54016  352  -7.2  100   -7.2  0     0     1003.8   NA       0.0000   9999     11220 0     0    
2019/08/13  05:49:00  BASE  1.74636  356  2.54016  352  -7.2  100   -7.2  0     0     1003.8   NA       0.0000   9999     720   11090 0    
2019/08/13  05:50:00  BASE  1.8816   349  2.54016  352  -7.2  100   -7.2  0     0     1003.8   NA       0.0000   9999     11120 0     0    
2019/08/13  05:51:00  BASE  1.85808  348  2.54016  352  -7.2  100   -7.2  0     0     1003.8   NA       0.0000   9999     11190 0     0    
2019/08/13  05:52:00  BASE  1.7934   349  2.24028  348  -7.2  100   -7.2  0     0     1003.8   NA       0.0000   9999     11190 0     0    
2019/08/13  05:53:00  BASE  1.5876   348  2.1462   350  -7.2  100   -7.2  0     0     1003.8   NA       0.0000   9999     11320 0     0    
2019/08/13  05:54:00  BASE  1.50528  347  2.1462   350  -7.2  100   -7.2  0     0     1003.8   NA       0.0000   9999     11220 0     0    
2019/08/13  05:55:00  BASE  1.65816  352  2.1462   350  -7.2  100   -7.2  0     0     1003.7   NA       0.0000   9999     11320 0     0    
2019/08/13  05:56:00  BASE  1.7934   352  2.1462   350  -7.2  100   -7.2  0     0     1003.6   NA       0.0000   9999     11290 0     0    
2019/08/13  05:57:00  BASE  1.75812  356  2.1462   350  -7.2  100   -7.2  0     0     1003.6   NA       0.0000   9999     11320 0     0    
2019/08/13  05:58:00  BASE  1.4994   3    2.1462   350  -7.2  100   -7.2  0     0     1003.5   NA       0.0000   9999     11350 0     0    
2019/08/13  05:59:00  BASE  1.28772  0    2.058    354  -7.2  100   -7.2  0     0     1003.5   NA       0.0000   9999     11320 0     0    
2019/08/13  06:00:00  BASE  1.31712  355  2.058    354  -7.2  100   -7.2  0     0     1003.5   NA       0.0000   9999     11350 0     0    
2019/08/13  06:01:00  BASE  1.3818   358  2.058    354  -7.2  100   -7.2  0     0     1003.5   NA       0.0000   9999     11320 0     0    
2019/08/13  06:02:00  BASE  1.31712  3    2.058    354  -7.2  100   -7.2  0     0     1003.5   NA       0.0000   9999     11390 0     0    
2019/08/13  06:03:00  BASE  1.3524   356  2.058    354  -7.1  100   -7.1  0     0     1003.5   NA       0.0000   9999     11320 0     0    
2019/08/13  06:04:00  BASE  1.40532  356  2.058    354  -7.1  100   -7.1  0     0     1003.5   NA       0.0000   9999     11350 0     0    
2019/08/13  06:05:00  BASE  1.39944  356  2.0286   354  -7.1  100   -7.1  0     0     1003.5   NA       0.0000   9999     11250 0     0    
2019/08/13  06:06:00  BASE  1.34652  350  1.87572  5    -7.1  100   -7.1  0     0     1003.5   NA       0.0000   9999     11320 0     0    
2019/08/13  06:07:00  BASE  1.19952  344  1.66404  346  -7.1  100   -7.1  0     0     1003.5   NA       0.0000   9999     11160 0     0    
2019/08/13  06:08:00  BASE  1.16424  344  1.66404  346  -7.1  100   -7.1  0     0     1003.5   NA       0.0000   9999     11350 0     0    
2019/08/13  06:09:00  BASE  1.12896  352  1.66404  346  -7.1  100   -7.1  0     0     1003.5   NA       0.0000   9999     11250 0     0    
2019/08/13  06:10:00  BASE  0.89964  345  1.66404  346  -7.1  100   -7.1  0     0     1003.5   NA       0.0000   9999     11420 0     0    
2019/08/13  06:11:00  BASE  0.40572  345  1.66404  346  -7.1  100   -7.1  0     0     1003.5   NA       0.0000   9999     11420 0     0    
2019/08/13  06:12:00  BASE  0.05292  357  1.66404  346  -7.1  100   -7.1  0     0     1003.4   NA       0.0000   9999     11450 0     0    
2019/08/13  06:13:00  BASE  0        9    1.66404  346  -7.1  100   -7.1  0     0     1003.4   NA       0.0000   9999     11420 0     0    
2019/08/13  06:14:00  BASE  0        10   1.66404  346  -7.1  100   -7.1  0     0     1003.4   NA       0.0000   9999     11450 0     0    
2019/08/13  06:15:00  BASE  0        9    1.45236  349  -7.1  100   -7.1  0     0     1003.4   NA       0.0000   9999     11480 0     0    
2019/08/13  06:16:00  BASE  0        8    1.35828  138  -7.1  100   -7.1  0     0     1003.4   NA       0.0000   9999     11420 0     0    
2019/08/13  06:17:00  BASE  0        3    1.35828  138  -7.1  100   -7.1  0     0     1003.4   NA       0.0000   9999     11420 0     0    
2019/08/13  06:18:00  BASE  0        354  1.21128  345  -7.1  100   -7.1  0     0     1003.4   NA       0.0000   9999     11420 0     0    
2019/08/13  06:19:00  BASE  0        328  0.84672  339  -7.1  100   -7.1  0     0     1003.4   NA       0.0000   9999     11480 0     0    
2019/08/13  06:20:00  BASE  0        305  0.66444  338  -7.1  100   -7.1  0     0     1003.4   NA       0.0000   9999     11450 0     0    
2019/08/13  06:21:00  BASE  0        299  0        M    -7.1  100   -7.1  0     0     1003.4   NA       0.0000   9999     11390 0     0    
2019/08/13  06:22:00  BASE  0.34104  297  1.029    301  -7.1  100   -7.1  0     0     1003.4   NA       0.0000   9999     11350 0     0    
2019/08/13  06:23:00  BASE  0.96432  300  1.35828  302  -7.1  100   -7.1  0     0     1003.4   NA       0.0000   9999     11350 0     0    
2019/08/13  06:24:00  BASE  1.40532  300  1.66404  298  -7.1  100   -7.1  0     0     1003.4   NA       0.0000   9999     11320 0     0    
2019/08/13  06:25:00  BASE  1.52292  299  1.66404  298  -7.1  100   -7.1  0     0     1003.4   NA       0.0000   9999     11220 0     0    
2019/08/13  06:26:00  BASE  1.37004  299  1.66404  298  -7.1  100   -7.1  0     0     1003.4   NA       0.0000   9999     11290 0     0    
2019/08/13  06:27:00  BASE  1.2348   299  1.66404  298  -7.1  100   -7.1  0     0     1003.5   NA       0.0000   9999     11320 0     0    
2019/08/13  06:28:00  BASE  1.25244  299  1.66404  298  -7.1  100   -7.1  0     0     1003.5   NA       0.0000   9999     11220 0     0    
2019/08/13  06:29:01  BASE  1.32888  302  1.66404  298  -7.1  100   -7.1  0     0     1003.5   NA       0.0000   9999     11120 0     0    
2019/08/13  06:30:00  BASE  1.37592  308  1.66404  298  -7.1  100   -7.1  0     0     1003.5   NA       0.0000   9999     11160 0     0    
2019/08/13  06:31:00  BASE  1.32888  312  1.66404  298  -7.1  100   -7.1  0     0     1003.5   NA       0.0000   9999     11220 0     0    
2019/08/13  06:32:00  BASE  1.0584   309  1.66404  298  -7.1  100   -7.1  0     0     1003.4   NA       0.0000   9999     11060 0     0    
2019/08/13  06:33:00  BASE  0.77028  305  1.66404  298  -7.1  100   -7.1  0     0     1003.4   NA       0.0000   9999     11020 0     0    
2019/08/13  06:34:00  BASE  0.68208  310  1.60524  298  -7.1  100   -7.1  0     0     1003.4   NA       0.0000   9999     11020 0     0    
2019/08/13  06:35:00  BASE  0.77028  321  1.57584  302  -7.0  100   -7.0  0     0     1003.4   NA       0.0000   9999     10990 0     0    
2019/08/13  06:36:00  BASE  0.9114   335  1.57584  302  -7.0  100   -7.0  0     0     1003.4   NA       0.0000   9999     10930 0     0    
2019/08/13  06:37:00  BASE  0.78792  349  1.57584  302  -7.0  100   -7.0  0     0     1003.4   NA       0.0000   9999     10960 0     0    
2019/08/13  06:38:00  BASE  0.38808  9    1.57584  302  -7.1  100   -7.1  0     0     1003.3   NA       0.0000   9999     11060 0     0    
2019/08/13  06:39:00  BASE  0.47628  43   1.54056  305  -7.1  100   -7.1  0     0     1003.3   NA       0.0000   9999     11020 0     0    
2019/08/13  06:40:00  BASE  0.85848  55   1.35828  316  -7.1  100   -7.1  0     0     1003.3   NA       0.0000   9999     11060 0     0    
2019/08/13  06:41:00  BASE  0.9996   50   1.24068  42   -7.2  100   -7.2  0     0     1003.3   NA       0.0000   9999     11120 0     0    
2019/08/13  06:42:00  BASE  1.1466   43   1.42296  39   -7.2  100   -7.2  0     0     1003.3   NA       0.0000   9999     10990 0     0    
2019/08/13  06:43:00  BASE  1.1466   41   1.42296  39   -7.2  100   -7.2  0     0     1003.3   NA       0.0000   9999     11020 0     0    
2019/08/13  06:44:00  BASE  1.12896  51   1.42296  39   -7.2  100   -7.2  0     0     1003.2   NA       0.0000   9999     10930 0     0    
2019/08/13  06:45:00  BASE  1.28184  62   1.60524  64   -7.2  100   -7.2  0     0     1003.2   NA       0.0000   9999     11020 0     0    
2019/08/13  06:46:00  BASE  1.39356  65   1.60524  64   -7.2  100   -7.2  0     0     1003.2   NA       0.0000   9999     11060 0     0    
2019/08/13  06:47:00  BASE  1.44648  64   1.60524  64   -7.2  100   -7.2  0     0     1003.2   NA       0.0000   9999     10960 0     0    
2019/08/13  06:48:00  BASE  1.40532  65   1.60524  64   -7.2  100   -7.2  0     0     1003.2   NA       0.0000   9999     10930 0     0    
2019/08/13  06:49:00  BASE  1.3818   70   1.60524  64   -7.2  100   -7.2  0     0     1003.2   NA       0.0000   9999     10860 0     0    
2019/08/13  06:50:00  BASE  1.3818   81   1.60524  64   -7.2  100   -7.2  0     0     1003.2   NA       0.0000   9999     10860 0     0    
2019/08/13  06:51:00  BASE  1.34064  93   1.60524  64   -7.3  100   -7.3  0     0     1003.2   NA       0.0000   9999     10790 0     0    
2019/08/13  06:52:00  BASE  1.31124  99   1.60524  64   -7.4  100   -7.4  0     0     1003.2   NA       0.0000   9999     10930 0     0    
2019/08/13  06:53:00  BASE  1.2054   102  1.60524  64   -7.5  100   -7.5  0     0     1003.2   NA       0.0000   9999     11060 0     0    
2019/08/13  06:54:00  BASE  1.22892  106  1.60524  64   -7.6  100   -7.6  0     0     1003.2   NA       0.0000   9999     11090 0     0    
2019/08/13  06:55:00  BASE  1.51116  111  1.87572  116  -7.7  100   -7.7  0     0     1003.2   NA       0.0000   9999     10960 0     0    
2019/08/13  06:56:00  BASE  1.64052  119  1.87572  116  -7.7  100   -7.7  0     0     1003.1   NA       0.0000   9999     10930 0     0    
2019/08/13  06:57:00  BASE  1.52292  129  1.87572  116  -7.7  100   -7.7  0     0     1003.2   NA       0.0000   9999     10930 0     0    
2019/08/13  06:58:00  BASE  1.54644  135  1.90512  137  -7.6  100   -7.6  0     0     1003.2   NA       0.0000   9999     10960 0     0    
2019/08/13  06:59:00  BASE  1.7052   141  2.058    149  -7.5  100   -7.5  0     0     1003.2   NA       0.0000   9999     11020 0     0    
2019/08/13  07:00:00  BASE  1.72284  142  2.058    149  -7.5  100   -7.5  0     0     1003.2   NA       0.0000   9999     11120 0     0    
2019/08/13  07:01:00  BASE  1.65816  144  2.058    149  -7.4  100   -7.4  0     0     1003.2   NA       0.0000   9999     11090 0     0    
2019/08/13  07:02:00  BASE  1.68168  150  2.058    149  -7.3  100   -7.3  0     0     1003.2   NA       0.0000   9999     11090 0     0    
2019/08/13  07:03:00  BASE  1.7052   155  2.058    149  -7.3  100   -7.3  0     0     1003.2   NA       0.0000   9999     11120 0     0    
2019/08/13  07:04:00  BASE  1.7052   159  2.058    149  -7.3  100   -7.3  0     0     1003.2   NA       0.0000   9999     11060 0     0    
2019/08/13  07:05:00  BASE  1.66404  161  2.058    149  -7.3  100   -7.3  0     0     1003.1   NA       0.0000   9999     11090 0     0    
2019/08/13  07:06:00  BASE  1.48764  160  2.058    149  -7.3  100   -7.3  0     0     1003.0   NA       0.0000   9999     11120 0     0    
2019/08/13  07:07:00  BASE  1.34064  156  2.058    149  -7.2  100   -7.2  0     0     1003.0   NA       0.0000   9999     11160 0     0    
2019/08/13  07:08:00  BASE  1.37004  152  2.058    149  -7.2  100   -7.2  0     0     1003.0   NA       0.0000   9999     11120 0     0    
2019/08/13  07:09:00  BASE  1.45824  147  1.87572  155  -7.2  100   -7.2  0     0     1003.0   NA       0.0000   9999     11160 0     0    
2019/08/13  07:10:00  BASE  1.59348  142  1.87572  155  -7.2  100   -7.2  0     0     1003.0   NA       0.0000   9999     11090 0     0    
2019/08/13  07:11:00  BASE  1.69932  140  1.87572  155  -7.3  100   -7.3  0     0     1003.0   NA       0.0000   9999     11120 0     0    
2019/08/13  07:12:00  BASE  1.71696  140  1.87572  155  -7.3  100   -7.3  0     0     1002.9   NA       0.0000   9999     11160 0     0    
2019/08/13  07:13:00  BASE  1.75224  135  1.90512  130  -7.3  100   -7.3  0     0     1002.9   NA       0.0000   9999     11120 0     0    
2019/08/13  07:14:00  BASE  1.80516  132  1.90512  130  -7.3  100   -7.3  0     0     1002.8   NA       0.0000   9999     10990 0     0    
2019/08/13  07:15:00  BASE  1.90512  134  2.0874   133  -7.3  100   -7.3  0     0     1002.8   NA       0.0000   9999     11090 0     0    
2019/08/13  07:16:00  BASE  1.91688  133  2.0874   135  -7.3  100   -7.3  0     0     1002.9   NA       0.0000   9999     11290 0     0    
2019/08/13  07:17:00  BASE  1.95804  134  2.1756   133  -7.3  100   -7.3  0     0     1002.9   NA       0.0000   9999     11250 0     0    
2019/08/13  07:18:00  BASE  2.06976  135  2.21088  137  -7.3  100   -7.3  0     0     1002.9   NA       0.0000   9999     11250 0     0    
2019/08/13  07:19:00  BASE  1.95804  135  2.21088  137  -7.2  100   -7.2  0     0     1002.9   NA       0.0000   9999     11250 0     0    
2019/08/13  07:20:00  BASE  1.7346   136  2.21088  137  -7.2  100   -7.2  0     0     1002.9   NA       0.0000   9999     11220 0     0    
2019/08/13  07:21:00  BASE  1.66992  140  2.21088  137  -7.3  100   -7.3  0     0     1002.9   NA       0.0000   9999     11120 0     0    
2019/08/13  07:22:00  BASE  1.81692  141  2.21088  137  -7.3  100   -7.3  0     0     1002.8   NA       0.0000   9999     11120 0     0    
2019/08/13  07:23:00  BASE  1.86396  133  2.21088  137  -7.4  100   -7.4  0     0     1002.8   NA       0.0000   9999     11120 0     0    
2019/08/13  07:24:00  BASE  1.80516  123  2.21088  137  -7.5  100   -7.5  0     0     1002.8   NA       0.0000   9999     11160 0     0    
2019/08/13  07:25:00  BASE  1.66992  115  2.21088  137  -7.4  100   -7.4  0     0     1002.8   NA       0.0000   9999     11120 0     0    
2019/08/13  07:26:00  BASE  1.43472  112  2.21088  137  -7.4  100   -7.4  0     0     1002.8   NA       0.0000   9999     11160 0     0    
2019/08/13  07:27:00  BASE  1.30536  117  2.21088  137  -7.3  100   -7.3  0     0     1002.8   NA       0.0000   9999     8690  11090 0    
2019/08/13  07:28:00  BASE  1.34652  120  2.058    141  -7.3  100   -7.3  0     0     1002.8   NA       0.0000   9999     8600  11060 0    
2019/08/13  07:29:00  BASE  1.27596  119  2.058    141  -7.3  100   -7.3  0     0     1002.8   NA       0.0000   9999     11090 0     0    
2019/08/13  07:30:00  BASE  1.1172   119  2.058    141  -7.3  100   -7.3  0     0     1002.8   NA       0.0000   9999     11120 0     0    
2019/08/13  07:31:00  BASE  1.28772  114  2.058    141  -7.3  100   -7.3  0     0     1002.8   NA       0.0000   9999     11160 0     0    
2019/08/13  07:32:00  BASE  1.50528  113  1.93452  125  -7.4  100   -7.4  0     0     1002.8   NA       0.0000   9999     8170  9020  11120
2019/08/13  07:33:00  BASE  1.5582   116  1.93452  125  -7.4  100   -7.4  0     0     1002.8   NA       0.0000   9999     8140  11160 0    
2019/08/13  07:34:00  BASE  1.74636  115  2.0286   117  -7.3  100   -7.3  0     0     1002.8   NA       0.0000   9999     8100  11160 0    
2019/08/13  07:35:00  BASE  1.79928  115  2.0286   117  -7.3  100   -7.3  0     0     1002.8   NA       0.0000   9999     8010  11060 0    
2019/08/13  07:36:00  BASE  1.8522   116  2.24028  116  -7.3  100   -7.3  0     0     1002.8   NA       0.0000   9999     8010  11060 0    
2019/08/13  07:37:00  BASE  1.9404   113  2.24028  116  -7.3  100   -7.3  0     0     1002.8   NA       0.0000   9999     7940  10960 0    
2019/08/13  07:38:00  BASE  1.87572  108  2.32848  102  -7.3  100   -7.3  0     0     1002.7   NA       0.0000   9999     7870  10960 0    
2019/08/13  07:39:00  BASE  2.00508  105  2.32848  102  -7.2  100   -7.2  0     0     1002.7   NA       0.0000   9999     7870  10960 0    
2019/08/13  07:40:00  BASE  2.1462   103  2.48136  98   -7.2  100   -7.2  0     0     1002.7   NA       0.0000   9999     7810  0     0    
2019/08/13  07:41:00  BASE  1.80516  105  2.48136  98   -7.2  100   -7.2  0     0     1002.7   NA       0.0000   9999     7680  0     0    
2019/08/13  07:42:00  BASE  1.4994   105  2.48136  98   -7.2  100   -7.2  0     0     1002.7   NA       0.0000   9999     8100  11120 0    
2019/08/13  07:43:00  BASE  1.42296  97   2.48136  98   -7.2  100   -7.2  0     0     1002.7   NA       0.0000   9999     7480  11060 0    
2019/08/13  07:44:00  BASE  1.7052   92   2.48136  98   -7.2  100   -7.2  0     0     1002.7   NA       0.0000   9999     7380  10760 0    
2019/08/13  07:45:00  BASE  2.19324  96   2.54016  99   -7.3  100   -7.3  0     0     1002.7   NA       0.0000   9999     7250  11060 0    
2019/08/13  07:46:00  BASE  2.2344   100  2.54016  99   -7.3  100   -7.3  0     0     1002.7   NA       0.0000   9999     7280  8200  11090
2019/08/13  07:47:00  BASE  2.15796  100  2.54016  99   -7.3  100   -7.3  0     0     1002.7   NA       0.0000   9999     7090  8140  11160
2019/08/13  07:48:00  BASE  2.27556  96   2.69304  94   -7.4  100   -7.4  0     0     1002.6   NA       0.0000   9999     6990  8070  11060
2019/08/13  07:49:00  BASE  2.18736  90   2.69304  94   -7.4  100   -7.4  0     0     1002.6   NA       0.0000   9999     6960  11090 0    
2019/08/13  07:50:00  BASE  2.06388  89   2.81064  101  -7.3  100   -7.3  0     0     1002.6   NA       0.0000   9999     6890  0     0    
2019/08/13  07:51:00  BASE  1.8816   88   2.81064  101  -7.3  100   -7.3  0     0     1002.6   NA       0.0000   9999     7910  11020 0    
2019/08/13  07:52:00  BASE  1.82868  88   2.81064  101  -7.2  100   -7.2  0     0     1002.5   NA       0.0000   9999     7840  11020 0    
2019/08/13  07:53:00  BASE  1.95804  84   2.81064  101  -7.2  100   -7.2  0     0     1002.5   NA       0.0000   9999     7840  8660  11060
2019/08/13  07:54:00  BASE  1.93452  90   2.81064  101  -7.1  100   -7.1  0     0     1002.5   NA       0.0000   9999     7740  0     0    
2019/08/13  07:55:00  BASE  1.94628  103  2.81064  101  -7.1  100   -7.1  0     0     1002.5   NA       0.0000   9999     7710  10990 0    
2019/08/13  07:56:00  BASE  1.60524  104  2.81064  101  -7.1  100   -7.1  0     0     1002.5   NA       0.0000   9999     10730 0     0    
2019/08/13  07:57:00  BASE  1.21716  106  2.81064  101  -7.1  100   -7.1  0     0     1002.5   NA       0.0000   9999     10860 0     0    
2019/08/13  07:58:00  BASE  1.27008  107  2.81064  101  -7.1  100   -7.1  0     0     1002.5   NA       0.0000   9999     7320  10860 0    
2019/08/13  07:59:00  BASE  1.17012  110  2.81064  101  -7.2  100   -7.2  0     0     1002.5   NA       0.0000   9999     5450  7220  10600
2019/08/13  08:00:00  BASE  0.81732  105  2.66364  89   -7.2  100   -7.2  0     0     1002.5   NA       0.0000   9999     5320  7190  10340
2019/08/13  08:01:00  BASE  0.77616  98   2.66364  89   -7.2  100   -7.2  0     0     1002.5   NA       0.0000   9999     10500 0     0    
2019/08/13  08:02:00  BASE  0.882    103  2.66364  89   -7.2  100   -7.2  0     0     1002.5   NA       0.0000   9999     7420  10630 0    
2019/08/13  08:03:00  BASE  0.87024  117  2.45196  107  -7.1  100   -7.1  0     0     1002.5   NA       0.0000   9999     7480  10700 0    
2019/08/13  08:04:00  BASE  0.90552  126  2.35788  97   -7.1  100   -7.1  0     0     1002.5   NA       0.0000   9999     10730 0     0    
2019/08/13  08:05:00  BASE  0.9408   130  1.72284  105  -7.0  100   -7.0  0     0     1002.6   NA       0.0000   9999     7280  10700 0    
2019/08/13  08:06:00  BASE  0.50568  134  1.72284  105  -7.0  100   -7.0  0     0     1002.6   NA       0.0000   9999     7280  10730 0    
2019/08/13  08:07:00  BASE  0.47628  131  1.72284  105  -7.0  100   -7.0  0     0     1002.5   NA       0.0000   9999     7190  10700 0    
2019/08/13  08:08:00  BASE  0.87024  129  1.21128  120  -7.0  100   -7.0  0     0     1002.5   NA       0.0000   9999     10630 0     0    
2019/08/13  08:09:00  BASE  1.11132  130  1.69344  126  -7.0  100   -7.0  0     0     1002.5   NA       0.0000   9999     7120  10600 0    
2019/08/13  08:10:00  BASE  1.69344  129  2.24028  126  -7.0  100   -7.0  0     0     1002.5   NA       0.0000   9999     6920  10890 0    
2019/08/13  08:11:00  BASE  2.05212  128  2.24028  126  -7.0  100   -7.0  0     0     1002.4   NA       0.0000   9999     6790  0     0    
2019/08/13  08:12:00  BASE  1.79928  121  2.24028  126  -7.0  100   -7.0  0     0     1002.3   NA       0.0000   9999     6560  0     0    
2019/08/13  08:13:00  BASE  1.69344  112  2.24028  126  -7.1  100   -7.1  0     0     1002.3   NA       0.0000   9999     6400  0     0    
2019/08/13  08:14:00  BASE  1.9992   118  2.35788  127  -7.1  100   -7.1  0     0     1002.3   NA       0.0000   9999     5640  0     0    
2019/08/13  08:15:00  BASE  2.06976  123  2.35788  118  -7.0  100   -7.0  0     0     1002.3   NA       0.0000   9999     5450  0     0    
2019/08/13  08:16:00  BASE  2.35788  118  3.0576   112  -7.0  100   -7.0  0     0     1002.3   NA       0.0000   9999     5350  0     0    
2019/08/13  08:17:00  BASE  2.8518   115  3.29868  110  -6.9  100   -6.9  0     0     1002.3   NA       0.0000   9999     5280  0     0    
2019/08/13  08:18:00  BASE  2.83416  111  3.29868  110  -6.9  100   -6.9  0     0     1002.3   NA       0.0000   9999     5220  0     0    
2019/08/13  08:19:00  BASE  2.5872   111  3.29868  110  -6.8  100   -6.8  0     0     1002.3   NA       0.0000   9999     5320  0     0    
2019/08/13  08:20:00  BASE  2.46372  114  3.29868  110  -6.8  100   -6.8  0     0     1002.3   NA       0.0000   9999     5250  0     0    
2019/08/13  08:21:00  BASE  2.61072  117  3.29868  110  -6.8  100   -6.8  0     0     1002.3   NA       0.0000   9999     5250  0     0    
2019/08/13  08:22:00  BASE  2.87532  119  3.35748  120  -6.7  100   -6.7  0     0     1002.3   NA       0.0000   9999     5020  0     0    
2019/08/13  08:23:00  BASE  2.7636   120  3.35748  120  -6.7  100   -6.7  0     0     1002.3   NA       0.0000   9999     4950  0     0    
2019/08/13  08:24:00  BASE  2.46372  120  3.35748  120  -6.7  100   -6.7  0     0     1002.3   NA       0.0000   9999     4790  0     0    
2019/08/13  08:25:00  BASE  2.76948  117  3.35748  115  -6.7  100   -6.7  0     0     1002.3   NA       0.0000   9999     4590  0     0    
2019/08/13  08:26:00  BASE  3.08112  113  3.35748  115  -6.7  100   -6.7  0     0     1002.2   NA       0.0000   9999     4270  0     0    
2019/08/13  08:27:00  BASE  3.234    115  4.263    118  -6.7  100   -6.7  0     0     1002.2   NA       0.0000   9999     4170  0     0    
2019/08/13  08:28:00  BASE  3.46332  120  4.263    118  -6.7  100   -6.7  0     0     1002.2   NA       0.0000   9999     4790  0     0    
2019/08/13  08:29:00  BASE  3.40452  120  4.263    118  -6.7  100   -6.7  0     0     1002.2   NA       0.0000   9999     4760  0     0    
2019/08/13  08:30:00  BASE  3.22224  121  4.263    118  -6.7  100   -6.7  0     0     1002.2   NA       0.0000   9999     4430  0     0    
2019/08/13  08:31:00  BASE  3.21636  117  4.263    118  -6.7  100   -6.7  0     0     1002.2   NA       0.0000   9999     4270  0     0    
2019/08/13  08:32:00  BASE  3.33396  111  4.263    118  -6.7  100   -6.7  0     0     1002.2   NA       0.0000   9999     4070  0     0    
2019/08/13  08:33:00  BASE  3.2634   115  4.263    118  -6.7  100   -6.7  0     0     1002.2   NA       0.0000   9999     3900  0     0    
2019/08/13  08:34:00  BASE  3.2634   120  4.263    118  -6.6  100   -6.6  0     0     1002.2   NA       0.0000   9999     4490  0     0    
2019/08/13  08:35:00  BASE  3.42216  119  4.263    118  -6.6  100   -6.6  0     0     1002.2   NA       0.0000   9999     3970  0     0    
2019/08/13  08:36:00  BASE  3.50448  119  4.263    118  -6.6  100   -6.6  0     0     1002.2   NA       0.0000   9999     4490  0     0    
2019/08/13  08:37:00  BASE  3.53388  118  3.96312  108  -6.6  100   -6.6  0     0     1002.2   NA       0.0000   9999     4430  0     0    
2019/08/13  08:38:00  BASE  3.35748  114  3.96312  108  -6.6  100   -6.6  0     0     1002.2   NA       0.0000   9999     6070  0     0    
2019/08/13  08:39:00  BASE  3.2046   112  3.96312  108  -6.6  100   -6.6  0     0     1002.2   NA       0.0000   9999     4330  0     0    
2019/08/13  08:40:00  BASE  3.29868  110  3.96312  108  -6.6  100   -6.6  0     0     1002.2   NA       0.0000   9999     7480  0     0    
2019/08/13  08:41:00  BASE  2.98704  107  3.93372  120  -6.6  100   -6.6  0     0     1002.2   NA       0.0000   9999     5580  0     0    
2019/08/13  08:42:00  BASE  2.76948  111  3.93372  120  -6.7  100   -6.7  0     0     1002.2   NA       0.0000   9999     5510  0     0    
2019/08/13  08:43:00  BASE  3.087    114  3.93372  120  -6.7  100   -6.7  0     0     1002.1   NA       0.0000   9999     5410  0     0    
2019/08/13  08:44:00  BASE  3.28104  112  3.93372  120  -6.7  100   -6.7  0     0     1002.1   NA       0.0000   9999     4920  0     0    
2019/08/13  08:45:00  BASE  3.35748  117  3.93372  120  -6.7  100   -6.7  0     0     1002.1   NA       0.0000   9999     4790  0     0    
2019/08/13  08:46:00  BASE  3.42216  117  3.93372  120  -6.6  100   -6.6  0     0     1002.1   NA       0.0000   9999     3380  0     0    
2019/08/13  08:47:00  BASE  3.4692   117  3.90432  122  -6.6  100   -6.6  0     0     1002.1   NA       0.0000   9999     3250  6660  0    
2019/08/13  08:48:00  BASE  3.78672  120  4.263    117  -6.6  100   -6.6  0     0     1002.1   NA       0.0000   9999     3150  4330  0    
2019/08/13  08:49:00  BASE  3.89256  121  4.263    117  -6.6  100   -6.6  0     0     1002.1   NA       0.0000   9999     3050  0     0    
2019/08/13  08:50:00  BASE  3.1458   120  4.263    117  -6.6  100   -6.6  0     0     1002.1   NA       0.0000   9999     3020  5020  0    
2019/08/13  08:51:00  BASE  2.85768  115  4.29828  112  -6.6  100   -6.6  0     0     1002.1   NA       0.0000   9999     2950  0     0    
2019/08/13  08:52:00  BASE  3.46332  113  4.29828  112  -6.6  100   -6.6  0     0     1002.1   NA       0.0000   9999     2890  0     0    
2019/08/13  08:53:00  BASE  3.72204  114  4.29828  112  -6.6  100   -6.6  0     0     1002.1   NA       0.0000   9999     2760  0     0    
2019/08/13  08:54:01  BASE  3.86316  117  4.47468  116  -6.6  100   -6.6  0     0     1002.1   NA       0.0000   9999     2720  3940  0    
2019/08/13  08:55:00  BASE  4.0572   116  4.47468  119  -6.6  100   -6.6  0     0     1002.0   NA       0.0000   9999     2590  4040  0    
2019/08/13  08:56:00  BASE  3.99252  117  4.53936  119  -6.6  100   -6.6  0     0     1002.0   NA       0.0000   9999     2490  5940  0    
2019/08/13  08:57:00  BASE  4.05132  117  4.53936  110  -6.6  100   -6.6  0     0     1002.0   NA       0.0000   9999     2360  0     0    
2019/08/13  08:58:00  BASE  4.32768  115  4.96272  114  -6.6  100   -6.6  0     0     1001.9   NA       0.0000   9999     2260  0     0    
2019/08/13  08:59:00  BASE  3.81612  108  4.96272  114  -6.6  100   -6.6  0     0     1002.0   NA       0.0000   9999     2170  0     0    
2019/08/13  09:00:00  BASE  2.96352  105  4.96272  114  -6.6  100   -6.6  0     0     1002.0   NA       0.0000   9999     2070  0     0    
2019/08/13  09:01:00  BASE  3.0576   110  4.96272  114  -6.5  100   -6.5  0     0     1002.0   NA       0.0000   9999     1970  0     0    
2019/08/13  09:02:00  BASE  3.48684  113  4.96272  114  -6.5  100   -6.5  0     0     1002.0   NA       0.0000   9999     1900  0     0    
2019/08/13  09:03:00  BASE  3.48684  116  4.96272  114  -6.5  100   -6.5  0     0     1001.9   NA       0.0000   9999     1800  0     0    
2019/08/13  09:04:00  BASE  2.9106   110  4.96272  114  -6.4  100   -6.4  0     0     1001.9   NA       0.0000   9999     1740  2890  0    
2019/08/13  09:05:00  BASE  2.5284   106  4.96272  114  -6.4  100   -6.4  0     0     1001.8   NA       0.0000   9999     1670  0     0    
2019/08/13  09:06:00  BASE  2.85768  112  4.96272  114  -6.3  100   -6.3  0     0     1001.8   NA       0.0000   9999     1610  0     0    
2019/08/13  09:07:00  BASE  3.44568  118  4.96272  114  -6.3  100   -6.3  0     0     1001.8   NA       0.0000   9999     4720  0     0    
2019/08/13  09:08:00  BASE  3.5868   118  4.93332  135  -6.3  100   -6.3  0     0     1001.8   NA       0.0000   9999     4490  0     0    
2019/08/13  09:09:00  BASE  3.48684  110  4.93332  135  -6.3  100   -6.3  0     0     1001.8   NA       0.0000   9999     0     0     0    
2019/08/13  09:10:00  BASE  3.48684  109  4.93332  135  -6.3  100   -6.3  0     0     1001.7   NA       0.0000   9999     1710  0     0    
2019/08/13  09:11:00  BASE  2.89296  114  4.93332  135  -6.3  100   -6.3  0     0     1001.7   NA       0.0000   9999     1610  0     0    
2019/08/13  09:12:00  BASE  2.34612  113  4.93332  135  -6.3  100   -6.3  0     0     1001.7   NA       0.0000   9999     0     0     0    
2019/08/13  09:13:00  BASE  2.75184  112  4.93332  135  -6.3  100   -6.3  0     0     1001.7   NA       0.0000   9999     0     0     0    
2019/08/13  09:14:00  BASE  2.7636   117  4.93332  135  -6.2  100   -6.2  0     0     1001.7   NA       0.0000   -SN      9999  1570  0    
2019/08/13  09:15:00  BASE  2.11092  123  4.93332  135  -6.2  100   -6.2  0     0     1001.7   NA       0.0000   -SN      9999  1540  0    
2019/08/13  09:16:00  BASE  2.89884  125  4.93332  135  -6.2  100   -6.2  0     0     1001.7   NA       0.0000   -SN      9999  660   0    
2019/08/13  09:17:00  BASE  3.57504  119  4.35708  123  -6.2  100   -6.2  0     0     1001.7   NA       0.0000   -SN      9999  620   0    
2019/08/13  09:18:00  BASE  3.0576   114  4.35708  123  -6.2  100   -6.2  0     0     1001.7   NA       0.0000   -SN      9999  560   0    
2019/08/13  09:19:00  BASE  3.12228  114  4.35708  123  -6.2  100   -6.2  0     0     1001.6   NA       0.0000   -SN      8000  460   0    
2019/08/13  09:20:00  BASE  2.83416  116  4.35708  123  -6.3  100   -6.3  0     0     1001.7   NA       0.0000   -SN      7000  390   0    
2019/08/13  09:21:00  BASE  2.19912  114  4.35708  123  -6.3  100   -6.3  0     0     1001.7   NA       0.0000   -SN      6000  360   0    
2019/08/13  09:22:00  BASE  2.50488  116  4.35708  123  -6.2  100   -6.2  0     0     1001.7   NA       0.0000   -SN      BR    5000  360  
2019/08/13  09:23:00  BASE  2.94588  121  4.35708  123  -6.2  100   -6.2  0     0     1001.7   NA       0.0000   -SN      BR    4200  330  
2019/08/13  09:24:00  BASE  2.56368  119  4.35708  123  -6.2  100   -6.2  0     0     1001.7   NA       0.0000   -SN      BR    3500  330  
2019/08/13  09:25:00  BASE  2.44608  118  4.35708  123  -6.2  100   -6.2  0     0     1001.7   NA       0.0000   -SN      BR    3300  360  
2019/08/13  09:26:00  BASE  2.4402   115  3.99252  118  -6.2  100   -6.2  0     0     1001.7   NA       0.0000   -SN      BR    3700  360  
2019/08/13  09:27:00  BASE  1.90512  109  3.75144  120  -6.2  100   -6.2  0     0     1001.7   NA       0.0000   -SN      BR    3700  330  
2019/08/13  09:28:00  BASE  1.51704  109  3.75144  120  -6.2  100   -6.2  0     0     1001.7   NA       0.0000   -SN      BR    3100  0    
2019/08/13  09:29:00  BASE  1.57584  113  3.41628  126  -6.1  100   -6.1  0     0     1001.6   NA       0.0000   -SN      BR    3100  300  
2019/08/13  09:30:00  BASE  1.72872  120  3.41628  126  -6.1  100   -6.1  0     0     1001.6   NA       0.0000   -SN      BR    3200  300  
2019/08/13  09:31:00  BASE  1.51704  125  3.41628  126  -6.1  100   -6.1  0     0     1001.6   NA       0.0000   -SN      BR    2700  260  
2019/08/13  09:32:00  BASE  1.37004  119  3.29868  126  -6.0  100   -6.0  0     0     1001.6   NA       0.0000   -SN      BR    2400  300  
2019/08/13  09:33:00  BASE  1.59348  120  3.26928  123  -6.0  100   -6.0  0     0     1001.6   NA       0.0000   -SN      BR    2400  300  
2019/08/13  09:34:00  BASE  1.77576  120  3.26928  123  -6.0  100   -6.0  0     0     1001.6   NA       0.0000   -SN      BR    3000  0    
2019/08/13  09:35:00  BASE  1.66992  115  2.59896  117  -6.0  100   -6.0  0     0     1001.6   NA       0.0000   -SN      BR    3400  0    
2019/08/13  09:36:00  BASE  1.64052  121  2.21088  115  -6.0  100   -6.0  0     0     1001.6   NA       0.0000   -SN      BR    3400  0    
2019/08/13  09:37:00  BASE  1.60524  126  2.21088  115  -6.0  100   -6.0  0     0     1001.6   NA       0.0000   -SN      BR    3300  0    
2019/08/13  09:38:00  BASE  1.3524   126  2.21088  115  -6.0  100   -6.0  0     0     1001.6   NA       0.0000   -SN      BR    3400  300  
2019/08/13  09:39:00  BASE  1.29948  121  2.1462   115  -6.0  100   -6.0  0     0     1001.6   NA       0.0000   -SN      BR    3600  330  
2019/08/13  09:40:00  BASE  1.3524   117  2.1462   115  -6.0  100   -6.0  0     0     1001.6   NA       0.0000   -SN      BR    3700  330  
2019/08/13  09:41:00  BASE  1.63464  118  2.81064  102  -6.0  100   -6.0  0     0     1001.6   NA       0.0000   -SN      BR    3800  300  
2019/08/13  09:42:00  BASE  2.01684  117  2.81064  102  -6.0  100   -6.0  0     0     1001.6   NA       0.0000   -SN      BR    4000  330  
2019/08/13  09:43:00  BASE  2.16384  121  2.81064  102  -6.0  100   -6.0  0     0     1001.6   NA       0.0000   -SN      BR    3700  330  
2019/08/13  09:44:00  BASE  1.92276  123  2.81064  102  -6.1  100   -6.1  0     0     1001.5   NA       0.0000   -SN      BR    3900  330  
2019/08/13  09:45:00  BASE  2.10504  122  2.99292  126  -6.1  100   -6.1  0     0     1001.5   NA       0.0000   -SN      BR    4100  360  
2019/08/13  09:46:00  BASE  2.2932   121  2.99292  126  -6.1  100   -6.1  0     0     1001.5   NA       0.0000   -SN      BR    3900  360  
2019/08/13  09:47:00  BASE  1.86984  122  2.99292  126  -6.1  100   -6.1  0     0     1001.5   NA       0.0000   -SN      BR    4200  360  
2019/08/13  09:48:00  BASE  2.01096  128  2.99292  126  -6.1  100   -6.1  0     0     1001.5   NA       0.0000   -SN      BR    4000  360  
2019/08/13  09:49:00  BASE  2.2932   131  2.99292  126  -6.1  100   -6.1  0     0     1001.5   NA       0.0000   -SN      BR    3600  330  
2019/08/13  09:50:00  BASE  2.81652  133  3.72204  131  -6.1  100   -6.1  0     0     1001.5   NA       0.0000   -SN      BR    3500  330  
2019/08/13  09:51:00  BASE  3.09288  132  3.72204  131  -6.1  100   -6.1  0     0     1001.5   NA       0.0000   -SN      BR    3500  330  
2019/08/13  09:52:00  BASE  2.9988   134  3.72204  131  -6.1  100   -6.1  0     0     1001.5   NA       0.0000   -SN      BR    3400  330  
2019/08/13  09:53:00  BASE  3.02232  133  3.72204  131  -6.2  100   -6.2  0     0     1001.5   NA       0.0000   -SN      BR    3500  360  
2019/08/13  09:54:00  BASE  3.087    133  3.75144  137  -6.2  100   -6.2  0     0     1001.5   NA       0.0000   -SN      BR    3800  390  
2019/08/13  09:55:00  BASE  3.13992  136  3.75144  137  -6.2  100   -6.2  0     0     1001.5   NA       0.0000   -SN      BR    4300  390  
2019/08/13  09:56:00  BASE  2.89884  129  3.75144  137  -6.2  100   -6.2  0     0     1001.5   NA       0.0000   -SN      BR    4700  360  
2019/08/13  09:57:00  BASE  2.65188  129  3.75144  137  -6.2  100   -6.2  0     0     1001.5   NA       0.0000   -SN      BR    3900  360  
2019/08/13  09:58:00  BASE  2.38728  134  3.75144  137  -6.2  100   -6.2  0     0     1001.5   NA       0.0000   -SN      BR    3800  360  
2019/08/13  09:59:00  BASE  2.19912  132  3.75144  137  -6.2  100   -6.2  0     0     1001.5   NA       0.0000   -SN      BR    3700  360  
2019/08/13  10:00:00  BASE  2.12856  125  3.75144  137  -6.2  100   -6.2  0     0     1001.4   NA       0.0000   -SN      BR    3400  360  
2019/08/13  10:01:00  BASE  2.27556  118  3.75144  137  -6.1  100   -6.1  0     0     1001.4   NA       0.0000   -SN      BR    3700  360  
2019/08/13  10:02:00  BASE  2.69892  116  3.75144  137  -6.1  100   -6.1  0     0     1001.4   NA       0.0000   -SN      BR    4500  0    
2019/08/13  10:03:00  BASE  2.6754   116  3.75144  137  -6.1  100   -6.1  0     0     1001.4   NA       0.0000   -SN      BR    4800  0    
2019/08/13  10:04:00  BASE  2.2638   117  3.69264  140  -6.1  100   -6.1  0     0     1001.4   NA       0.0000   -SN      BR    4400  0    
2019/08/13  10:05:00  BASE  2.47548  118  4.29828  127  -6.0  100   -6.0  0     0     1001.4   NA       0.0000   -SN      BR    3700  390  
2019/08/13  10:06:00  BASE  3.19872  122  4.29828  127  -6.0  100   -6.0  0     0     1001.3   NA       0.0000   -SN      BR    3600  360  
2019/08/13  10:07:00  BASE  3.16932  119  4.29828  127  -6.1  100   -6.1  0     0     1001.3   NA       0.0000   -SN      BR    4000  1050 
2019/08/13  10:08:00  BASE  2.35788  116  4.29828  127  -6.0  100   -6.0  0     0     1001.3   NA       0.0000   -SN      BR    5000  620  
2019/08/13  10:09:00  BASE  2.24028  118  4.29828  127  -6.0  100   -6.0  0     0     1001.3   NA       0.0000   -SN      BR    6000  390  
2019/08/13  10:10:00  BASE  2.95764  118  4.29828  127  -6.0  100   -6.0  0     0     1001.1   NA       0.0000   -SN      BR    5000  300  
2019/08/13  10:11:00  BASE  2.8224   109  4.29828  127  -6.0  100   -6.0  0     0     1001.1   NA       0.0000   -SN      BR    3700  300  
2019/08/13  10:12:00  BASE  2.37552  111  4.29828  127  -6.0  100   -6.0  0     0     1001.1   NA       0.0000   -SN      BR    4100  360  
2019/08/13  10:13:00  BASE  3.02232  116  4.38648  102  -6.0  100   -6.0  0     0     1001.1   NA       0.0000   -SN      BR    6000  0    
2019/08/13  10:14:00  BASE  3.36924  116  4.38648  102  -6.0  100   -6.0  0     0     1001.1   NA       0.0000   -SN      BR    7000  0    
2019/08/13  10:15:00  BASE  2.66952  118  4.38648  102  -6.0  100   -6.0  0     0     1001.1   NA       0.0000   -SN      BR    8000  0    
2019/08/13  10:16:00  BASE  2.28732  116  4.38648  102  -6.0  100   -6.0  0     0     1001.0   NA       0.0000   -SN      BR    8000  0    
2019/08/13  10:17:00  BASE  3.03996  120  4.38648  102  -6.0  100   -6.0  0     0     1001.0   NA       0.0000   -SN      BR    8000  0    
2019/08/13  10:18:00  BASE  3.27516  119  4.38648  102  -6.0  100   -6.0  0     0     1001.0   NA       0.0000   -SN      BR    9999  0    
2019/08/13  10:19:00  BASE  2.9694   119  4.75104  127  -5.9  100   -5.9  0     0     1000.9   NA       0.0000   -SN      BR    9999  0    
2019/08/13  10:20:00  BASE  2.92236  120  4.75104  127  -5.9  100   -5.9  0     0     1000.9   NA       0.0000   -SN      BR    9999  2560 
2019/08/13  10:21:00  BASE  2.87532  122  4.75104  127  -5.9  100   -5.9  0     0     1001.0   NA       0.0000   -SN      BR    9999  0    
2019/08/13  10:22:00  BASE  3.24576  123  4.75104  127  -5.9  100   -5.9  0     0     1001.0   NA       0.0000   -SN      BR    9999  2560 
2019/08/13  10:23:00  BASE  3.25164  115  4.75104  127  -5.9  100   -5.9  0     0     1001.0   NA       0.0000   -SN      9999  3410  0    
2019/08/13  10:24:00  BASE  3.1752   115  4.75104  127  -5.9  100   -5.9  0     0     1001.0   NA       0.0000   -SN      9999  3450  0    
2019/08/13  10:25:00  BASE  3.62208  119  4.93332  121  -5.9  100   -5.9  0     0     1000.9   NA       0.0000   -SN      9999  2170  0    
2019/08/13  10:26:00  BASE  4.05132  124  5.02152  119  -5.9  100   -5.9  0     0     1000.9   NA       0.0000   -SN      9999  1740  0    
2019/08/13  10:27:00  BASE  3.52212  123  5.02152  119  -6.0  100   -6.0  0     0     1000.9   NA       0.0000   -SN      9999  1180  2950 
2019/08/13  10:28:00  BASE  2.36376  117  5.02152  119  -5.9  100   -5.9  0     0     1000.9   NA       0.0000   -SN      9999  1210  2660 
2019/08/13  10:29:00  BASE  1.9992   115  5.02152  119  -5.9  100   -5.9  0     0     1000.9   NA       0.0000   -SN      9999  1180  2560 
2019/08/13  10:30:00  BASE  1.8228   118  5.02152  119  -5.9  100   -5.9  0     0     1000.9   NA       0.0000   -SN      9999  1210  3510 
2019/08/13  10:31:00  BASE  1.47     106  5.02152  119  -5.9  100   -5.9  0     0     1000.9   NA       0.0000   -SN      9999  1250  3410 
2019/08/13  10:32:00  BASE  1.764    102  5.02152  119  -5.8  100   -5.8  0     0     1000.9   NA       0.0000   -SN      9999  1250  3220 
2019/08/13  10:33:00  BASE  2.14032  109  5.02152  119  -5.8  100   -5.8  0     0     1000.9   NA       0.0000   -SN      9999  1310  3120 
2019/08/13  10:34:00  BASE  2.12268  108  5.02152  119  -5.8  100   -5.8  0     0     1000.9   NA       0.0000   -SN      9999  1180  3050 
2019/08/13  10:35:00  BASE  2.14032  104  5.02152  119  -5.7  100   -5.7  0     0     1000.9   NA       0.0000   -SN      9999  1120  3020 
2019/08/13  10:36:00  BASE  2.13444  106  3.59856  128  -5.7  100   -5.7  0     0     1000.9   NA       0.0000   -SN      9999  2400  0    
2019/08/13  10:37:00  BASE  1.68168  111  2.66364  118  -5.7  100   -5.7  0     0     1000.9   NA       0.0000   -SN      9999  2430  0    
2019/08/13  10:38:00  BASE  0.98784  123  2.66364  118  -5.7  100   -5.7  0     0     1000.9   NA       0.0000   -SN      9999  2430  0    
2019/08/13  10:39:00  BASE  0.9996   140  2.66364  118  -5.7  100   -5.7  0     0     1000.9   NA       0.0000   -SN      9999  2950  0    
2019/08/13  10:40:00  BASE  0.96432  123  2.66364  118  -5.7  100   -5.7  0     0     1000.9   NA       0.0000   -SN      9999  0     0    
2019/08/13  10:41:00  BASE  0.67032  120  2.66364  118  -5.7  100   -5.7  0     0     1000.9   NA       0.0000   -SN      9999  0     0    
2019/08/13  10:42:00  BASE  0.8232   139  2.66364  118  -5.7  100   -5.7  0     0     1000.9   NA       0.0000   -SN      9999  2360  0    
2019/08/13  10:43:00  BASE  1.12896  137  2.66364  118  -5.7  100   -5.7  0     0     1000.9   NA       0.0000   -SN      9999  2300  0    
2019/08/13  10:44:00  BASE  1.49352  141  2.59896  118  -5.8  100   -5.8  0     0     1000.9   NA       0.0000   -SN      9999  2230  0    
2019/08/13  10:45:00  BASE  2.16384  148  3.29868  152  -5.8  100   -5.8  0     0     1000.8   NA       0.0000   -SN      9999  2200  0    
2019/08/13  10:46:00  BASE  2.87532  145  3.51036  140  -5.8  100   -5.8  0     0     1000.8   NA       0.0000   9999     2200  0     0    
2019/08/13  10:47:00  BASE  3.32808  141  3.81024  141  -5.8  100   -5.8  0     0     1000.8   NA       0.0000   9999     2200  0     0    
2019/08/13  10:48:00  BASE  3.47508  139  3.83964  131  -5.8  100   -5.8  0     0     1000.8   NA       0.0000   9999     2200  0     0    
2019/08/13  10:49:00  BASE  3.28104  136  3.83964  131  -5.8  100   -5.8  0     0     1000.8   NA       0.0000   9999     2170  0     0    
2019/08/13  10:50:00  BASE  3.12228  133  3.83964  131  -5.9  100   -5.9  0     0     1000.8   NA       0.0000   9999     1280  0     0    
2019/08/13  10:51:00  BASE  2.84592  135  3.83964  131  -5.9  100   -5.9  0     0     1000.9   NA       0.0000   9999     1180  0     0    
2019/08/13  10:52:00  BASE  2.66364  137  3.83964  131  -5.9  100   -5.9  0     0     1000.9   NA       0.0000   9999     1120  1970  0    
2019/08/13  10:53:00  BASE  2.54016  136  3.83964  131  -6.0  100   -6.0  0     0     1000.8   NA       0.0000   9999     1120  1900  0    
2019/08/13  10:54:00  BASE  2.21088  133  3.83964  131  -6.0  100   -6.0  0     0     1000.8   NA       0.0000   9999     1080  0     0    
2019/08/13  10:55:00  BASE  2.04036  136  3.83964  131  -5.9  100   -5.9  0     0     1000.8   NA       0.0000   9999     1080  0     0    
2019/08/13  10:56:00  BASE  1.7346   143  3.83964  131  -5.9  100   -5.9  0     0     1000.8   NA       0.0000   9999     980   0     0    
2019/08/13  10:57:00  BASE  1.07604  134  3.83964  131  -5.9  100   -5.9  0     0     1000.8   NA       0.0000   9999     820   0     0    
2019/08/13  10:58:00  BASE  0.34692  99   3.78084  133  -5.9  100   -5.9  0     0     1000.8   NA       0.0000   9999     520   1800  0    
2019/08/13  10:59:00  BASE  0.07644  54   3.44568  138  -5.8  100   -5.8  0     0     1000.9   NA       0.0000   9999     360   1770  0    
2019/08/13  11:00:00  BASE  0.24108  29   3.1164   134  -5.7  100   -5.7  0     0     1000.9   NA       0.0000   9999     620   0     0    
2019/08/13  11:01:00  BASE  0.63504  23   3.1164   134  -5.7  100   -5.7  0     0     1000.9   NA       0.0000   9999     590   0     0    
2019/08/13  11:02:00  BASE  0.92316  32   2.78124  132  -5.6  100   -5.6  0     0     1000.9   NA       0.0000   9999     460   0     0    
2019/08/13  11:03:00  BASE  0.63504  43   2.75184  132  -5.5  100   -5.5  0     0     1000.9   NA       0.0000   9999     390   0     0    
2019/08/13  11:04:00  BASE  0.294    51   2.42256  144  -5.5  100   -5.5  0     0     1000.8   NA       0.0000   9999     330   0     0    
2019/08/13  11:05:00  BASE  0.3822   55   1.87572  127  -5.5  100   -5.5  0     0     1000.8   NA       0.0000   -SN      9999  330   0    
2019/08/13  11:06:00  BASE  0.27048  47   1.51116  128  -5.5  100   -5.5  0     0     1000.8   NA       0.0000   -SN      9999  330   0    
2019/08/13  11:07:00  BASE  0.07644  32   1.1466   27   -5.5  100   -5.5  0     0     1000.8   NA       0.0000   -SN      9999  360   0    
2019/08/13  11:08:00  BASE  0.17052  16   1.1466   27   -5.5  100   -5.5  0     0     1000.8   NA       0.0000   -SN      9999  360   0    
2019/08/13  11:09:00  BASE  0.36456  13   1.1466   27   -5.5  100   -5.5  0     0     1000.8   NA       0.0000   -SN      9999  390   0    
2019/08/13  11:10:00  BASE  0.63504  18   1.1466   27   -5.5  100   -5.5  0     0     1000.8   NA       0.0000   -SN      9999  390   0    
2019/08/13  11:11:00  BASE  0.58212  8    1.029    50   -5.5  100   -5.5  0     0     1000.8   NA       0.0000   -SN      9999  390   0    
2019/08/13  11:12:00  BASE  0.54096  358  1.029    50   -5.5  100   -5.5  0     0     1000.8   NA       0.0000   -SN      9999  390   0    
2019/08/13  11:13:00  BASE  0.64092  360  1.029    50   -5.5  100   -5.5  0     0     1000.8   NA       0.0000   -SN      9999  390   0    
2019/08/13  11:14:00  BASE  0.40572  15   1.029    50   -5.5  100   -5.5  0     0     1000.8   NA       0.0000   -SN      9999  390   0    
2019/08/13  11:15:00  BASE  0.09408  23   0.81732  14   -5.5  100   -5.5  0     0     1000.8   NA       0.0000   -SN      9999  430   0    
2019/08/13  11:16:00  BASE  0        20   0.81732  14   -5.5  100   -5.5  0     0     1000.8   NA       0.0000   -SN      9999  430   0    
2019/08/13  11:17:00  BASE  0        35   0.81732  14   -5.5  100   -5.5  0     0     1000.8   NA       0.0000   -SN      9999  430   0    
2019/08/13  11:18:00  BASE  0        38   0.81732  14   -5.5  100   -5.5  0     0     1000.8   NA       0.0000   9999     460   0     0    
2019/08/13  11:19:00  BASE  0        23   0.81732  14   -5.6  100   -5.6  0     0     1000.8   NA       0.0000   9999     460   0     0    
2019/08/13  11:20:00  BASE  0        19   0.78792  354  -5.6  100   -5.6  0     0     1000.8   NA       0.0000   9999     460   0     0    
2019/08/13  11:21:00  BASE  0        19   0.78792  354  -5.6  100   -5.6  0     0     1000.8   NA       0.0000   9999     430   0     0    
2019/08/13  11:22:00  BASE  0.14112  2    0.75852  328  -5.6  100   -5.6  0     0     1000.8   NA       0.0000   9999     390   0     0    
2019/08/13  11:23:00  BASE  0.57624  333  1.029    319  -5.6  100   -5.6  0     0     1000.8   NA       0.0000   9999     360   0     0    
2019/08/13  11:24:00  BASE  0.7644   323  1.029    319  -5.7  100   -5.7  0     0     1000.8   NA       0.0000   9999     330   0     0    
2019/08/13  11:25:00  BASE  0.6174   320  1.029    319  -5.7  100   -5.7  0     0     1000.8   NA       0.0000   9999     330   0     0    
2019/08/13  11:26:00  BASE  0.71148  310  1.1172   303  -5.8  100   -5.8  0     0     1000.8   NA       0.0000   9999     300   0     0    
2019/08/13  11:27:00  BASE  0.72324  305  1.1172   303  -5.8  100   -5.8  0     0     1000.8   NA       0.0000   9999     330   0     0    
2019/08/13  11:28:00  BASE  0.60564  308  1.1172   303  -5.8  100   -5.8  0     0     1000.8   NA       0.0000   9999     330   0     0    
2019/08/13  11:29:01  BASE  0.6762   318  1.1172   303  -5.8  100   -5.8  0     0     1000.8   NA       0.0000   9999     360   0     0    
2019/08/13  11:30:00  BASE  0.56448  321  1.1172   303  -5.8  100   -5.8  0     0     1000.8   NA       0.0000   9999     390   0     0    
2019/08/13  11:31:00  BASE  0.18816  318  1.1172   303  -5.8  100   -5.8  0     0     1000.8   NA       0.0000   9999     390   0     0    
2019/08/13  11:32:00  BASE  0        320  1.1172   303  -5.8  100   -5.8  0     0     1000.8   NA       0.0000   9999     390   0     0    
2019/08/13  11:33:00  BASE  0        316  1.1172   303  -5.8  100   -5.8  0     0     1000.8   NA       0.0000   9999     390   0     0    
2019/08/13  11:34:00  BASE  0        319  1.1172   303  -5.8  100   -5.8  0     0     1000.8   NA       0.0000   9999     390   0     0    
2019/08/13  11:35:00  BASE  0        119  1.1172   303  -5.8  100   -5.8  0     0     1000.7   NA       0.0000   9999     390   0     0    
2019/08/13  11:36:00  BASE  0        110  0.93492  315  -5.8  100   -5.8  0     0     1000.7   NA       0.0000   9999     390   0     0    
2019/08/13  11:37:00  BASE  0        110  0.93492  315  -5.8  100   -5.8  0     0     1000.7   NA       0.0000   9999     390   0     0    
2019/08/13  11:38:00  BASE  0        110  0.93492  315  -5.8  100   -5.8  0     0     1000.7   NA       0.0000   9999     390   0     0    
2019/08/13  11:39:00  BASE  0        107  0.69384  318  -5.8  100   -5.8  0     0     1000.6   NA       0.0000   9999     390   0     0    
2019/08/13  11:40:00  BASE  0        104  0        M    -5.8  100   -5.8  0     0     1000.5   NA       0.0000   9999     360   0     0    
2019/08/13  11:41:00  BASE  0        107  0        M    -5.8  100   -5.8  0     0     1000.5   NA       0.0000   9999     360   0     0    
2019/08/13  11:42:00  BASE  0        115  0        M    -5.8  100   -5.8  0     0     1000.5   NA       0.0000   9999     360   0     0    
2019/08/13  11:43:00  BASE  0        131  0        M    -5.8  100   -5.8  0     0     1000.5   NA       0.0000   9999     360   0     0    
2019/08/13  11:44:00  BASE  0        172  0        M    -5.7  100   -5.7  0     0     1000.5   NA       0.0000   9999     360   1350  0    
2019/08/13  11:45:00  BASE  0.14112  192  0.87612  177  -5.7  100   -5.7  0     0     1000.5   NA       0.0000   9999     330   0     0    
2019/08/13  11:46:00  BASE  0.17052  190  0.87612  177  -5.7  100   -5.7  0     0     1000.5   NA       0.0000   9999     330   0     0    
2019/08/13  11:47:00  BASE  0.0294   167  0.87612  177  -5.7  100   -5.7  0     0     1000.5   NA       0.0000   9999     330   0     0    
2019/08/13  11:48:00  BASE  0        135  0.87612  177  -5.7  100   -5.7  0     0     1000.5   NA       0.0000   9999     330   0     0    
2019/08/13  11:49:00  BASE  0        131  0.87612  177  -5.7  100   -5.7  0     0     1000.5   NA       0.0000   9999     330   0     0    
2019/08/13  11:50:00  BASE  0        130  0.87612  177  -5.7  100   -5.7  0     0     1000.5   NA       0.0000   9000     330   0     0    
2019/08/13  11:51:00  BASE  0        130  0.87612  177  -5.7  100   -5.7  1     0     1000.5   NA       0.0000   8000     330   0     0    
2019/08/13  11:52:00  BASE  0        122  0.87612  177  -5.7  100   -5.7  1     0     1000.5   NA       0.0000   7000     330   0     0    
2019/08/13  11:53:00  BASE  0        107  0.87612  177  -5.7  100   -5.7  1     0     1000.5   NA       0.0000   6000     330   0     0    
2019/08/13  11:54:00  BASE  0        104  0.87612  177  -5.7  100   -5.7  1     0     1000.5   NA       0.0000   BR       6000  330   0    
2019/08/13  11:55:00  BASE  0        102  0.63504  196  -5.7  100   -5.7  1     0     1000.5   NA       0.0000   BR       6000  330   0    
2019/08/13  11:56:00  BASE  0.34692  112  0.9996   127  -5.7  100   -5.7  1     0     1000.6   NA       0.0000   BR       5000  360   0    
2019/08/13  11:57:00  BASE  0.71148  128  1.21128  121  -5.7  100   -5.7  1     0     1000.6   NA       0.0000   BR       6000  330   0    
2019/08/13  11:58:00  BASE  0.59976  125  1.21128  121  -5.7  100   -5.7  1     0     1000.6   NA       0.0000   BR       6000  360   0    
2019/08/13  11:59:00  BASE  0.294    102  1.21128  121  -5.7  100   -5.7  1     0     1000.6   NA       0.0000   BR       6000  330   0    
2019/08/13  12:00:00  BASE  0.22344  79   1.21128  121  -5.6  100   -5.6  1     0     1000.6   NA       0.0000   BR       6000  330   0    
2019/08/13  12:01:00  BASE  0.16464  71   1.21128  121  -5.6  100   -5.6  1     0     1000.6   NA       0.0000   BR       6000  330   0    
2019/08/13  12:02:00  BASE  0.0882   72   1.21128  121  -5.6  100   -5.6  1     0     1000.6   NA       0.0000   BR       6000  330   0    
2019/08/13  12:03:00  BASE  0.2646   75   1.21128  121  -5.7  100   -5.7  1     0     1000.5   NA       0.0000   BR       6000  330   0    
2019/08/13  12:04:00  BASE  0.32928  61   1.21128  121  -5.7  100   -5.7  1     0     1000.5   NA       0.0000   BR       6000  330   0    
2019/08/13  12:05:00  BASE  0.147    53   1.21128  121  -5.6  100   -5.6  1     0     1000.5   NA       0.0000   BR       5000  300   0    
2019/08/13  12:06:00  BASE  0        50   1.21128  121  -5.6  100   -5.6  1     0     1000.5   NA       0.0000   BR       5000  300   0    
2019/08/13  12:07:00  BASE  0.16464  45   1.1466   132  -5.6  100   -5.6  1     0     1000.5   NA       0.0000   BR       6000  330   0    
2019/08/13  12:08:00  BASE  0.52332  42   1.029    110  -5.6  100   -5.6  1     0     1000.5   NA       0.0000   BR       6000  330   0    
2019/08/13  12:09:00  BASE  0.7644   39   1.029    110  -5.6  100   -5.6  1     0     1000.5   NA       0.0000   BR       7000  330   0    
2019/08/13  12:10:00  BASE  0.9114   37   1.18188  36   -5.6  100   -5.6  1     0     1000.5   NA       0.0000   BR       8000  300   0    
2019/08/13  12:11:00  BASE  0.98784  33   1.18188  36   -5.6  100   -5.6  1     0     1000.5   NA       0.0000   BR       9000  330   0    
2019/08/13  12:12:00  BASE  0.91728  32   1.18188  36   -5.6  100   -5.6  1     0     1000.5   NA       0.0000   BR       9000  330   0    
2019/08/13  12:13:00  BASE  0.90552  36   1.18188  36   -5.6  100   -5.6  2     0     1000.4   NA       0.0000   BR       9999  330   0    
2019/08/13  12:14:00  BASE  0.9996   38   1.27008  32   -5.6  100   -5.6  2     0     1000.4   NA       0.0000   BR       9000  300   0    
2019/08/13  12:15:00  BASE  1.1172   29   1.35828  18   -5.6  100   -5.6  2     0     1000.4   NA       0.0000   BR       7000  300   0    
2019/08/13  12:16:00  BASE  1.22304  24   1.48176  24   -5.6  100   -5.6  2     0     1000.4   NA       0.0000   BR       7000  330   0    
2019/08/13  12:17:00  BASE  1.27008  25   1.48176  24   -5.6  100   -5.6  2     0     1000.3   NA       0.0000   BR       8000  330   0    
2019/08/13  12:18:00  BASE  1.14072  25   1.48176  24   -5.6  100   -5.6  2     0     1000.3   NA       0.0000   BR       7000  260   0    
2019/08/13  12:19:00  BASE  0.51156  4    1.48176  24   -5.6  100   -5.6  2     0     1000.3   NA       0.0000   BR       6000  260   0    
2019/08/13  12:20:00  BASE  0.53508  5    1.48176  24   -5.6  100   -5.6  2     0     1000.3   NA       0.0000   BR       6000  300   0    
2019/08/13  12:21:00  BASE  1.01136  28   1.48176  24   -5.6  100   -5.6  3     0     1000.3   NA       0.0000   BR       7000  300   0    
2019/08/13  12:22:00  BASE  0.8526   24   1.48176  24   -5.6  100   -5.6  3     0     1000.3   NA       0.0000   BR       6000  300   0    
2019/08/13  12:23:00  BASE  0.40572  16   1.48176  24   -5.6  100   -5.6  3     0     1000.3   NA       0.0000   BR       6000  300   0    
2019/08/13  12:24:00  BASE  0.0294   10   1.48176  24   -5.6  100   -5.6  3     0     1000.3   NA       0.0000   BR       5000  300   0    
2019/08/13  12:25:00  BASE  0        360  1.48176  24   -5.6  100   -5.6  4     0     1000.3   NA       0.0000   BR       5000  300   0    
2019/08/13  12:26:00  BASE  0        353  1.29948  26   -5.6  100   -5.6  4     0     1000.3   NA       0.0000   BR       5000  330   0    
2019/08/13  12:27:00  BASE  0        340  1.29948  26   -5.6  100   -5.6  4     0     1000.3   NA       0.0000   BR       5000  300   0    
2019/08/13  12:28:00  BASE  0        327  1.29948  26   -5.6  100   -5.6  4     0     1000.3   NA       0.0000   BR       6000  300   0    
2019/08/13  12:29:00  BASE  0        325  1.29948  26   -5.6  100   -5.6  4     0     1000.3   NA       0.0000   BR       7000  300   0    
2019/08/13  12:30:00  BASE  0        312  1.24068  32   -5.6  100   -5.6  5     0     1000.3   NA       0.0000   BR       7000  300   0    
2019/08/13  12:31:00  BASE  0        286  0.81732  18   -5.6  100   -5.6  5     0     1000.2   NA       0.0000   BR       6000  300   0    
2019/08/13  12:32:00  BASE  0        247  0.69384  24   -5.6  100   -5.6  5     0     1000.2   NA       0.0000   BR       6000  260   0    
2019/08/13  12:33:00  BASE  0        232  0        M    -5.6  100   -5.6  5     0     1000.2   NA       0.0000   BR       6000  260   0    
2019/08/13  12:34:00  BASE  0        241  0        M    -5.6  100   -5.6  5     0     1000.2   NA       0.0000   BR       7000  260   0    
2019/08/13  12:35:00  BASE  0        231  0        M    -5.6  100   -5.6  5     0     1000.2   NA       0.0000   BR       7000  260   0    
2019/08/13  12:36:00  BASE  0        229  0        M    -5.6  100   -5.6  5     0     1000.2   NA       0.0000   BR       6000  260   0    
2019/08/13  12:37:00  BASE  0        234  0        M    -5.6  100   -5.6  6     0     1000.2   NA       0.0000   BR       5000  260   0    
2019/08/13  12:38:00  BASE  0        234  0        M    -5.6  100   -5.6  6     0     1000.1   NA       0.0000   BR       4900  260   0    
2019/08/13  12:39:00  BASE  0        231  0        M    -5.5  100   -5.5  6     0     1000.1   NA       0.0000   BR       4200  230   0    
2019/08/13  12:40:00  BASE  0        236  0        M    -5.5  100   -5.5  6     0     1000.1   NA       0.0000   BR       4100  260   0    
2019/08/13  12:41:00  BASE  0        244  0        M    -5.5  100   -5.5  6     0     1000.1   NA       0.0000   BR       4500  260   0    
2019/08/13  12:42:00  BASE  0        226  0        M    -5.5  100   -5.5  7     0     1000.2   NA       0.0000   BR       4700  260   0    
2019/08/13  12:43:00  BASE  0        204  0        M    -5.5  100   -5.5  7     0     1000.2   NA       0.0000   BR       3700  230   0    
2019/08/13  12:44:00  BASE  0        201  0        M    -5.4  100   -5.4  7     0     1000.2   NA       0.0000   BR       3200  230   0    
2019/08/13  12:45:00  BASE  0        198  0        M    -5.4  100   -5.4  7     0     1000.2   NA       0.0000   BR       3000  230   0    
2019/08/13  12:46:00  BASE  0        196  0        M    -5.3  100   -5.3  7     0     1000.2   NA       0.0000   BR       2800  230   0    
2019/08/13  12:47:00  BASE  0        182  0        M    -5.3  100   -5.3  8     0     1000.2   NA       0.0000   BR       2700  230   0    
2019/08/13  12:48:00  BASE  0        154  0        M    -5.3  100   -5.3  8     0     1000.2   NA       0.0000   BR       2600  260   0    
2019/08/13  12:49:00  BASE  0        130  0        M    -5.2  100   -5.2  9     0     1000.2   NA       0.0000   BR       2700  260   0    
2019/08/13  12:50:00  BASE  0.08232  122  0.72324  133  -5.2  100   -5.2  9     0     1000.2   NA       0.0000   BR       2900  300   0    
2019/08/13  12:51:00  BASE  0.18816  129  0.72324  133  -5.2  100   -5.2  9     0     1000.2   NA       0.0000   BR       3100  300   0    
2019/08/13  12:52:00  BASE  0.32928  133  0.75852  133  -5.2  100   -5.2  9     0     1000.2   NA       0.0000   BR       3200  300   0    
2019/08/13  12:53:00  BASE  0.28224  133  0.75852  133  -5.2  100   -5.2  10    0     1000.2   NA       0.0000   BR       3200  300   0    
2019/08/13  12:54:00  BASE  0.3528   135  0.81732  145  -5.2  100   -5.2  10    0     1000.2   NA       0.0000   BR       3200  330   0    
2019/08/13  12:55:00  BASE  0.6762   132  0.81732  131  -5.2  100   -5.2  10    0     1000.3   NA       0.0000   BR       3200  330   0    
2019/08/13  12:56:00  BASE  0.77616  124  0.84672  119  -5.2  100   -5.2  10    0     1000.3   NA       0.0000   BR       3200  330   0    
2019/08/13  12:57:00  BASE  0.75264  121  0.84672  119  -5.1  100   -5.1  11    0     1000.2   NA       0.0000   BR       3200  300   0    
2019/08/13  12:58:00  BASE  0.9114   111  1.27008  99   -5.1  100   -5.1  11    0     1000.2   NA       0.0000   BR       3600  300   0    
2019/08/13  12:59:00  BASE  1.09368  94   1.27008  99   -5.1  100   -5.1  11    0     1000.2   NA       0.0000   BR       3900  300   0    
2019/08/13  13:00:00  BASE  1.0584   74   1.27008  99   -5.1  100   -5.1  12    0     1000.2   NA       0.0000   BR       4200  300   0    
2019/08/13  13:01:00  BASE  0.97608  60   1.27008  99   -5.1  100   -5.1  12    0     1000.2   NA       0.0000   BR       4600  300   0    
2019/08/13  13:02:00  BASE  0.9114   54   1.27008  99   -5.2  100   -5.2  12    0     1000.2   NA       0.0000   BR       4500  300   0    
2019/08/13  13:03:00  BASE  0.8526   52   1.27008  99   -5.2  100   -5.2  12    0     1000.2   NA       0.0000   BR       4600  330   0    
2019/08/13  13:04:00  BASE  0.588    56   1.27008  99   -5.2  100   -5.2  12    0     1000.1   NA       0.0000   BR       4900  300   0    
2019/08/13  13:05:00  BASE  0.3528   57   1.27008  99   -5.2  100   -5.2  13    0     1000.1   NA       0.0000   BR       5000  300   0    
2019/08/13  13:06:00  BASE  0.57624  49   1.27008  99   -5.2  100   -5.2  13    0     1000.1   NA       0.0000   BR       6000  300   0    
2019/08/13  13:07:00  BASE  0.57036  44   1.27008  99   -5.2  100   -5.2  14    0     1000.1   NA       0.0000   BR       6000  260   0    
2019/08/13  13:08:00  BASE  0.15288  26   1.21128  66   -5.2  100   -5.2  15    0     1000.1   NA       0.0000   BR       6000  330   0    
2019/08/13  13:09:00  BASE  0        10   1.21128  66   -5.2  100   -5.2  15    0     1000.1   NA       0.0000   BR       5000  360   0    
2019/08/13  13:10:00  BASE  0        23   1.1466   66   -5.2  100   -5.2  16    0     1000.1   NA       0.0000   BR       5000  360   0    
2019/08/13  13:11:00  BASE  0        22   1.1466   66   -5.2  100   -5.2  16    0     1000.1   NA       0.0000   BR       6000  360   0    
2019/08/13  13:12:00  BASE  0        8    1.1466   66   -5.2  100   -5.2  16    0     1000.2   NA       0.0000   BR       6000  330   0    
2019/08/13  13:13:00  BASE  0        349  1.1466   66   -5.1  100   -5.1  16    0     1000.2   NA       0.0000   BR       6000  360   0    
2019/08/13  13:14:00  BASE  0        329  1.1466   66   -5.1  100   -5.1  16    0     1000.2   NA       0.0000   BR       7000  360   0    
2019/08/13  13:15:00  BASE  0        329  1.1466   66   -5.1  100   -5.1  16    0     1000.2   NA       0.0000   BR       7000  360   0    
2019/08/13  13:16:00  BASE  0.0294   19   0.81732  21   -5.1  100   -5.1  17    0     1000.2   NA       0.0000   BR       7000  330   0    
2019/08/13  13:17:00  BASE  0.39396  69   0.90552  87   -5.1  100   -5.1  17    0     1000.2   NA       0.0000   BR       6000  330   0    
2019/08/13  13:18:00  BASE  0.78204  86   0.9702   85   -5.1  100   -5.1  17    0     1000.2   NA       0.0000   BR       6000  330   0    
2019/08/13  13:19:00  BASE  0.7644   101  0.9702   85   -5.0  100   -5.0  17    0     1000.2   NA       0.0000   BR       5000  330   0    
2019/08/13  13:20:00  BASE  0.44688  109  0.9702   85   -5.0  100   -5.0  18    0     1000.2   NA       0.0000   BR       5000  330   0    
2019/08/13  13:21:00  BASE  0.18228  89   0.9702   85   -4.9  100   -4.9  18    0     1000.2   NA       0.0000   BR       5000  330   0    
2019/08/13  13:22:00  BASE  0.10584  60   0.9702   85   -4.9  100   -4.9  18    0     1000.2   NA       0.0000   BR       5000  330   0    
2019/08/13  13:23:00  BASE  0.02352  57   0.9702   85   -4.9  100   -4.9  18    0     1000.2   NA       0.0000   BR       6000  330   0    
2019/08/13  13:24:00  BASE  0        61   0.9702   85   -4.9  100   -4.9  19    0     1000.2   NA       0.0000   BR       6000  330   0    
2019/08/13  13:25:00  BASE  0.10584  53   0.9702   85   -4.9  100   -4.9  19    0     1000.1   NA       0.0000   BR       5000  330   0    
2019/08/13  13:26:00  BASE  0.45276  46   0.9702   85   -4.9  100   -4.9  19    0     1000.1   NA       0.0000   BR       6000  330   0    
2019/08/13  13:27:00  BASE  0.79968  50   1.0584   55   -4.8  100   -4.8  20    0     1000.1   NA       0.0000   BR       6000  330   0    
2019/08/13  13:28:00  BASE  0.92316  57   1.0584   59   -4.8  100   -4.8  20    0     1000.1   NA       0.0000   BR       5000  330   1350 
2019/08/13  13:29:00  BASE  0.94668  59   1.0878   61   -4.8  100   -4.8  21    0     1000.1   NA       0.0000   BR       5000  330   0    
2019/08/13  13:30:00  BASE  1.029    59   1.24068  59   -4.8  100   -4.8  21    0     1000.0   NA       0.0000   BR       5000  330   0    
2019/08/13  13:31:00  BASE  1.176    59   1.42296  62   -4.8  100   -4.8  22    0     999.9    NA       0.0000   BR       5000  330   0    
2019/08/13  13:32:00  BASE  1.28772  62   1.42296  71   -4.7  100   -4.7  22    0     999.9    NA       0.0000   BR       5000  330   0    
2019/08/13  13:33:00  BASE  1.35828  65   1.51116  65   -4.7  100   -4.7  23    0     999.8    NA       0.0000   BR       4500  330   0    
2019/08/13  13:34:00  BASE  1.37004  65   1.51116  65   -4.7  100   -4.7  23    0     999.8    NA       0.0000   BR       4500  330   0    
2019/08/13  13:35:00  BASE  1.31712  64   1.51116  65   -4.7  100   -4.7  24    0     999.8    NA       0.0000   BR       4500  330   0    
2019/08/13  13:36:00  BASE  1.14072  56   1.51116  65   -4.7  100   -4.7  24    0     999.8    NA       0.0000   BR       4900  330   0    
2019/08/13  13:37:00  BASE  0.98784  54   1.51116  65   -4.6  100   -4.6  25    0     999.8    NA       0.0000   BR       5000  360   0    
2019/08/13  13:38:00  BASE  0.98196  59   1.51116  65   -4.6  100   -4.6  25    0     999.8    NA       0.0000   BR       5000  360   0    
2019/08/13  13:39:00  BASE  0.9114   56   1.51116  65   -4.6  100   -4.6  26    0     999.8    NA       0.0000   BR       5000  360   0    
2019/08/13  13:40:00  BASE  0.82908  51   1.51116  65   -4.6  100   -4.6  27    0     999.7    NA       0.0000   BR       6000  360   0    
2019/08/13  13:41:00  BASE  0.87024  52   1.51116  65   -4.6  100   -4.6  27    0     999.7    NA       0.0000   BR       6000  390   0    
2019/08/13  13:42:00  BASE  0.96432  56   1.51116  65   -4.6  100   -4.6  27    0     999.7    NA       0.0000   BR       8000  390   0    
2019/08/13  13:43:00  BASE  1.04076  54   1.42296  70   -4.6  100   -4.6  27    0     999.7    NA       0.0000   BR       9000  360   0    
2019/08/13  13:44:00  BASE  1.05252  50   1.35828  50   -4.7  100   -4.7  27    0     999.7    NA       0.0000   BR       8000  360   0    
2019/08/13  13:45:00  BASE  1.04664  50   1.24068  66   -4.7  100   -4.7  27    0     999.7    NA       0.0000   BR       8000  360   0    
2019/08/13  13:46:00  BASE  1.01724  48   1.24068  66   -4.7  100   -4.7  28    0     999.7    NA       0.0000   BR       9000  390   0    
2019/08/13  13:47:00  BASE  0.96432  43   1.1466   50   -4.7  100   -4.7  28    0     999.7    NA       0.0000   BR       9999  390   0    
2019/08/13  13:48:00  BASE  0.89376  40   1.1466   50   -4.7  100   -4.7  28    0     999.7    NA       0.0000   BR       9999  430   1640 
2019/08/13  13:49:01  BASE  0.81144  40   1.1466   50   -4.6  100   -4.6  28    0     999.7    NA       0.0000   BR       9999  460   0    
2019/08/13  13:50:00  BASE  0.735    44   1.1466   50   -4.6  100   -4.6  29    0     999.7    NA       0.0000   BR       9999  430   1670 
2019/08/13  13:51:00  BASE  0.65856  50   1.1466   50   -4.6  100   -4.6  30    0     999.7    NA       0.0000   BR       9999  430   0    
2019/08/13  13:52:00  BASE  0.55272  55   1.1466   50   -4.6  100   -4.6  30    0     999.7    NA       0.0000   9999     750   0     0    
2019/08/13  13:53:00  BASE  0.2352   56   1.0878   50   -4.5  100   -4.5  30    0     999.7    NA       0.0000   9999     0     0     0    
2019/08/13  13:54:00  BASE  0        52   1.0878   50   -4.5  100   -4.5  30    0     999.7    NA       0.0000   9999     620   0     0    
2019/08/13  13:55:00  BASE  0        48   1.0584   50   -4.4  100   -4.4  29    0     999.7    NA       0.0000   9999     460   0     0    
2019/08/13  13:56:00  BASE  0        48   1.029    42   -4.4  100   -4.4  28    0     999.7    NA       0.0000   9999     460   0     0    
2019/08/13  13:57:00  BASE  0        48   0.90552  38   -4.3  100   -4.3  27    0     999.7    NA       0.0000   9999     430   0     0    
2019/08/13  13:58:00  BASE  0        48   0.84672  39   -4.3  100   -4.3  27    0     999.7    NA       0.0000   9999     430   0     0    
2019/08/13  13:59:00  BASE  0        48   0.75852  43   -4.3  100   -4.3  27    0     999.8    NA       0.0000   9999     430   0     0    
2019/08/13  14:00:00  BASE  0        48   0.66444  56   -4.3  100   -4.3  27    0     999.8    NA       0.0000   9999     430   0     0    
2019/08/13  14:01:00  BASE  0        48   0.63504  56   -4.2  100   -4.2  27    0     999.8    NA       0.0000   9999     1020  0     0    
2019/08/13  14:02:00  BASE  0        51   0        M    -4.2  100   -4.2  27    0     999.7    NA       0.0000   9999     750   0     0    
2019/08/13  14:03:00  BASE  0        101  0        M    -4.2  100   -4.2  27    0     999.8    NA       0.0000   9999     720   0     0    
2019/08/13  14:04:00  BASE  0.21756  162  0.69384  172  -4.2  100   -4.2  27    0     999.8    NA       0.0000   9999     660   0     0    
2019/08/13  14:05:00  BASE  0.41748  176  0.81732  178  -4.2  100   -4.2  27    0     999.8    NA       0.0000   9999     820   0     0    
2019/08/13  14:06:00  BASE  0.8232   175  1.42296  164  -4.3  100   -4.3  27    0     999.8    NA       0.0000   9999     820   0     0    
2019/08/13  14:07:00  BASE  1.2054   167  1.42296  164  -4.3  100   -4.3  27    0     999.8    NA       0.0000   9999     820   0     0    
2019/08/13  14:08:00  BASE  1.2642   169  1.42296  175  -4.4  100   -4.4  28    0     999.8    NA       0.0000   9999     980   0     0    
2019/08/13  14:09:00  BASE  1.31712  176  1.42296  175  -4.4  100   -4.4  28    0     999.7    NA       0.0000   9999     820   0     0    
2019/08/13  14:10:00  BASE  1.13484  176  1.42296  175  -4.4  100   -4.5  28    0     999.7    NA       0.0000   9999     890   0     0    
2019/08/13  14:11:00  BASE  1.04076  175  1.42296  175  -4.5  100   -4.5  29    0     999.7    NA       0.0000   9999     890   0     0    
2019/08/13  14:12:00  BASE  1.03488  181  1.42296  175  -4.5  100   -4.5  28    0     999.7    NA       0.0000   9999     890   0     0    
2019/08/13  14:13:00  BASE  0.93492  182  1.42296  175  -4.5  100   -4.5  28    0     999.7    NA       0.0000   9999     790   0     0    
2019/08/13  14:14:00  BASE  0.69384  182  1.42296  175  -4.5  100   -4.5  28    0     999.7    NA       0.0000   9999     820   0     0    
2019/08/13  14:15:00  BASE  0.24696  187  1.42296  175  -4.6  100   -4.6  28    0     999.7    NA       0.0000   9999     820   0     0    
2019/08/13  14:16:00  BASE  0.02352  190  1.42296  175  -4.6  100   -4.6  29    0     999.7    NA       0.0000   9999     820   0     0    
2019/08/13  14:17:00  BASE  0.02352  193  1.42296  175  -4.6  100   -4.6  29    0     999.7    NA       0.0000   9999     750   0     0    
2019/08/13  14:18:00  BASE  0.05292  199  1.39356  179  -4.6  100   -4.6  30    0     999.7    NA       0.0000   9999     690   0     0    
2019/08/13  14:19:00  BASE  0.05292  203  1.24068  173  -4.6  100   -4.6  31    0     999.7    NA       0.0000   9999     690   0     0    
2019/08/13  14:20:00  BASE  0        211  1.21128  175  -4.6  100   -4.6  31    0     999.7    NA       0.0000   9999     720   0     0    
2019/08/13  14:21:00  BASE  0        222  1.0878   180  -4.6  100   -4.6  31    0     999.7    NA       0.0000   9999     850   0     0    
2019/08/13  14:22:00  BASE  0        232  1.029    180  -4.6  100   -4.6  32    0     999.7    NA       0.0000   9999     230   950   0    
2019/08/13  14:23:00  BASE  0.0294   244  0.72324  184  -4.6  100   -4.6  33    0     999.7    NA       0.0000   9999     230   890   0    
2019/08/13  14:24:00  BASE  0.0294   254  0.63504  260  -4.6  100   -4.6  33    0     999.7    NA       0.0000   9999     230   750   0    
2019/08/13  14:25:00  BASE  0.14112  257  0.78792  259  -4.6  100   -4.6  33    0     999.7    NA       0.0000   9999     260   0     0    
2019/08/13  14:26:00  BASE  0.19992  261  0.78792  259  -4.6  100   -4.6  33    0     999.7    NA       0.0000   9999     560   0     0    
2019/08/13  14:27:00  BASE  0.3234   269  0.78792  259  -4.6  100   -4.6  33    0     999.7    NA       0.0000   9999     490   0     0    
2019/08/13  14:28:00  BASE  0.63504  272  1.0584   262  -4.6  100   -4.6  34    0     999.7    NA       0.0000   9999     460   0     0    
2019/08/13  14:29:00  BASE  0.62916  274  1.0584   262  -4.5  100   -4.5  36    0     999.6    NA       0.0000   9999     430   0     0    
2019/08/13  14:30:00  BASE  0.65856  283  1.1466   290  -4.5  100   -4.5  37    0     999.6    NA       0.0000   9999     430   0     0    
2019/08/13  14:31:00  BASE  0.94668  292  1.24068  297  -4.4  100   -4.4  37    0     999.6    NA       0.0000   9999     390   0     0    
2019/08/13  14:32:00  BASE  1.12308  290  1.39356  295  -4.4  100   -4.4  37    0     999.5    NA       0.0000   9999     430   0     0    
2019/08/13  14:33:00  BASE  0.92316  278  1.39356  295  -4.4  100   -4.4  36    0     999.5    NA       0.0000   9999     360   0     0    
2019/08/13  14:34:00  BASE  0.69384  281  1.39356  295  -4.4  100   -4.4  34    0     999.6    NA       0.0000   9999     360   0     0    
2019/08/13  14:35:00  BASE  0.7938   292  1.39356  295  -4.4  100   -4.4  34    0     999.6    NA       0.0000   9999     260   0     0    
2019/08/13  14:36:00  BASE  0.77616  297  1.39356  295  -4.4  100   -4.4  34    0     999.5    NA       0.0000   9999     330   0     0    
2019/08/13  14:37:00  BASE  0.6174   300  1.39356  295  -4.4  100   -4.4  35    0     999.5    NA       0.0000   9999     330   0     0    
2019/08/13  14:38:00  BASE  0.31752  300  1.39356  295  -4.3  100   -4.3  36    0     999.5    NA       0.0000   7000     330   0     0    
2019/08/13  14:39:00  BASE  0.02352  309  1.39356  295  -4.3  100   -4.3  38    0     999.5    NA       0.0000   6000     330   0     0    
2019/08/13  14:40:00  BASE  0        316  1.39356  295  -4.3  100   -4.3  41    0     999.6    NA       0.0000   7000     330   0     0    
2019/08/13  14:41:00  BASE  0.05292  313  1.39356  295  -4.3  100   -4.3  43    0     999.5    NA       0.0000   BR       5000  330   0    
2019/08/13  14:42:00  BASE  0.05292  308  1.0878   281  -4.3  100   -4.3  45    0     999.5    NA       0.0000   BR       5000  330   0    
2019/08/13  14:43:00  BASE  0        305  1.0878   281  -4.3  100   -4.3  48    0     999.6    NA       0.0000   BR       5000  330   0    
2019/08/13  14:44:00  BASE  0        305  1.0878   281  -4.3  100   -4.3  51    0     999.6    NA       0.0000   BR       4600  300   0    
2019/08/13  14:45:00  BASE  0        305  0.9702   301  -4.3  100   -4.3  54    0     999.6    NA       0.0000   BR       4200  300   0    
2019/08/13  14:46:00  BASE  0        253  0.75852  297  -4.3  100   -4.3  57    0     999.7    NA       0.0000   BR       3800  260   0    
2019/08/13  14:47:00  BASE  0.4116   179  1.0878   157  -4.3  100   -4.3  58    0     999.7    NA       0.0000   BR       3400  300   0    
2019/08/13  14:48:00  BASE  1.02312  161  1.29948  152  -4.2  100   -4.2  58    0     999.7    NA       0.0000   BR       3700  360   0    
2019/08/13  14:49:00  BASE  1.15248  152  1.39356  147  -4.2  100   -4.2  56    0     999.7    NA       0.0000   BR       4500  360   0    
2019/08/13  14:50:00  BASE  1.07016  150  1.39356  147  -4.2  100   -4.2  54    0     999.7    NA       0.0000   BR       4900  200   1250 
2019/08/13  14:51:00  BASE  1.28184  150  1.75224  149  -4.2  100   -4.2  52    0     999.7    NA       0.0000   BR       5000  200   1250 
2019/08/13  14:52:00  BASE  1.59348  150  1.75224  145  -4.3  100   -4.3  50    0     999.7    NA       0.0000   BR       4800  200   0    
2019/08/13  14:53:00  BASE  1.5876   158  1.75224  167  -4.3  100   -4.3  50    0     999.7    NA       0.0000   BR       4100  200   0    
2019/08/13  14:54:00  BASE  1.41708  165  1.75224  167  -4.3  100   -4.3  50    0     999.7    NA       0.0000   BR       4300  200   1280 
2019/08/13  14:55:00  BASE  1.40532  161  1.75224  167  -4.3  100   -4.3  50    0     999.7    NA       0.0000   BR       4600  200   1250 
2019/08/13  14:56:00  BASE  1.57584  160  1.87572  158  -4.3  100   -4.3  51    0     999.7    NA       0.0000   BR       4900  160   1380 
2019/08/13  14:57:00  BASE  1.75812  157  1.96392  153  -4.3  100   -4.3  50    0     999.7    NA       0.0000   BR       5000  0     0    
2019/08/13  14:58:00  BASE  1.76988  151  1.96392  153  -4.3  100   -4.3  50    0     999.7    NA       0.0000   BR       5000  0     0    
2019/08/13  14:59:00  BASE  1.62876  147  1.96392  153  -4.3  100   -4.3  49    0     999.7    NA       0.0000   BR       5000  0     0    
2019/08/13  15:00:00  BASE  1.44648  144  1.96392  153  -4.3  100   -4.3  48    0     999.7    NA       0.0000   BR       4900  260   750  
2019/08/13  15:01:00  BASE  1.01724  142  1.96392  153  -4.3  100   -4.3  48    0     999.7    NA       0.0000   BR       5000  300   920  
2019/08/13  15:02:00  BASE  0.39984  128  1.96392  153  -4.3  100   -4.3  48    0     999.7    NA       0.0000   BR       6000  230   920  
2019/08/13  15:03:00  BASE  0.05292  99   1.96392  153  -4.3  100   -4.3  48    0     999.7    NA       0.0000   BR       7000  260   820  
2019/08/13  15:04:00  BASE  0        67   1.96392  153  -4.3  100   -4.3  48    0     999.7    NA       0.0000   BR       9000  300   750  
2019/08/13  15:05:00  BASE  0        32   1.96392  153  -4.2  100   -4.2  47    0     999.7    NA       0.0000   BR       9999  330   0    
2019/08/13  15:06:00  BASE  0        19   1.96392  153  -4.2  100   -4.2  47    0     999.6    NA       0.0000   BR       9999  390   0    
2019/08/13  15:07:00  BASE  0.08232  30   1.75224  147  -4.2  100   -4.2  47    0     999.6    NA       0.0000   BR       9999  660   0    
2019/08/13  15:08:00  BASE  0.2352   40   1.57584  143  -4.1  100   -4.1  49    0     999.6    NA       0.0000   BR       9999  520   0    
2019/08/13  15:09:00  BASE  0.7644   38   1.51116  149  -4.1  100   -4.1  51    0     999.6    NA       0.0000   BR       9999  560   0    
2019/08/13  15:10:00  BASE  1.21716  34   1.32888  37   -4.2  100   -4.2  54    0     999.5    NA       0.0000   BR       9999  520   0    
2019/08/13  15:11:00  BASE  1.18188  30   1.32888  37   -4.2  100   -4.2  55    0     999.5    NA       0.0000   9999     490   0     0    
2019/08/13  15:12:00  BASE  1.1466   28   1.32888  25   -4.2  100   -4.2  56    0     999.5    NA       0.0000   9999     520   0     0    
2019/08/13  15:13:00  BASE  1.0878   23   1.32888  25   -4.2  100   -4.2  57    0     999.5    NA       0.0000   9999     520   0     0    
2019/08/13  15:14:00  BASE  0.85848  17   1.32888  25   -4.2  100   -4.2  56    0     999.5    NA       0.0000   9999     560   0     0    
2019/08/13  15:15:00  BASE  0.588    21   1.32888  25   -4.2  100   -4.2  56    0     999.4    NA       0.0000   9999     620   0     0    
2019/08/13  15:16:00  BASE  0.5586   25   1.32888  25   -4.2  100   -4.2  55    0     999.4    NA       0.0000   9999     690   0     0    
2019/08/13  15:17:00  BASE  0.64092  30   1.32888  25   -4.2  100   -4.2  55    0     999.4    NA       0.0000   9999     660   1970  0    
2019/08/13  15:18:00  BASE  0.441    40   1.32888  25   -4.2  100   -4.2  55    0     999.4    NA       0.0000   9999     790   1900  0    
2019/08/13  15:19:00  BASE  0.09996  41   1.32888  25   -4.3  100   -4.3  56    0     999.4    NA       0.0000   9999     920   1900  0    
2019/08/13  15:20:00  BASE  0        26   1.32888  25   -4.3  100   -4.3  57    0     999.4    NA       0.0000   9999     950   1900  0    
2019/08/13  15:21:00  BASE  0        8    1.32888  25   -4.3  100   -4.3  56    0     999.4    NA       0.0000   9999     890   1940  0    
2019/08/13  15:22:00  BASE  0        5    1.0878   23   -4.3  100   -4.3  56    0     999.4    NA       0.0000   9999     790   1870  0    
2019/08/13  15:23:00  BASE  0        1    1.0584   24   -4.3  100   -4.3  54    0     999.5    NA       0.0000   9999     750   1900  0    
2019/08/13  15:24:00  BASE  0        353  0.72324  26   -4.3  100   -4.3  51    0     999.4    NA       0.0000   9999     950   2000  0    
2019/08/13  15:25:00  BASE  0        350  0.72324  26   -4.3  100   -4.3  48    0     999.4    NA       0.0000   9999     950   0     0    
2019/08/13  15:26:00  BASE  0        341  0.72324  26   -4.3  100   -4.3  46    0     999.4    NA       0.0000   9999     1020  0     0    
2019/08/13  15:27:00  BASE  0        339  0.63504  43   -4.3  100   -4.3  45    0     999.4    NA       0.0000   9999     980   0     0    
2019/08/13  15:28:00  BASE  0        346  0        M    -4.3  100   -4.3  46    0     999.4    NA       0.0000   9999     890   0     0    
2019/08/13  15:29:00  BASE  0        347  0        M    -4.3  100   -4.3  47    0     999.4    NA       0.0000   9999     690   0     0    
2019/08/13  15:30:00  BASE  0        343  0        M    -4.3  100   -4.3  49    0     999.4    NA       0.0000   9999     690   0     0    
2019/08/13  15:31:00  BASE  0.294    333  0.72324  325  -4.3  100   -4.3  50    0     999.4    NA       0.0000   9999     750   0     0    
2019/08/13  15:32:00  BASE  0.6468   328  0.81732  332  -4.2  100   -4.2  51    0     999.4    NA       0.0000   9999     660   0     0    
2019/08/13  15:33:00  BASE  0.75264  333  0.84672  339  -4.2  100   -4.2  50    0     999.4    NA       0.0000   9999     590   0     0    
2019/08/13  15:34:00  BASE  0.83496  340  0.9702   348  -4.2  100   -4.2  49    0     999.4    NA       0.0000   9999     560   0     0    
2019/08/13  15:35:00  BASE  0.882    348  0.9702   354  -4.2  100   -4.2  48    0     999.4    NA       0.0000   9999     750   0     0    
2019/08/13  15:36:00  BASE  0.89376  350  0.9702   346  -4.2  100   -4.2  47    0     999.4    NA       0.0000   9999     490   0     0    
2019/08/13  15:37:00  BASE  0.87612  344  0.9702   346  -4.2  100   -4.2  46    0     999.4    NA       0.0000   9999     490   0     0    
2019/08/13  15:38:00  BASE  0.9702   341  1.21128  343  -4.2  100   -4.2  45    0     999.3    NA       0.0000   9999     590   0     0    
2019/08/13  15:39:00  BASE  1.19952  343  1.42296  343  -4.2  100   -4.2  45    0     999.2    NA       0.0000   9999     660   0     0    
2019/08/13  15:40:00  BASE  1.40532  345  1.54056  348  -4.2  100   -4.2  45    0     999.2    NA       0.0000   9999     560   0     0    
2019/08/13  15:41:00  BASE  1.48176  348  1.54056  348  -4.2  100   -4.2  45    0     999.1    NA       0.0000   9999     560   0     0    
2019/08/13  15:42:00  BASE  1.49352  349  1.54056  350  -4.2  100   -4.2  45    0     999.1    NA       0.0000   9999     520   0     0    
2019/08/13  15:43:00  BASE  1.47     351  1.54056  346  -4.2  100   -4.2  46    0     999.1    NA       0.0000   9999     590   0     0    
2019/08/13  15:44:00  BASE  1.37592  352  1.60524  346  -4.2  100   -4.2  48    0     999.1    NA       0.0000   9999     660   0     0    
2019/08/13  15:45:00  BASE  1.40532  354  1.81692  338  -4.2  100   -4.2  50    0     999.1    NA       0.0000   9999     720   0     0    
2019/08/13  15:46:00  BASE  1.25832  356  1.81692  338  -4.2  100   -4.2  53    0     999.1    NA       0.0000   9999     920   1610  0    
2019/08/13  15:47:00  BASE  1.0878   351  1.81692  338  -4.2  100   -4.2  57    0     999.1    NA       0.0000   9999     790   0     0    
2019/08/13  15:48:00  BASE  1.00548  347  1.81692  338  -4.1  100   -4.1  58    0     999.1    NA       0.0000   9999     980   0     0    
2019/08/13  15:49:00  BASE  0.78204  341  1.81692  338  -4.1  100   -4.1  59    0     999.1    NA       0.0000   9999     890   1710  0    
2019/08/13  15:50:00  BASE  0.47628  334  1.81692  338  -4.1  100   -4.1  58    0     999.1    NA       0.0000   9999     920   0     0    
2019/08/13  15:51:00  BASE  0.3822   331  1.81692  338  -4.1  100   -4.1  59    0     999.1    NA       0.0000   9999     850   0     0    
2019/08/13  15:52:00  BASE  0.55272  326  1.81692  338  -4.1  100   -4.1  59    0     999.1    NA       0.0000   9999     750   0     0    
2019/08/13  15:53:00  BASE  0.71148  316  1.81692  338  -4.1  100   -4.1  60    0     999.1    NA       0.0000   9999     620   0     0    
2019/08/13  15:54:00  BASE  0.69972  304  1.81692  338  -4.0  100   -4.0  61    0     999.2    NA       0.0000   9999     520   0     0    
2019/08/13  15:55:00  BASE  0.62916  299  1.29948  344  -4.0  100   -4.0  60    0     999.2    NA       0.0000   9999     560   0     0    
2019/08/13  15:56:00  BASE  0.7644   301  1.29948  344  -3.9  100   -3.9  60    0     999.1    NA       0.0000   9999     490   0     0    
2019/08/13  15:57:00  BASE  0.88788  306  1.27008  314  -3.9  100   -3.9  61    0     999.1    NA       0.0000   9999     460   0     0    
2019/08/13  15:58:00  BASE  0.8526   295  1.87572  301  -3.8  100   -3.8  64    0     999.2    NA       0.0000   9999     390   0     0    
2019/08/13  15:59:00  BASE  1.24656  293  2.1462   299  -3.8  100   -3.8  67    0     999.2    NA       0.0000   9999     390   0     0    
2019/08/13  16:00:00  BASE  1.77576  300  2.1462   299  -3.8  100   -3.8  69    0     999.2    NA       0.0000   9999     390   0     0    
2019/08/13  16:01:00  BASE  1.85808  295  2.24028  305  -3.7  100   -3.7  70    0     999.2    NA       0.0000   9999     390   0     0    
2019/08/13  16:02:00  BASE  1.72284  285  2.24028  305  -3.7  100   -3.7  69    0     999.2    NA       0.0000   9999     390   0     0    
2019/08/13  16:03:00  BASE  1.6464   282  2.24028  305  -3.7  100   -3.7  67    0     999.2    NA       0.0000   9999     430   0     0    
2019/08/13  16:04:00  BASE  1.54644  285  2.24028  305  -3.7  100   -3.7  64    0     999.2    NA       0.0000   9999     430   0     0    
2019/08/13  16:05:00  BASE  1.64052  288  2.24028  305  -3.6  100   -3.6  63    0     999.2    NA       0.0000   9999     390   0     0    
2019/08/13  16:06:00  BASE  1.98156  291  2.29908  289  -3.6  100   -3.6  62    0     999.2    NA       0.0000   9999     390   0     0    
2019/08/13  16:07:00  BASE  2.04036  287  2.42256  289  -3.6  100   -3.6  62    0     999.2    NA       0.0000   9999     390   0     0    
2019/08/13  16:08:00  BASE  2.03448  282  2.42256  289  -3.6  100   -3.6  64    0     999.2    NA       0.0000   9999     390   0     0    
2019/08/13  16:09:00  BASE  1.92864  278  2.42256  289  -3.6  100   -3.6  66    0     999.1    NA       0.0000   9999     390   0     0    
2019/08/13  16:10:00  BASE  1.8522   277  2.42256  289  -3.6  100   -3.6  66    0     999.1    NA       0.0000   9999     430   0     0    
2019/08/13  16:11:00  BASE  2.04036  286  2.81064  298  -3.7  100   -3.7  66    0     999.1    NA       0.0000   9999     460   0     0    
2019/08/13  16:12:00  BASE  2.35788  296  2.81064  294  -3.7  100   -3.7  65    0     999.1    NA       0.0000   9999     360   0     0    
2019/08/13  16:13:00  BASE  2.6754   303  3.2046   299  -3.6  100   -3.6  67    0     999.1    NA       0.0000   9999     300   0     0    
2019/08/13  16:14:00  BASE  2.72244  307  3.2046   299  -3.6  100   -3.6  69    0     999.1    NA       0.0000   9999     360   0     0    
2019/08/13  16:15:00  BASE  2.74596  307  3.2046   299  -3.6  100   -3.6  72    0     999.1    NA       0.0000   9999     300   0     0    
2019/08/13  16:16:00  BASE  2.83416  308  3.2046   300  -3.5  100   -3.5  77    0     999.1    NA       0.0000   9999     330   0     0    
2019/08/13  16:17:00  BASE  2.86944  311  3.48096  316  -3.5  100   -3.5  80    0     999.1    NA       0.0000   9999     300   23300 0    
2019/08/13  16:18:00  BASE  3.08112  317  3.62796  326  -3.5  100   -3.5  82    0     999.1    NA       0.0000   9999     300   0     0    
2019/08/13  16:19:00  BASE  3.50448  318  4.08072  317  -3.5  100   -3.5  82    0     999.1    NA       0.0000   9999     330   0     0    
2019/08/13  16:20:00  BASE  3.79848  318  4.1454   309  -3.5  100   -3.5  81    0     999.1    NA       0.0000   9999     300   0     0    
2019/08/13  16:21:00  BASE  3.71616  320  4.1454   309  -3.4  100   -3.4  79    0     999.1    NA       0.0000   9999     590   0     0    
2019/08/13  16:22:00  BASE  3.69852  320  4.1454   309  -3.4  100   -3.4  77    0     999.1    NA       0.0000   9999     490   0     0    
2019/08/13  16:23:00  BASE  3.89844  319  4.2042   322  -3.3  100   -3.3  75    0     999.1    NA       0.0000   9999     660   0     0    
2019/08/13  16:24:00  BASE  3.7926   320  4.2042   322  -3.3  100   -3.3  74    0     999.1    NA       0.0000   9999     750   0     0    
2019/08/13  16:25:00  BASE  3.66912  317  4.2042   314  -3.3  100   -3.3  73    0     999.1    NA       0.0000   9999     750   0     0    
2019/08/13  16:26:00  BASE  4.01016  315  4.56876  321  -3.3  100   -3.3  72    0     999.1    NA       0.0000   9999     890   0     0    
2019/08/13  16:27:00  BASE  4.25124  317  4.59816  314  -3.3  100   -3.3  70    0     999.1    NA       0.0000   9999     850   0     0    
2019/08/13  16:28:00  BASE  4.60404  318  5.38608  328  -3.2  100   -3.2  69    0     999.0    NA       0.0000   9999     720   0     0    
2019/08/13  16:29:00  BASE  4.88628  318  5.38608  328  -3.2  100   -3.2  68    0     999.0    NA       0.0000   9999     920   0     0    
2019/08/13  16:30:00  BASE  4.87452  320  5.38608  328  -3.2  100   -3.2  68    0     999.0    NA       0.0000   9999     690   0     0    
2019/08/13  16:31:00  BASE  4.998    322  5.38608  328  -3.1  100   -3.1  68    0     999.0    NA       0.0000   9999     820   0     0    
2019/08/13  16:32:00  BASE  5.15088  323  5.44488  323  -3.1  100   -3.1  68    0     999.0    NA       0.0000   9999     1180  0     0    
2019/08/13  16:33:00  BASE  5.39784  324  5.99172  322  -3.1  100   -3.1  68    0     999.0    NA       0.0000   9999     920   0     0    
2019/08/13  16:34:00  BASE  5.63304  325  6.2034   326  -3.0  100   -3.0  68    0     998.9    NA       0.0000   9999     1020  0     0    
2019/08/13  16:35:00  BASE  5.89764  323  6.53268  323  -3.0  100   -3.0  69    0     998.9    NA       0.0000   9999     920   0     0    
2019/08/13  16:36:00  BASE  6.10344  324  6.59148  324  -3.0  100   -3.0  69    0     998.9    NA       0.0000   9999     1080  0     0    
2019/08/13  16:37:00  BASE  6.19752  325  6.65616  319  -3.0  100   -3.0  70    0     998.9    NA       0.0000   9999     1080  0     0    
2019/08/13  16:38:00  BASE  6.18576  324  6.65616  319  -3.0  100   -3.0  70    0     998.9    NA       0.0000   9999     980   0     0    
2019/08/13  16:39:00  BASE  5.83884  324  6.65616  319  -3.0  100   -3.0  71    0     998.9    NA       0.0000   9999     890   0     0    
2019/08/13  16:40:00  BASE  5.6448   324  6.65616  319  -3.0  100   -3.0  70    0     999.0    NA       0.0000   9999     980   0     0    
2019/08/13  16:41:00  BASE  5.41548  324  6.65616  319  -3.0  100   -3.0  71    0     999.0    NA       0.0000   9999     850   0     0    
2019/08/13  16:42:00  BASE  5.33316  325  6.65616  319  -3.0  100   -3.0  71    0     999.0    NA       0.0000   9999     1120  0     0    
2019/08/13  16:43:00  BASE  5.586    326  6.65616  319  -3.0  100   -3.0  72    0     998.9    NA       0.0000   9999     1050  1840  0    
2019/08/13  16:44:00  BASE  5.60952  328  6.65616  319  -3.0  100   -3.0  72    0     998.9    NA       0.0000   9999     1310  1840  0    
2019/08/13  16:45:00  BASE  5.72712  328  6.77376  325  -3.0  100   -3.0  71    0     998.9    NA       0.0000   9999     1410  0     0    
2019/08/13  16:46:00  BASE  5.96232  328  6.77376  325  -3.0  100   -3.0  70    0     998.9    NA       0.0000   9999     1740  0     0    
2019/08/13  16:47:00  BASE  5.90352  326  6.77376  325  -3.0  100   -3.0  69    0     998.9    NA       0.0000   9999     1800  2560  0    
2019/08/13  16:48:00  BASE  5.72712  323  6.77376  325  -3.0  100   -3.0  70    0     999.0    NA       0.0000   9999     1840  2530  0    
2019/08/13  16:49:00  BASE  5.68008  324  6.77376  325  -3.0  100   -3.0  70    0     999.0    NA       0.0000   9999     1870  2490  0    
2019/08/13  16:50:00  BASE  5.62716  326  6.77376  325  -3.0  100   -3.0  70    0     999.0    NA       0.0000   9999     1250  1970  2530 
2019/08/13  16:51:00  BASE  5.95056  326  6.77376  325  -3.0  100   -3.0  70    0     999.0    NA       0.0000   9999     2000  21260 22700
2019/08/13  16:52:00  BASE  6.03876  326  6.77376  325  -3.0  100   -3.0  68    0     999.1    NA       0.0000   9999     2070  0     0    
2019/08/13  16:53:00  BASE  5.65656  325  6.77376  325  -3.0  100   -3.0  66    0     999.1    NA       0.0000   9999     2170  0     0    
2019/08/13  16:54:00  BASE  5.3802   326  6.77376  325  -3.0  100   -3.0  63    0     999.1    NA       0.0000   9999     2200  0     0    
2019/08/13  16:55:00  BASE  5.42136  327  6.71496  328  -3.0  100   -3.0  61    0     999.1    NA       0.0000   9999     2230  0     0    
2019/08/13  16:56:00  BASE  5.34492  325  6.71496  328  -3.0  100   -3.0  60    0     999.1    NA       0.0000   9999     2230  0     0    
2019/08/13  16:57:00  BASE  5.06856  323  6.71496  328  -3.0  100   -3.0  58    0     999.1    NA       0.0000   9999     2170  0     0    
2019/08/13  16:58:00  BASE  5.13324  320  6.71496  328  -3.0  100   -3.0  56    0     999.1    NA       0.0000   9999     390   0     0    
2019/08/13  16:59:00  BASE  5.24496  321  6.71496  328  -3.0  100   -3.0  54    0     999.1    NA       0.0000   UP       8000  360   0    
2019/08/13  17:00:00  BASE  5.30964  321  6.71496  328  -3.0  100   -3.0  52    0     999.1    NA       0.0000   UP       9000  330   0    
2019/08/13  17:01:00  BASE  5.56248  323  6.2622   323  -3.0  100   -3.0  51    0     999.0    NA       0.0000   UP       7000  330   0    
2019/08/13  17:02:00  BASE  5.58012  326  6.02112  328  -3.0  100   -3.0  51    0     999.0    NA       0.0000   UP       7000  330   0    
2019/08/13  17:03:00  BASE  5.15088  325  6.02112  328  -3.0  100   -3.0  50    0     999.1    NA       0.0000   UP       BR    8000  330  
2019/08/13  17:04:00  BASE  5.2626   323  6.2328   320  -3.0  100   -3.0  49    0     999.1    NA       0.0000   UP       BR    6000  330  
2019/08/13  17:05:00  BASE  5.99172  322  6.92664  324  -3.0  100   -3.0  48    0     999.0    NA       0.0000   UP       BR    5000  300  
2019/08/13  17:06:00  BASE  5.93292  324  6.92664  324  -3.0  100   -3.0  47    0     999.0    NA       0.0000   UP       BR    6000  300  
2019/08/13  17:07:00  BASE  5.54484  326  6.92664  324  -3.0  100   -3.0  46    0     999.0    NA       0.0000   UP       BR    7000  300  
2019/08/13  17:08:00  BASE  5.6742   325  6.92664  324  -3.0  100   -3.0  46    0     999.0    NA       0.0000   UP       BR    6000  260  
2019/08/13  17:09:00  BASE  5.75064  324  6.92664  324  -3.1  100   -3.1  47    0     998.9    NA       0.0000   UP       BR    6000  230  
2019/08/13  17:10:00  BASE  6.15636  322  6.92664  324  -3.1  100   -3.1  48    0     998.9    NA       0.0000   UP       BR    4800  0    
2019/08/13  17:11:00  BASE  6.33276  321  6.92664  324  -3.1  100   -3.1  49    0     998.9    NA       0.0000   UP       BR    3500  0    
2019/08/13  17:12:00  BASE  6.06816  323  6.92664  324  -3.1  100   -3.1  51    0     998.8    NA       0.0000   UP       BR    4200  230  
2019/08/13  17:13:00  BASE  6.03288  320  6.92664  324  -3.1  100   -3.1  51    0     998.8    NA       0.0000   UP       BR    5000  0    
2019/08/13  17:14:00  BASE  6.67968  317  7.92624  317  -3.1  100   -3.1  52    0     998.8    NA       0.0000   UP       BR    4500  0    
2019/08/13  17:15:00  BASE  6.89136  319  7.92624  317  -3.1  100   -3.1  53    0     998.8    NA       0.0000   UP       BR    3600  260  
2019/08/13  17:16:00  BASE  6.2328   318  7.92624  317  -3.1  100   -3.1  54    0     998.8    NA       0.0000   UP       BR    3600  230  
2019/08/13  17:17:00  BASE  6.09168  317  7.92624  317  -3.1  100   -3.1  54    0     998.8    NA       0.0000   UP       BR    3600  230  
2019/08/13  17:18:00  BASE  6.17988  316  7.92624  317  -3.0  100   -3.0  53    0     998.9    NA       0.0000   UP       BR    3600  0    
2019/08/13  17:19:00  BASE  5.9976   314  7.92624  317  -3.0  100   -3.0  53    0     998.9    NA       0.0000   UP       BR    3200  0    
2019/08/13  17:20:00  BASE  5.733    315  7.92624  317  -3.0  100   -3.0  54    0     998.9    NA       0.0000   UP       BR    2500  0    
2019/08/13  17:21:00  BASE  5.37432  316  7.92624  317  -3.0  100   -3.0  56    0     998.9    NA       0.0000   UP       BR    2400  0    
2019/08/13  17:22:00  BASE  5.63304  315  7.92624  317  -3.0  100   -3.0  58    0     998.8    NA       0.0000   UP       BR    2000  0    
2019/08/13  17:23:00  BASE  6.174    314  7.92624  317  -3.0  100   -3.0  62    0     998.8    NA       0.0000   UP       BR    1600  0    
2019/08/13  17:24:00  BASE  6.39744  314  7.13832  315  -3.0  100   -3.0  64    0     998.7    NA       0.0000   UP       BR    1800  0    
2019/08/13  17:25:00  BASE  6.54444  313  7.13832  315  -3.1  100   -3.1  67    0     998.7    NA       0.0000   UP       BR    1900  0    
2019/08/13  17:26:00  BASE  6.31512  314  7.13832  315  -3.1  100   -3.1  69    0     998.7    NA       0.0000   UP       BR    1800  0    
2019/08/13  17:27:00  BASE  6.19752  313  7.13832  315  -3.1  100   -3.1  70    0     998.7    NA       0.0000   UP       BR    2400  0    
2019/08/13  17:28:00  BASE  6.10344  310  7.13832  315  -3.1  100   -3.1  73    0     998.6    NA       0.0000   UP       BR    2400  0    
2019/08/13  17:29:00  BASE  6.19752  310  7.50288  313  -3.1  100   -3.1  75    0     998.6    NA       0.0000   UP       BR    2400  260  
2019/08/13  17:30:00  BASE  6.34452  313  7.50288  313  -3.1  100   -3.1  77    0     998.6    NA       0.0000   UP       BR    2400  330  
2019/08/13  17:31:00  BASE  6.24456  316  7.50288  313  -3.1  100   -3.1  79    0     998.6    NA       0.0000   UP       BR    2400  360  
2019/08/13  17:32:00  BASE  5.96232  317  7.50288  313  -3.1  100   -3.1  80    0     998.6    NA       0.0000   UP       BR    2400  360  
2019/08/13  17:33:00  BASE  5.80944  316  7.50288  313  -3.1  100   -3.1  79    0     998.6    NA       0.0000   UP       BR    3300  590  
2019/08/13  17:34:00  BASE  5.92704  312  7.50288  313  -3.1  100   -3.1  77    0     998.6    NA       0.0000   UP       BR    9999  720  
2019/08/13  17:35:00  BASE  5.94468  311  7.50288  313  -3.1  100   -3.1  73    0     998.6    NA       0.0000   UP       BR    9999  660  
2019/08/13  17:36:00  BASE  6.00348  313  7.50288  313  -3.1  100   -3.1  70    0     998.6    NA       0.0000   BR       9999  1180  4070 
2019/08/13  17:37:00  BASE  6.20928  316  7.50288  313  -3.1  100   -3.1  66    0     998.5    NA       0.0000   BR       9999  4170  0    
2019/08/13  17:38:00  BASE  6.55032  319  7.50288  313  -3.1  100   -3.1  64    0     998.5    NA       0.0000   BR       9999  390   4100 
2019/08/13  17:39:00  BASE  6.60324  319  7.05012  319  -3.1  100   -3.1  62    0     998.5    NA       0.0000   BR       9999  430   4200 
2019/08/13  17:40:00  BASE  6.45624  319  7.05012  319  -3.1  100   -3.1  61    0     998.5    NA       0.0000   BR       9999  920   1480 
2019/08/13  17:41:00  BASE  6.4386   318  7.05012  319  -3.1  100   -3.1  60    0     998.5    NA       0.0000   BR       9999  390   3940 
2019/08/13  17:42:00  BASE  6.33276  319  7.05012  319  -3.1  100   -3.1  59    0     998.5    NA       0.0000   BR       9999  520   1310 
2019/08/13  17:43:00  BASE  6.23868  320  7.05012  319  -3.1  100   -3.1  58    0     998.5    NA       0.0000   9999     750   1250  0    
2019/08/13  17:44:00  BASE  6.32688  321  7.05012  319  -3.1  100   -3.1  57    0     998.5    NA       0.0000   9999     1250  0     0    
2019/08/13  17:45:00  BASE  6.29748  321  7.05012  319  -3.1  100   -3.1  57    0     998.5    NA       0.0000   9999     1280  0     0    
2019/08/13  17:46:00  BASE  6.30924  322  7.05012  319  -3.1  100   -3.1  56    0     998.5    NA       0.0000   9999     920   0     0    
2019/08/13  17:47:00  BASE  6.33276  322  7.05012  321  -3.1  100   -3.1  56    0     998.5    NA       0.0000   9999     750   0     0    
2019/08/13  17:48:00  BASE  6.4092   323  7.4088   321  -3.1  100   -3.1  55    0     998.5    NA       0.0000   9999     720   0     0    
2019/08/13  17:49:00  BASE  6.56208  323  7.4088   321  -3.1  100   -3.1  54    0     998.5    NA       0.0000   9999     620   0     0    
2019/08/13  17:50:00  BASE  6.5268   323  7.4088   321  -3.1  100   -3.1  53    0     998.5    NA       0.0000   9999     750   0     0    
2019/08/13  17:51:00  BASE  6.174    324  7.4088   321  -3.1  100   -3.1  52    0     998.5    NA       0.0000   9999     660   0     0    
2019/08/13  17:52:00  BASE  6.19752  325  7.4088   321  -3.0  100   -3.0  51    0     998.4    NA       0.0000   9999     750   0     0    
2019/08/13  17:53:00  BASE  6.59148  325  7.4088   321  -3.0  100   -3.0  49    0     998.4    NA       0.0000   9999     660   0     0    
2019/08/13  17:54:00  BASE  6.39156  325  7.4088   321  -3.0  100   -3.0  48    0     998.4    NA       0.0000   9999     790   0     0    
2019/08/13  17:55:00  BASE  6.59148  327  8.379    329  -3.0  100   -3.0  47    0     998.3    NA       0.0000   9999     720   0     0    
2019/08/13  17:56:00  BASE  7.26768  329  8.379    329  -3.0  100   -3.0  46    0     998.3    NA       0.0000   9999     660   0     0    
2019/08/13  17:57:00  BASE  7.35588  329  8.379    329  -3.0  100   -3.0  45    0     998.3    NA       0.0000   9999     660   0     0    
2019/08/13  17:58:00  BASE  7.22064  326  8.379    329  -3.0  100   -3.0  45    0     998.4    NA       0.0000   9999     660   1380  0    
2019/08/13  17:59:00  BASE  7.15008  325  8.379    329  -3.0  100   -3.0  45    0     998.4    NA       0.0000   9999     720   0     0    
2019/08/13  18:00:00  BASE  7.25004  327  8.379    329  -3.0  100   -3.0  45    0     998.4    NA       0.0000   9999     820   0     0    
2019/08/13  18:01:00  BASE  7.8498   329  8.71416  326  -3.0  100   -3.0  45    0     998.4    NA       0.0000   9999     690   0     0    
2019/08/13  18:02:00  BASE  7.91448  328  8.71416  326  -3.0  100   -3.0  43    0     998.4    NA       0.0000   9999     590   0     0    
2019/08/13  18:03:00  BASE  7.48524  328  8.71416  326  -3.0  100   -3.0  42    0     998.4    NA       0.0000   9999     520   0     0    
2019/08/13  18:04:00  BASE  7.03836  328  8.71416  326  -3.0  100   -3.0  42    0     998.5    NA       0.0000   9999     390   0     0    
2019/08/13  18:05:00  BASE  6.8208   328  8.71416  326  -3.0  100   -3.0  41    0     998.4    NA       0.0000   9999     460   0     0    
2019/08/13  18:06:00  BASE  6.8796   330  8.71416  326  -3.0  100   -3.0  41    0     998.4    NA       0.0000   9999     430   0     0    
2019/08/13  18:07:00  BASE  7.0854   331  8.71416  326  -3.0  100   -3.0  41    0     998.4    NA       0.0000   9999     390   0     0    
2019/08/13  18:08:00  BASE  7.36176  331  8.71416  326  -3.0  100   -3.0  40    0     998.4    NA       0.0000   9999     430   0     0    
2019/08/13  18:09:00  BASE  7.15596  331  8.71416  326  -3.0  100   -3.0  39    0     998.4    NA       0.0000   9999     430   0     0    
2019/08/13  18:10:00  BASE  7.27356  330  8.71416  326  -3.0  100   -3.0  38    0     998.4    NA       0.0000   9999     390   0     0    
2019/08/13  18:11:00  BASE  7.47936  329  8.25552  329  -3.0  100   -3.0  37    0     998.4    NA       0.0000   9999     360   0     0    
2019/08/13  18:12:00  BASE  7.22064  329  8.25552  329  -2.9  100   -2.9  36    0     998.4    NA       0.0000   9999     330   0     0    
2019/08/13  18:13:00  BASE  6.74436  331  8.25552  329  -2.9  100   -2.9  35    0     998.4    NA       0.0000   9999     330   0     0    
2019/08/13  18:14:00  BASE  6.32688  331  8.25552  329  -2.9  100   -2.9  34    0     998.4    NA       0.0000   9999     300   0     0    
2019/08/13  18:15:00  BASE  5.97408  328  8.25552  329  -2.9  100   -2.9  34    0     998.5    NA       0.0000   9999     330   0     0    
2019/08/13  18:16:00  BASE  5.66244  330  8.25552  329  -2.9  100   -2.9  33    0     998.5    NA       0.0000   9999     360   0     0    
2019/08/13  18:17:00  BASE  5.25672  334  8.25552  329  -2.9  100   -2.9  32    0     998.5    NA       0.0000   9999     360   22340 0    
2019/08/13  18:18:00  BASE  5.19792  332  8.25552  329  -2.9  100   -2.9  31    0     998.4    NA       0.0000   9999     330   0     0    
2019/08/13  18:19:00  BASE  5.80356  331  8.25552  329  -2.9  100   -2.9  31    0     998.4    NA       0.0000   9999     330   0     0    
2019/08/13  18:20:00  BASE  6.10932  334  7.59108  328  -2.9  100   -2.9  31    0     998.4    NA       0.0000   UP       9999  330   0    
2019/08/13  18:21:00  BASE  6.0858   334  7.59108  328  -2.9  100   -2.9  31    0     998.4    NA       0.0000   UP       9999  260   0    
2019/08/13  18:22:00  BASE  6.12696  332  7.07952  328  -2.9  100   -2.9  31    0     998.3    NA       0.0000   UP       9999  260   0    
2019/08/13  18:23:00  BASE  6.00936  331  6.80316  329  -2.9  100   -2.9  31    0     998.3    NA       0.0000   UP       9999  0     0    
2019/08/13  18:24:00  BASE  5.83884  331  6.80316  329  -2.9  100   -2.9  31    0     998.3    NA       0.0000   UP       9000  200   0    
2019/08/13  18:25:00  BASE  5.75652  335  6.80316  329  -2.9  100   -2.9  30    0     998.3    NA       0.0000   UP       9000  0     0    
2019/08/13  18:26:00  BASE  5.88     338  6.80316  329  -2.9  100   -2.9  30    0     998.3    NA       0.0000   UP       9999  200   0    
2019/08/13  18:27:00  BASE  5.95644  338  6.80316  329  -2.9  100   -2.9  29    0     998.3    NA       0.0000   UP       9999  0     0    
2019/08/13  18:28:00  BASE  5.68008  337  6.80316  329  -2.9  100   -2.9  29    0     998.4    NA       0.0000   UP       9999  200   0    
2019/08/13  18:29:00  BASE  5.76828  335  6.80316  329  -2.9  100   -2.9  29    0     998.4    NA       0.0000   UP       9999  230   0    
2019/08/13  18:30:00  BASE  5.9976   333  6.68556  331  -2.9  100   -2.9  29    0     998.4    NA       0.0000   UP       9999  230   0    
2019/08/13  18:31:00  BASE  5.90352  334  6.68556  331  -2.9  100   -2.9  29    0     998.3    NA       0.0000   UP       9999  230   0    
2019/08/13  18:32:00  BASE  5.86236  336  6.65616  331  -2.9  100   -2.9  29    0     998.3    NA       0.0000   UP       9999  200   0    
2019/08/13  18:33:00  BASE  5.62716  337  6.65616  331  -2.9  100   -2.9  30    0     998.3    NA       0.0000   UP       9999  230   0    
2019/08/13  18:34:00  BASE  5.41548  338  6.65616  331  -2.9  100   -2.9  30    0     998.3    NA       0.0000   UP       9999  230   0    
2019/08/13  18:35:00  BASE  5.60364  337  6.65616  331  -2.9  100   -2.9  31    0     998.3    NA       0.0000   UP       9999  200   0    
2019/08/13  18:36:00  BASE  5.59776  335  6.65616  331  -2.9  100   -2.9  31    0     998.3    NA       0.0000   UP       9999  0     0    
2019/08/13  18:37:00  BASE  5.46252  333  6.65616  331  -2.9  100   -2.9  31    0     998.3    NA       0.0000   UP       9999  0     0    
2019/08/13  18:38:00  BASE  5.1744   333  6.65616  331  -2.9  100   -2.9  31    0     998.3    NA       0.0000   UP       9999  200   0    
2019/08/13  18:39:00  BASE  4.92156  335  6.2622   333  -3.0  100   -3.0  31    0     998.3    NA       0.0000   9999     230   0     0    
2019/08/13  18:40:00  BASE  4.98036  335  6.2328   336  -3.0  100   -3.0  31    0     998.3    NA       0.0000   9999     260   1250  0    
2019/08/13  18:41:00  BASE  4.6746   335  6.07992  339  -3.0  100   -3.0  30    0     998.3    NA       0.0000   9999     260   1250  0    
2019/08/13  18:42:00  BASE  4.59816  334  6.07992  339  -3.0  100   -3.0  30    0     998.3    NA       0.0000   9999     260   1180  0    
2019/08/13  18:43:00  BASE  4.68636  335  6.07992  339  -3.0  100   -3.0  29    0     998.3    NA       0.0000   9999     260   1870  0    
2019/08/13  18:44:00  BASE  4.65108  339  6.07992  339  -3.0  100   -3.0  29    0     998.2    NA       0.0000   9999     300   1480  0    
2019/08/13  18:45:00  BASE  4.86276  342  5.83884  335  -3.0  100   -3.0  28    0     998.2    NA       0.0000   UP       9999  300   1380 
2019/08/13  18:46:00  BASE  4.93332  342  5.83884  335  -2.9  100   -2.9  27    0     998.2    NA       0.0000   9999     330   1310  0    
2019/08/13  18:47:00  BASE  4.85688  344  5.68596  336  -3.0  100   -3.0  27    0     998.2    NA       0.0000   9999     330   2230  0    
2019/08/13  18:48:00  BASE  4.47468  344  5.68596  336  -3.0  100   -3.0  26    0     998.2    NA       0.0000   9999     330   1280  0    
2019/08/13  18:49:00  BASE  4.21596  345  5.62716  331  -3.0  100   -3.0  26    0     998.1    NA       0.0000   9999     300   1050  0    
2019/08/13  18:50:00  BASE  4.263    346  5.35668  345  -3.0  100   -3.0  26    0     998.0    NA       0.0000   9999     260   1180  0    
2019/08/13  18:51:00  BASE  4.23948  345  5.35668  345  -3.0  100   -3.0  26    0     998.0    NA       0.0000   UP       9999  260   1120 
2019/08/13  18:52:00  BASE  4.13364  349  5.35668  345  -3.0  100   -3.0  25    0     998.0    NA       0.0000   UP       9999  300   2070 
2019/08/13  18:53:00  BASE  4.12776  350  5.35668  345  -3.0  100   -3.0  25    0     998.0    NA       0.0000   UP       9999  300   2030 
2019/08/13  18:54:00  BASE  4.2042   350  5.35668  345  -3.0  100   -3.0  25    0     998.0    NA       0.0000   UP       9999  330   2000 
2019/08/13  18:55:00  BASE  4.4394   349  5.10972  346  -3.0  100   -3.0  25    0     998.0    NA       0.0000   UP       9999  330   0    
2019/08/13  18:56:00  BASE  4.84512  346  5.59776  348  -3.0  100   -3.0  26    0     997.9    NA       0.0000   UP       9999  330   2000 
2019/08/13  18:57:00  BASE  4.8216   343  5.59776  348  -3.0  100   -3.0  26    0     997.9    NA       0.0000   UP       9999  330   2000 
2019/08/13  18:58:00  BASE  4.62756  344  5.59776  348  -3.0  100   -3.0  27    0     998.0    NA       0.0000   UP       9999  330   2000 
2019/08/13  18:59:04  BASE  4.42764  345  5.59776  348  -3.0  100   -3.0  27    0     998.0    NA       0.0000   UP       9999  330   2030 
2019/08/13  19:00:00  BASE  4.25124  345  5.59776  348  -3.0  100   -3.0  27    0     998.0    NA       0.0000   UP       9999  330   2070 
2019/08/13  19:01:00  BASE  4.40412  343  5.59776  348  -3.0  100   -3.0  28    0     998.0    NA       0.0000   UP       9999  300   0    
2019/08/13  19:02:00  BASE  4.47468  341  5.59776  348  -3.0  100   -3.0  28    0     998.0    NA       0.0000   9999     300   0     0    
2019/08/13  19:03:00  BASE  4.63344  340  5.59776  348  -3.0  100   -3.0  28    0     998.0    NA       0.0000   9999     300   2030  0    
2019/08/13  19:04:00  BASE  4.73928  339  5.59776  348  -3.0  100   -3.0  28    0     998.0    NA       0.0000   9999     300   2000  0    
2019/08/13  19:05:00  BASE  4.4688   337  5.59776  348  -3.0  100   -3.0  28    0     998.0    NA       0.0000   9999     330   1900  0    
2019/08/13  19:06:00  BASE  4.3512   336  5.35668  339  -3.0  100   -3.0  27    0     998.0    NA       0.0000   9999     360   1900  0    
2019/08/13  19:07:00  BASE  4.47468  335  5.35668  339  -3.0  100   -3.0  27    0     998.0    NA       0.0000   9999     360   1870  0    
2019/08/13  19:08:00  BASE  4.4394   334  5.35668  339  -3.0  100   -3.0  26    0     998.1    NA       0.0000   9999     330   1840  0    
2019/08/13  19:09:00  BASE  4.04544  334  5.35668  339  -3.0  100   -3.0  25    0     998.2    NA       0.0000   9999     360   1840  0    
2019/08/13  19:10:00  BASE  3.82788  334  5.35668  339  -3.0  100   -3.0  25    0     998.2    NA       0.0000   9999     360   0     0    
2019/08/13  19:11:00  BASE  3.969    335  5.35668  339  -3.0  100   -3.0  25    0     998.2    NA       0.0000   9999     330   0     0    
2019/08/13  19:12:00  BASE  4.10424  338  5.35668  339  -2.9  100   -2.9  24    0     998.2    NA       0.0000   9999     360   1480  0    
2019/08/13  19:13:00  BASE  4.15128  337  5.02152  339  -2.9  100   -2.9  24    0     998.2    NA       0.0000   9999     330   1510  0    
2019/08/13  19:14:00  BASE  4.44528  334  5.2038   334  -2.9  100   -2.9  24    0     998.2    NA       0.0000   9999     330   0     0    
2019/08/13  19:15:00  BASE  4.6746   334  5.2038   334  -2.9  100   -2.9  24    0     998.2    NA       0.0000   9999     300   0     0    
2019/08/13  19:16:00  BASE  4.72752  335  5.2626   324  -2.9  100   -2.9  24    0     998.2    NA       0.0000   9999     300   0     0    
2019/08/13  19:17:00  BASE  4.7334   335  5.2626   324  -2.9  100   -2.9  23    0     998.2    NA       0.0000   9999     330   0     0    
2019/08/13  19:18:00  BASE  4.78044  335  5.2626   324  -2.9  100   -2.9  23    0     998.1    NA       0.0000   UP       9999  330   0    
2019/08/13  19:19:01  BASE  4.81572  334  5.2626   324  -2.9  100   -2.9  23    0     998.0    NA       0.0000   UP       9999  300   0    
2019/08/13  19:20:00  BASE  4.68636  334  5.2626   324  -2.9  100   -2.9  23    0     998.0    NA       0.0000   UP       9000  360   0    
2019/08/13  19:21:00  BASE  4.73928  336  5.2626   324  -2.9  100   -2.9  23    0     998.0    NA       0.0000   UP       9999  330   0    
2019/08/13  19:22:00  BASE  4.89804  338  5.44488  344  -2.9  100   -2.9  23    0     997.9    NA       0.0000   UP       9999  260   0    
2019/08/13  19:23:00  BASE  5.22732  338  5.74476  338  -2.9  100   -2.9  23    0     997.9    NA       0.0000   UP       9999  230   0    
2019/08/13  19:24:00  BASE  5.2626   339  5.74476  338  -2.9  100   -2.9  23    0     997.9    NA       0.0000   UP       9999  260   0    
2019/08/13  19:25:00  BASE  5.2038   338  5.74476  338  -2.9  100   -2.9  23    0     997.9    NA       0.0000   UP       9999  230   0    
2019/08/13  19:26:00  BASE  5.24496  337  5.74476  338  -2.9  100   -2.9  22    0     998.0    NA       0.0000   UP       9999  260   0    
2019/08/13  19:27:00  BASE  5.18616  336  5.74476  338  -2.9  100   -2.9  22    0     998.0    NA       0.0000   UP       9999  260   0    
2019/08/13  19:28:00  BASE  5.10384  335  5.74476  338  -2.9  100   -2.9  21    0     998.1    NA       0.0000   UP       9999  300   0    
2019/08/13  19:29:00  BASE  5.15676  334  5.74476  338  -2.9  100   -2.9  20    0     998.2    NA       0.0000   UP       9999  260   2200 
2019/08/13  19:30:00  BASE  5.12148  331  5.74476  338  -2.9  100   -2.9  18    0     998.2    NA       0.0000   UP       9999  260   0    
2019/08/13  19:31:00  BASE  5.13912  330  5.74476  338  -2.9  100   -2.9  17    0     998.3    NA       0.0000   UP       9999  260   1740 
2019/08/13  19:32:00  BASE  5.2626   329  5.74476  338  -2.9  100   -2.9  16    0     998.3    NA       0.0000   UP       9999  260   2030 
2019/08/13  19:33:00  BASE  4.99212  328  5.68596  337  -2.9  100   -2.9  15    0     998.3    NA       0.0000   UP       9999  260   0    
2019/08/13  19:34:00  BASE  5.05092  327  5.83884  326  -2.9  100   -2.9  14    0     998.3    NA       0.0000   UP       9999  300   0    
2019/08/13  19:35:00  BASE  5.31552  329  5.83884  326  -2.9  100   -2.9  13    0     998.2    NA       0.0000   UP       9999  260   0    
2019/08/13  19:36:00  BASE  5.38608  331  5.83884  326  -2.9  100   -2.9  13    0     998.2    NA       0.0000   UP       9999  260   0    
2019/08/13  19:37:00  BASE  5.30964  330  5.83884  326  -2.9  100   -2.9  13    0     998.2    NA       0.0000   UP       9999  260   0    
2019/08/13  19:38:00  BASE  5.0862   329  5.83884  326  -2.9  100   -2.9  13    0     998.3    NA       0.0000   UP       9999  260   0    
2019/08/13  19:39:00  BASE  5.06268  327  5.83884  326  -2.9  100   -2.9  13    0     998.3    NA       0.0000   UP       9999  230   0    
2019/08/13  19:40:00  BASE  5.05092  327  5.83884  326  -2.9  100   -2.9  12    0     998.3    NA       0.0000   9999     230   0     0    
2019/08/13  19:41:00  BASE  5.02152  329  5.83884  326  -2.9  100   -2.9  12    0     998.3    NA       0.0000   9999     230   0     0    
2019/08/13  19:42:00  BASE  4.89804  331  5.83884  326  -2.9  100   -2.9  12    0     998.3    NA       0.0000   9999     230   0     0    
2019/08/13  19:43:00  BASE  4.72752  332  5.83884  326  -2.9  100   -2.9  11    0     998.3    NA       0.0000   9999     260   1480  0    
2019/08/13  19:44:00  BASE  4.77456  334  5.74476  333  -2.9  100   -2.9  11    0     998.3    NA       0.0000   9999     260   0     0    
2019/08/13  19:45:00  BASE  4.91568  335  5.68596  331  -2.9  100   -2.9  11    0     998.2    NA       0.0000   9999     260   0     0    
2019/08/13  19:46:00  BASE  4.95684  334  5.65656  332  -2.9  100   -2.9  10    0     998.3    NA       0.0000   9999     260   0     0    
2019/08/13  19:47:00  BASE  4.7922   334  5.59776  328  -2.9  100   -2.9  10    0     998.3    NA       0.0000   9999     260   0     0    
2019/08/13  19:48:00  BASE  4.47468  335  5.59776  328  -2.9  100   -2.9  9     0     998.3    NA       0.0000   9999     260   0     0    
2019/08/13  19:49:00  BASE  4.37472  334  5.59776  328  -2.9  100   -2.9  9     0     998.2    NA       0.0000   9999     260   0     0    
2019/08/13  19:50:00  BASE  4.41588  334  5.59776  328  -2.9  100   -2.9  9     0     998.2    NA       0.0000   9999     260   0     0    
2019/08/13  19:51:00  BASE  4.63344  335  5.80944  335  -2.9  100   -2.9  9     0     998.2    NA       0.0000   9999     260   0     0    
2019/08/13  19:52:00  BASE  5.145    335  5.99172  330  -2.9  100   -2.9  10    0     998.1    NA       0.0000   9999     260   0     0    
2019/08/13  19:53:00  BASE  5.45076  336  6.02112  336  -2.9  100   -2.9  10    0     998.0    NA       0.0000   9999     230   0     0    
2019/08/13  19:54:00  BASE  5.4978   335  6.02112  336  -2.9  100   -2.9  10    0     998.0    NA       0.0000   9999     260   0     0    
2019/08/13  19:55:00  BASE  5.28612  335  6.02112  336  -2.8  100   -2.8  10    0     998.1    NA       0.0000   9999     260   0     0    
2019/08/13  19:56:00  BASE  4.9392   337  6.02112  336  -2.8  100   -2.8  9     0     998.1    NA       0.0000   9999     260   0     0    
2019/08/13  19:57:00  BASE  4.83924  336  6.02112  336  -2.8  100   -2.8  9     0     998.1    NA       0.0000   9999     260   0     0    
2019/08/13  19:58:00  BASE  5.16264  337  6.02112  336  -2.8  100   -2.8  9     0     998.1    NA       0.0000   UP       9999  230   0    
2019/08/13  19:59:00  BASE  5.27436  338  6.02112  336  -2.8  100   -2.8  9     0     998.2    NA       0.0000   9999     230   0     0    
2019/08/13  20:00:00  BASE  5.00976  339  6.02112  336  -2.8  100   -2.8  8     0     998.2    NA       0.0000   9999     260   0     0    
2019/08/13  20:01:00  BASE  4.84512  340  6.02112  336  -2.8  100   -2.8  8     0     998.3    NA       0.0000   9999     230   0     0    
2019/08/13  20:02:00  BASE  4.81572  339  6.02112  336  -2.8  100   -2.8  8     0     998.3    NA       0.0000   9999     230   0     0    
2019/08/13  20:03:00  BASE  4.92156  337  6.02112  336  -2.8  100   -2.8  7     0     998.2    NA       0.0000   9999     230   0     0    
2019/08/13  20:04:00  BASE  5.05092  338  5.74476  336  -2.8  100   -2.8  7     0     998.2    NA       0.0000   9999     230   0     0    
2019/08/13  20:05:00  BASE  5.19792  338  5.74476  336  -2.8  100   -2.8  7     0     998.2    NA       0.0000   9999     230   0     0    
2019/08/13  20:06:00  BASE  5.04504  338  5.74476  336  -2.8  100   -2.8  7     0     998.2    NA       0.0000   9999     200   0     0    
2019/08/13  20:07:00  BASE  5.03328  337  5.74476  336  -2.8  100   -2.8  7     0     998.2    NA       0.0000   9999     230   0     0    
2019/08/13  20:08:00  BASE  5.25084  337  5.56836  342  -2.8  100   -2.8  7     0     998.2    NA       0.0000   9999     230   0     0    
2019/08/13  20:09:00  BASE  5.19792  336  5.56836  342  -2.8  100   -2.8  7     0     998.2    NA       0.0000   9999     230   0     0    
2019/08/13  20:10:00  BASE  5.18616  336  5.56836  342  -2.8  100   -2.8  6     0     998.2    NA       0.0000   9999     230   0     0    
2019/08/13  20:11:00  BASE  5.30964  336  5.78004  331  -2.8  100   -2.8  6     0     998.1    NA       0.0000   9999     200   0     0    
2019/08/13  20:12:00  BASE  5.39196  337  5.78004  331  -2.8  100   -2.8  6     0     998.0    NA       0.0000   9999     200   0     0    
2019/08/13  20:13:00  BASE  5.23908  337  5.78004  331  -2.8  100   -2.8  6     0     998.0    NA       0.0000   9999     200   0     0    
2019/08/13  20:14:00  BASE  5.24496  338  5.78004  331  -2.8  100   -2.8  5     0     998.0    NA       0.0000   9999     200   0     0    
2019/08/13  20:15:00  BASE  5.26848  338  5.78004  331  -2.8  100   -2.8  5     0     998.0    NA       0.0000   9999     200   0     0    
2019/08/13  20:16:00  BASE  5.30964  339  5.99172  338  -2.8  100   -2.8  5     0     997.9    NA       0.0000   9999     230   0     0    
2019/08/13  20:17:00  BASE  5.53308  340  5.99172  338  -2.8  100   -2.8  5     0     997.9    NA       0.0000   9999     230   0     0    
2019/08/13  20:18:00  BASE  5.83884  341  6.80316  346  -2.8  100   -2.8  5     0     997.9    NA       0.0000   9999     230   0     0    
2019/08/13  20:19:00  BASE  6.13872  340  6.80316  346  -2.8  100   -2.8  5     0     997.9    NA       0.0000   9999     230   0     0    
2019/08/13  20:20:00  BASE  6.0858   339  6.80316  346  -2.8  100   -2.8  5     0     998.0    NA       0.0000   9999     230   0     0    
2019/08/13  20:21:00  BASE  5.6154   338  6.80316  346  -2.8  100   -2.8  4     0     998.0    NA       0.0000   9999     230   0     0    
2019/08/13  20:22:00  BASE  5.26848  338  6.80316  346  -2.7  100   -2.7  4     0     998.2    NA       0.0000   9999     200   0     0    
2019/08/13  20:23:00  BASE  5.53896  338  6.80316  346  -2.7  100   -2.7  4     0     998.2    NA       0.0000   9999     0     0     0    
2019/08/13  20:24:00  BASE  5.71536  337  6.80316  346  -2.7  100   -2.7  4     0     998.2    NA       0.0000   9999     0     0     0    
2019/08/13  20:25:00  BASE  5.63892  336  6.80316  346  -2.7  100   -2.7  4     0     998.2    NA       0.0000   9999     200   0     0    
2019/08/13  20:26:00  BASE  5.53308  335  6.80316  346  -2.7  100   -2.7  4     0     998.2    NA       0.0000   9999     200   0     0    
2019/08/13  20:27:00  BASE  5.34492  338  6.80316  346  -2.7  100   -2.7  4     0     998.2    NA       0.0000   9999     0     0     0    
2019/08/13  20:28:00  BASE  5.4684   339  6.47388  339  -2.7  100   -2.7  4     0     998.2    NA       0.0000   9999     0     0     0    
2019/08/13  20:29:00  BASE  5.56248  339  6.3798   337  -2.7  100   -2.7  4     0     998.2    NA       0.0000   9999     0     0     0    
2019/08/13  20:30:00  BASE  5.52132  339  6.321    337  -2.6  100   -2.6  4     0     998.2    NA       0.0000   9999     0     0     0    
2019/08/13  20:31:00  BASE  5.50956  341  6.321    337  -2.6  100   -2.6  4     0     998.2    NA       0.0000   9999     0     0     0    
2019/08/13  20:32:00  BASE  5.439    342  6.321    337  -2.6  100   -2.6  4     0     998.1    NA       0.0000   9999     0     0     0    
2019/08/13  20:33:00  BASE  5.15676  343  6.07992  339  -2.6  100   -2.6  4     0     998.1    NA       0.0000   9999     0     0     0    
2019/08/13  20:34:00  BASE  4.91568  343  5.99172  337  -2.6  100   -2.6  4     0     998.1    NA       0.0000   9999     0     0     0    
2019/08/13  20:35:33  BASE  4.94508  344  5.99172  337  -2.6  100   -2.6  4     0     998.1    NA       0.0000   9999     0     0     0    
2019/08/13  20:36:00  BASE  4.78632  344  5.99172  337  -2.6  100   -2.6  4     0     M        NA       0.0000   9999     0     0     0    
2019/08/13  20:37:00  BASE  4.59228  341  5.95644  339  -2.6  100   -2.6  4     0     998.0    NA       0.0000   9999     0     0     0    
2019/08/13  20:38:00  BASE  4.8216   340  5.92704  344  -2.6  100   -2.6  3     0     998.1    NA       0.0000   9999     0     0     0    
2019/08/13  20:39:00  BASE  4.98624  339  5.92704  344  -2.7  100   -2.7  3     0     998.0    NA       0.0000   9999     0     0     0    
2019/08/13  20:40:00  BASE  5.00976  340  5.68596  343  -2.7  100   -2.7  3     0     998.0    NA       0.0000   9999     0     0     0    
2019/08/13  20:41:00  BASE  5.20968  341  5.74476  342  -2.7  100   -2.7  3     0     998.0    NA       0.0000   9999     0     0     0    
2019/08/13  20:42:00  BASE  5.3214   342  5.74476  342  -2.7  100   -2.7  3     0     997.9    NA       0.0000   9999     0     0     0    
2019/08/13  20:43:00  BASE  5.2626   342  5.74476  342  -2.7  100   -2.7  3     0     997.9    NA       0.0000   9999     0     0     0    
2019/08/13  20:44:00  BASE  5.28612  343  5.74476  342  -2.7  100   -2.7  3     0     997.8    NA       0.0000   9999     0     0     0    
2019/08/13  20:45:00  BASE  5.3214   344  5.86824  343  -2.7  100   -2.7  3     0     997.8    NA       0.0000   9999     0     0     0    
2019/08/13  20:46:00  BASE  5.53896  344  5.99172  341  -2.6  100   -2.6  3     0     997.8    NA       0.0000   9999     0     0     0    
2019/08/13  20:47:00  BASE  5.38608  343  5.99172  341  -2.6  100   -2.6  2     0     997.8    NA       0.0000   9999     0     0     0    
2019/08/13  20:48:00  BASE  5.18616  343  5.99172  341  -2.6  100   -2.6  2     0     997.8    NA       0.0000   9999     0     0     0    
2019/08/13  20:49:00  BASE  5.15088  342  5.99172  341  -2.6  100   -2.6  2     0     997.8    NA       0.0000   9999     0     0     0    
2019/08/13  20:50:00  BASE  5.19792  343  5.99172  341  -2.6  100   -2.6  2     0     997.8    NA       0.0000   9999     0     0     0    
2019/08/13  20:51:00  BASE  5.2626   342  5.99172  341  -2.6  100   -2.6  2     0     997.8    NA       0.0000   9999     0     0     0    
2019/08/13  20:52:00  BASE  5.07444  341  5.99172  341  -2.6  100   -2.6  1     0     997.8    NA       0.0000   9999     0     0     0    
2019/08/13  20:53:00  BASE  5.1744   340  5.99172  341  -2.5  100   -2.5  1     0     997.8    NA       0.0000   9999     0     0     0    
2019/08/13  20:54:00  BASE  5.27436  338  5.99172  341  -2.5  100   -2.5  1     0     997.8    NA       0.0000   9999     0     0     0    
2019/08/13  20:55:00  BASE  5.12736  337  5.99172  341  -2.5  100   -2.5  1     0     997.8    NA       0.0000   9999     0     0     0    
2019/08/13  20:56:00  BASE  5.04504  337  5.83884  348  -2.5  100   -2.5  1     0     997.8    NA       0.0000   9999     0     0     0    
2019/08/13  20:57:00  BASE  4.998    337  5.83884  348  -2.5  100   -2.5  1     0     997.8    NA       0.0000   9999     0     0     0    
2019/08/13  20:58:00  BASE  4.87452  336  5.83884  348  -2.5  100   -2.5  1     0     997.8    NA       0.0000   9999     0     0     0    
2019/08/13  20:59:00  BASE  4.73928  335  5.83884  348  -2.5  100   -2.5  1     0     997.7    NA       0.0000   9999     0     0     0    
2019/08/13  21:00:00  BASE  4.704    332  5.65656  337  -2.5  100   -2.5  1     0     997.7    NA       0.0000   9999     0     0     0    
2019/08/13  21:01:00  BASE  4.54524  330  5.65656  337  -2.4  100   -2.4  1     0     997.8    NA       0.0000   9999     0     0     0    
2019/08/13  21:02:00  BASE  4.50408  330  5.65656  337  -2.4  100   -2.4  1     0     997.8    NA       0.0000   9999     0     0     0    
2019/08/13  21:03:00  BASE  4.53348  329  5.62716  329  -2.4  100   -2.4  1     0     997.7    NA       0.0000   9999     0     0     0    
2019/08/13  21:04:00  BASE  4.51584  329  5.56836  339  -2.4  100   -2.4  1     0     997.7    NA       0.0000   9999     0     0     0    
2019/08/13  21:05:00  BASE  4.54524  328  5.56836  339  -2.4  100   -2.4  0     0     997.7    NA       0.0000   9999     0     0     0    
2019/08/13  21:06:00  BASE  4.263    330  5.56836  339  -2.4  100   -2.4  0     0     997.6    NA       0.0000   9999     0     0     0    
2019/08/13  21:07:00  BASE  4.36884  332  5.44488  328  -2.4  100   -2.4  0     0     997.6    NA       0.0000   9999     0     0     0    
2019/08/13  21:08:00  BASE  4.72752  331  5.44488  328  -2.4  100   -2.4  0     0     997.5    NA       0.0000   9999     0     0     0    
2019/08/13  21:09:00  BASE  4.62168  331  5.44488  328  -2.4  100   -2.4  0     0     997.5    NA       0.0000   9999     0     0     0    
2019/08/13  21:10:00  BASE  4.26888  330  5.1744   331  -2.5  100   -2.5  0     0     997.6    NA       0.0000   9999     0     0     0    
2019/08/13  21:11:00  BASE  4.07484  327  5.1744   331  -2.4  100   -2.4  0     0     997.6    NA       0.0000   9999     0     0     0    
2019/08/13  21:12:00  BASE  4.09248  328  5.10972  330  -2.4  100   -2.4  0     0     997.6    NA       0.0000   9999     0     0     0    
2019/08/13  21:13:00  BASE  4.39236  329  5.10972  330  -2.4  100   -2.4  0     0     997.5    NA       0.0000   9999     0     0     0    
2019/08/13  21:14:01  BASE  4.60404  328  5.10972  330  -2.4  100   -2.4  0     0     997.5    NA       0.0000   9999     0     0     0    
2019/08/13  21:15:00  BASE  4.31004  327  5.10972  330  -2.4  100   -2.4  0     0     997.5    NA       0.0000   9999     0     0     0    
2019/08/13  21:16:00  BASE  4.19244  328  5.10972  330  -2.4  100   -2.4  0     0     997.4    NA       0.0000   9999     0     0     0    
2019/08/13  21:17:00  BASE  4.24536  329  5.10972  330  -2.4  100   -2.4  0     0     997.4    NA       0.0000   9999     0     0     0    
2019/08/13  21:18:00  BASE  3.86904  323  4.93332  330  -2.4  100   -2.4  0     0     997.5    NA       0.0000   9999     0     0     0    
2019/08/13  21:19:00  BASE  3.51624  323  4.93332  330  -2.4  100   -2.4  0     0     997.5    NA       0.0000   9999     0     0     0    
2019/08/13  21:20:00  BASE  3.52212  324  4.93332  330  -2.4  100   -2.4  0     0     997.6    NA       0.0000   9999     0     0     0    
2019/08/13  21:21:00  BASE  3.62796  318  4.93332  330  -2.4  100   -2.4  0     0     997.6    NA       0.0000   9999     0     0     0    
2019/08/13  21:22:00  BASE  3.88668  313  4.93332  330  -2.4  100   -2.4  0     0     997.7    NA       0.0000   9999     0     0     0    
2019/08/13  21:23:00  BASE  3.97488  311  4.72164  321  -2.4  100   -2.4  0     0     997.7    NA       0.0000   9999     0     0     0    
2019/08/13  21:24:00  BASE  4.13364  309  4.65696  320  -2.4  100   -2.4  0     0     997.7    NA       0.0000   9999     0     0     0    
2019/08/13  21:25:00  BASE  4.25124  306  4.65696  320  -2.4  100   -2.4  0     0     997.7    NA       0.0000   9999     0     0     0    
2019/08/13  21:26:00  BASE  4.08072  305  4.65696  320  -2.5  100   -2.5  0     0     997.7    NA       0.0000   9999     0     0     0    
2019/08/13  21:27:00  BASE  4.01016  305  4.59816  305  -2.5  100   -2.5  0     0     997.7    NA       0.0000   9999     200   0     0    
2019/08/13  21:28:00  BASE  3.95136  309  4.59816  305  -2.5  100   -2.5  0     0     997.7    NA       0.0000   9999     0     0     0    
2019/08/13  21:29:00  BASE  4.03368  309  4.59816  305  -2.5  100   -2.5  0     0     997.7    NA       0.0000   9999     0     0     0    
2019/08/13  21:30:00  BASE  3.93372  305  4.59816  305  -2.5  100   -2.5  0     0     997.8    NA       0.0000   9999     0     0     0    
2019/08/13  21:31:00  BASE  3.6456   304  4.59816  305  -2.5  100   -2.5  0     0     997.8    NA       0.0000   9999     0     0     0    
2019/08/13  21:32:00  BASE  3.7338   306  4.59816  305  -2.5  100   -2.5  0     0     997.8    NA       0.0000   9999     0     0     0    
2019/08/13  21:33:00  BASE  4.03956  303  4.80984  304  -2.5  100   -2.5  0     0     997.8    NA       0.0000   9999     0     0     0    
2019/08/13  21:34:00  BASE  4.0572   298  4.80984  304  -2.6  100   -2.6  0     0     997.8    NA       0.0000   9999     0     0     0    
2019/08/13  21:35:00  BASE  3.90432  295  4.80984  304  -2.6  100   -2.6  0     0     997.8    NA       0.0000   9999     0     0     0    
2019/08/13  21:36:00  BASE  3.90432  294  4.80984  304  -2.6  100   -2.6  0     0     997.8    NA       0.0000   9999     0     0     0    
2019/08/13  21:37:00  BASE  3.97488  293  4.80984  304  -2.6  100   -2.6  0     0     997.8    NA       0.0000   9999     0     0     0    
2019/08/13  21:38:00  BASE  3.78084  295  4.80984  304  -2.6  100   -2.6  0     0     997.8    NA       0.0000   9999     0     0     0    
2019/08/13  21:39:00  BASE  3.40452  301  4.80984  304  -2.7  100   -2.7  0     0     997.8    NA       0.0000   9999     0     0     0    
2019/08/13  21:40:00  BASE  3.33396  305  4.80984  304  -2.7  100   -2.7  0     0     997.8    NA       0.0000   9999     0     0     0    
2019/08/13  21:41:00  BASE  3.36924  305  4.80984  304  -2.7  100   -2.7  0     0     997.8    NA       0.0000   9999     0     0     0    
2019/08/13  21:42:00  BASE  3.2046   303  4.80984  304  -2.7  100   -2.7  0     0     997.8    NA       0.0000   9999     0     0     0    
2019/08/13  21:43:00  BASE  3.19284  303  4.59816  288  -2.7  100   -2.7  0     0     997.8    NA       0.0000   9999     0     0     0    
2019/08/13  21:44:00  BASE  3.60444  303  4.59816  288  -2.7  100   -2.7  0     0     997.8    NA       0.0000   9999     0     0     0    
2019/08/13  21:45:00  BASE  3.72204  300  4.59816  288  -2.7  100   -2.7  0     0     997.7    NA       0.0000   9999     0     0     0    
2019/08/13  21:46:00  BASE  3.4104   298  4.59816  288  -2.7  100   -2.7  0     0     997.7    NA       0.0000   9999     0     0     0    
2019/08/13  21:47:00  BASE  3.15168  300  4.38648  305  -2.6  100   -2.6  0     0     997.7    NA       0.0000   9999     0     0     0    
2019/08/13  21:48:00  BASE  3.09288  303  4.38648  305  -2.6  100   -2.6  0     0     997.7    NA       0.0000   9999     0     0     0    
2019/08/13  21:49:00  BASE  3.41628  303  4.38648  305  -2.6  100   -2.6  0     0     997.7    NA       0.0000   9999     0     0     0    
2019/08/13  21:50:00  BASE  3.56916  303  4.38648  305  -2.6  100   -2.6  0     0     997.7    NA       0.0000   9999     0     0     0    
2019/08/13  21:51:00  BASE  3.22812  304  4.38648  305  -2.6  100   -2.6  0     0     997.7    NA       0.0000   9999     0     0     0    
2019/08/13  21:52:00  BASE  3.01056  304  4.38648  305  -2.6  100   -2.6  0     0     997.7    NA       0.0000   9999     0     0     0    
2019/08/13  21:53:00  BASE  3.21048  304  4.38648  305  -2.6  100   -2.6  0     0     997.7    NA       0.0000   9999     0     0     0    
2019/08/13  21:54:00  BASE  3.43392  303  3.90432  294  -2.6  100   -2.6  0     0     997.7    NA       0.0000   9999     0     0     0    
2019/08/13  21:55:00  BASE  3.51036  303  3.83964  307  -2.6  100   -2.6  0     0     997.7    NA       0.0000   9999     0     0     0    
2019/08/13  21:56:00  BASE  3.56328  303  3.93372  304  -2.6  100   -2.6  0     0     997.7    NA       0.0000   9999     0     0     0    
2019/08/13  21:57:00  BASE  3.51624  303  3.93372  304  -2.6  100   -2.6  0     0     997.7    NA       0.0000   9999     0     0     0    
2019/08/13  21:58:00  BASE  3.37512  304  3.93372  304  -2.6  100   -2.6  0     0     997.7    NA       0.0000   9999     0     0     0    
2019/08/13  21:59:00  BASE  3.38688  305  3.93372  304  -2.7  100   -2.7  0     0     997.6    NA       0.0000   9999     0     0     0    
2019/08/13  22:00:00  BASE  3.48096  302  3.93372  304  -2.7  100   -2.7  0     0     997.6    NA       0.0000   9999     200   0     0    
2019/08/13  22:01:00  BASE  3.59268  300  3.93372  304  -2.7  100   -2.7  0     0     997.6    NA       0.0000   9999     200   0     0    
2019/08/13  22:02:00  BASE  3.65736  302  3.99252  299  -2.7  100   -2.7  0     0     997.6    NA       0.0000   9999     260   0     0    
2019/08/13  22:03:00  BASE  3.63972  303  3.99252  299  -2.7  100   -2.7  0     0     997.6    NA       0.0000   9999     0     0     0    
2019/08/13  22:04:00  BASE  3.50448  304  3.99252  299  -2.7  100   -2.7  0     0     997.6    NA       0.0000   9999     0     0     0    
2019/08/13  22:05:00  BASE  3.40452  305  3.99252  299  -2.7  100   -2.7  0     0     997.6    NA       0.0000   9999     0     0     0    
2019/08/13  22:06:00  BASE  3.6456   305  4.2042   298  -2.7  100   -2.7  0     0     997.5    NA       0.0000   9999     0     0     0    
2019/08/13  22:07:00  BASE  3.822    305  4.2042   298  -2.7  100   -2.7  0     0     997.5    NA       0.0000   9999     0     0     0    
2019/08/13  22:08:00  BASE  3.79848  307  4.2042   298  -2.7  100   -2.7  0     0     997.4    NA       0.0000   9999     0     0     0    
2019/08/13  22:09:01  BASE  3.80436  305  4.2042   298  -2.7  100   -2.7  0     0     997.3    NA       0.0000   9999     0     0     0    
2019/08/13  22:10:00  BASE  3.75732  300  4.2042   298  -2.7  100   -2.7  0     0     997.3    NA       0.0000   9999     0     0     0    
2019/08/13  22:11:01  BASE  3.9984   295  4.41588  293  -2.7  100   -2.7  0     0     997.3    NA       0.0000   9999     0     0     0    
2019/08/13  22:12:00  BASE  4.22772  294  4.53936  297  -2.7  100   -2.7  0     0     997.3    NA       0.0000   9999     0     0     0    
2019/08/13  22:13:00  BASE  4.01016  296  4.53936  297  -2.8  100   -2.8  0     0     997.3    NA       0.0000   9999     0     0     0    
2019/08/13  22:14:00  BASE  3.88668  295  4.53936  297  -2.8  100   -2.8  0     0     997.2    NA       0.0000   9999     0     0     0    
2019/08/13  22:15:00  BASE  3.8514   294  4.53936  297  -2.8  100   -2.8  0     0     997.2    NA       0.0000   9999     0     0     0    
2019/08/13  22:16:00  BASE  3.72792  293  4.53936  297  -2.8  100   -2.8  0     0     997.2    NA       0.0000   9999     0     0     0    
2019/08/13  22:17:00  BASE  3.7044   291  4.53936  297  -2.8  100   -2.8  0     0     997.2    NA       0.0000   9999     0     0     0    
2019/08/13  22:18:00  BASE  3.58092  293  4.53936  297  -2.8  100   -2.8  0     0     997.2    NA       0.0000   9999     0     0     0    
2019/08/13  22:19:00  BASE  3.52212  296  4.53936  297  -2.8  100   -2.8  0     0     997.2    NA       0.0000   9999     0     0     0    
2019/08/13  22:20:00  BASE  3.5868   299  4.53936  297  -2.8  100   -2.8  0     0     997.1    NA       0.0000   9999     0     0     0    
2019/08/13  22:21:00  BASE  3.63972  302  4.53936  297  -2.8  100   -2.8  0     0     997.1    NA       0.0000   9999     0     0     0    
2019/08/13  22:22:00  BASE  3.68676  301  4.35708  290  -2.8  100   -2.8  0     0     997.1    NA       0.0000   9999     0     0     0    
2019/08/13  22:23:00  BASE  3.48684  299  4.29828  293  -2.8  100   -2.8  0     0     997.2    NA       0.0000   9999     0     0     0    
2019/08/13  22:24:00  BASE  3.39864  298  4.116    289  -2.8  100   -2.8  0     0     997.2    NA       0.0000   9999     0     0     0    
2019/08/13  22:25:00  BASE  3.54564  303  4.1454   307  -2.8  100   -2.8  0     0     997.2    NA       0.0000   9999     0     0     0    
2019/08/13  22:26:00  BASE  3.63384  305  4.1454   307  -2.8  100   -2.8  0     0     997.2    NA       0.0000   9999     0     0     0    
2019/08/13  22:27:00  BASE  3.75732  299  4.68636  292  -2.7  100   -2.7  0     0     997.2    NA       0.0000   9999     0     0     0    
2019/08/13  22:28:00  BASE  3.91608  296  4.68636  292  -2.7  100   -2.7  0     0     997.3    NA       0.0000   9000     0     0     0    
2019/08/13  22:29:00  BASE  4.12776  293  4.68636  293  -2.7  100   -2.7  0     0     997.3    NA       0.0000   9999     0     0     0    
2019/08/13  22:30:00  BASE  4.18068  291  4.68636  293  -2.7  100   -2.7  0     0     997.4    NA       0.0000   9999     0     0     0    
2019/08/13  22:31:00  BASE  4.16892  293  4.68636  294  -2.8  100   -2.8  0     0     997.4    NA       0.0000   9999     0     0     0    
2019/08/13  22:32:00  BASE  4.36296  296  4.83924  292  -2.8  100   -2.8  0     0     997.5    NA       0.0000   9999     0     0     0    
2019/08/13  22:33:00  BASE  4.58052  294  5.08032  290  -2.8  100   -2.8  0     0     997.5    NA       0.0000   9999     0     0     0    
2019/08/13  22:34:00  BASE  4.44528  293  5.08032  290  -2.8  100   -2.8  0     0     997.5    NA       0.0000   9000     0     0     0    
2019/08/13  22:35:00  BASE  4.16892  296  5.08032  290  -2.9  100   -2.9  0     0     997.6    NA       0.0000   9999     0     0     0    
2019/08/13  22:36:00  BASE  4.19832  297  5.08032  290  -2.9  100   -2.9  0     0     997.6    NA       0.0000   9999     200   0     0    
2019/08/13  22:37:00  BASE  3.97488  297  5.08032  290  -2.9  100   -2.9  0     0     997.6    NA       0.0000   9999     230   0     0    
2019/08/13  22:38:00  BASE  3.53976  297  5.08032  290  -2.9  100   -2.9  0     0     997.7    NA       0.0000   9999     0     0     0    
2019/08/13  22:39:00  BASE  3.51036  297  5.08032  290  -2.9  100   -2.9  0     0     997.7    NA       0.0000   9999     0     0     0    
2019/08/13  22:40:00  BASE  3.88668  297  5.08032  290  -2.9  100   -2.9  0     0     997.7    NA       0.0000   9999     0     0     0    
2019/08/13  22:41:00  BASE  3.9396   297  5.08032  290  -2.9  100   -2.9  0     0     997.7    NA       0.0000   9999     230   0     0    
2019/08/13  22:42:00  BASE  3.88668  298  5.08032  290  -3.0  100   -3.0  0     0     997.7    NA       0.0000   9999     330   0     0    
2019/08/13  22:43:00  BASE  4.1454   295  5.41548  295  -3.0  100   -3.0  0     0     997.7    NA       0.0000   9999     260   0     0    
2019/08/13  22:44:00  BASE  4.54524  290  5.41548  295  -3.0  100   -3.0  0     0     997.7    NA       0.0000   9999     0     0     0    
2019/08/13  22:45:00  BASE  4.79808  290  5.44488  284  -3.0  100   -3.0  0     0     997.7    NA       0.0000   9999     0     0     0    
2019/08/13  22:46:00  BASE  4.7628   291  5.44488  284  -3.0  100   -3.0  0     0     997.7    NA       0.0000   9999     0     0     0    
2019/08/13  22:47:00  BASE  4.6746   289  5.44488  284  -3.0  100   -3.0  0     0     997.7    NA       0.0000   9999     0     0     0    
2019/08/13  22:48:00  BASE  4.39236  287  5.44488  284  -3.0  100   -3.0  0     0     997.8    NA       0.0000   9999     0     0     0    
2019/08/13  22:49:00  BASE  4.08072  286  5.44488  284  -3.0  100   -3.0  0     0     997.8    NA       0.0000   9999     0     0     0    
2019/08/13  22:50:00  BASE  3.98664  282  5.44488  284  -3.0  100   -3.0  0     0     997.8    NA       0.0000   9999     0     0     0    
2019/08/13  22:51:00  BASE  4.07484  281  5.44488  284  -3.0  100   -3.0  0     0     997.8    NA       0.0000   9999     0     0     0    
2019/08/13  22:52:00  BASE  4.21008  283  5.44488  284  -3.0  100   -3.0  0     0     997.7    NA       0.0000   9999     200   0     0    
2019/08/13  22:53:00  BASE  3.94548  287  5.44488  284  -3.0  100   -3.0  0     0     997.7    NA       0.0000   9999     0     0     0    
2019/08/13  22:54:00  BASE  3.7338   295  5.44488  284  -3.0  100   -3.0  0     0     997.7    NA       0.0000   9999     200   0     0    
2019/08/13  22:55:00  BASE  3.81612  298  5.35668  291  -3.1  100   -3.1  0     0     997.7    NA       0.0000   9999     0     0     0    
2019/08/13  22:56:00  BASE  3.61032  295  5.3214   286  -3.1  100   -3.1  0     0     997.7    NA       0.0000   9999     200   0     0    
2019/08/13  22:57:00  BASE  3.39864  293  4.75104  280  -3.1  100   -3.1  0     0     997.7    NA       0.0000   9999     260   0     0    
2019/08/13  22:58:00  BASE  3.53976  291  4.75104  280  -3.1  100   -3.1  0     0     997.7    NA       0.0000   9999     230   0     0    
2019/08/13  22:59:00  BASE  3.6162   295  4.75104  280  -3.1  100   -3.1  0     0     997.8    NA       0.0000   9999     230   0     0    
2019/08/13  23:00:00  BASE  3.40452  302  4.75104  280  -3.1  100   -3.1  0     0     997.8    NA       0.0000   9999     200   0     0    
2019/08/13  23:01:00  BASE  3.33984  301  4.68636  282  -3.1  100   -3.1  0     0     997.8    NA       0.0000   9999     230   0     0    
2019/08/13  23:02:00  BASE  3.52212  301  4.2336   286  -3.1  100   -3.1  0     0     997.8    NA       0.0000   9999     260   0     0    
2019/08/13  23:03:00  BASE  3.46332  299  4.2336   286  -3.1  100   -3.1  0     0     997.8    NA       0.0000   9999     300   0     0    
2019/08/13  23:04:00  BASE  3.72204  292  4.80984  288  -3.1  100   -3.1  0     0     997.8    NA       0.0000   9999     260   0     0    
2019/08/13  23:05:00  BASE  4.13364  288  4.80984  288  -3.1  100   -3.1  0     0     997.8    NA       0.0000   9999     260   0     0    
2019/08/13  23:06:00  BASE  3.78084  292  4.80984  288  -3.2  100   -3.2  0     0     997.8    NA       0.0000   9999     300   0     0    
2019/08/13  23:07:00  BASE  3.5868   297  4.80984  288  -3.2  100   -3.2  0     0     997.8    NA       0.0000   9999     260   0     0    
2019/08/13  23:08:00  BASE  3.59856  299  4.80984  288  -3.2  100   -3.2  0     0     997.7    NA       0.0000   9999     230   0     0    
2019/08/13  23:09:00  BASE  3.39864  299  4.80984  288  -3.2  100   -3.2  0     0     997.7    NA       0.0000   9999     260   0     0    
2019/08/13  23:10:00  BASE  3.4986   297  4.80984  288  -3.2  100   -3.2  0     0     997.7    NA       0.0000   9999     300   0     0    
2019/08/13  23:11:00  BASE  3.35748  299  4.80984  288  -3.2  100   -3.2  0     0     997.7    NA       0.0000   9999     300   0     0    
2019/08/13  23:12:00  BASE  3.53976  297  4.80984  288  -3.2  100   -3.2  0     0     997.7    NA       0.0000   9999     260   0     0    
2019/08/13  23:13:00  BASE  3.81612  295  4.80984  288  -3.2  100   -3.2  0     0     997.7    NA       0.0000   9999     260   0     0    
2019/08/13  23:14:00  BASE  3.71616  297  4.38648  288  -3.2  100   -3.2  0     0     997.7    NA       0.0000   9999     330   0     0    
2019/08/13  23:15:00  BASE  3.81024  289  4.2042   295  -3.2  100   -3.2  0     0     997.7    NA       0.0000   9999     230   0     0    
2019/08/13  23:16:00  BASE  3.6162   288  4.2042   295  -3.2  100   -3.2  0     0     997.7    NA       0.0000   9999     230   0     0    
2019/08/13  23:17:00  BASE  3.36336  290  4.2042   295  -3.2  100   -3.2  0     0     997.7    NA       0.0000   9999     260   0     0    
2019/08/13  23:18:00  BASE  3.381    291  4.2042   295  -3.2  100   -3.2  0     0     997.7    NA       0.0000   9999     300   0     0    
2019/08/13  23:19:00  BASE  3.55152  291  4.2042   295  -3.2  100   -3.2  0     0     997.7    NA       0.0000   9999     360   0     0    
2019/08/13  23:20:00  BASE  3.52212  289  4.2042   295  -3.2  100   -3.2  0     0     997.7    NA       0.0000   9999     430   0     0    
2019/08/13  23:21:00  BASE  3.27516  290  4.2042   295  -3.2  100   -3.2  0     0     997.7    NA       0.0000   9999     430   0     0    
2019/08/13  23:22:00  BASE  3.1164   294  4.2042   295  -3.2  100   -3.2  0     0     997.7    NA       0.0000   9999     360   0     0    
2019/08/13  23:23:00  BASE  3.29868  294  4.2042   295  -3.2  100   -3.2  0     0     997.7    NA       0.0000   9999     330   0     0    
2019/08/13  23:24:00  BASE  3.56328  290  4.1748   292  -3.2  100   -3.2  0     0     997.6    NA       0.0000   9999     390   0     0    
2019/08/13  23:25:00  BASE  3.53388  287  4.116    285  -3.2  100   -3.2  0     0     997.7    NA       0.0000   9999     390   0     0    
2019/08/13  23:26:00  BASE  3.60444  286  4.35708  280  -3.2  100   -3.2  0     0     997.6    NA       0.0000   9999     300   0     0    
2019/08/13  23:27:00  BASE  3.61032  289  4.35708  280  -3.2  100   -3.2  0     0     997.6    NA       0.0000   9999     390   0     0    
2019/08/13  23:28:00  BASE  3.33984  285  4.35708  280  -3.2  100   -3.2  0     0     997.6    NA       0.0000   9999     460   0     0    
2019/08/13  23:29:00  BASE  3.22812  276  4.35708  280  -3.2  100   -3.2  0     0     997.7    NA       0.0000   9999     460   0     0    
2019/08/13  23:30:00  BASE  3.00468  273  4.35708  280  -3.2  100   -3.2  0     0     997.8    NA       0.0000   9999     520   0     0    
2019/08/13  23:31:00  BASE  3.00468  270  4.35708  280  -3.3  100   -3.3  0     0     997.8    NA       0.0000   9999     590   0     0    
2019/08/13  23:32:00  BASE  3.36924  274  4.50996  272  -3.3  100   -3.3  0     0     997.8    NA       0.0000   9999     520   0     0    
2019/08/13  23:33:00  BASE  3.65736  277  4.53936  278  -3.3  100   -3.3  0     0     997.8    NA       0.0000   9999     460   0     0    
2019/08/13  23:34:00  BASE  3.92784  275  4.53936  278  -3.3  100   -3.3  0     0     997.8    NA       0.0000   9999     490   0     0    
2019/08/13  23:35:00  BASE  3.63972  270  4.53936  278  -3.3  100   -3.3  0     0     997.9    NA       0.0000   9999     560   0     0    
2019/08/13  23:36:00  BASE  3.43392  264  4.53936  278  -3.3  100   -3.3  0     0     997.9    NA       0.0000   9999     590   0     0    
2019/08/13  23:37:00  BASE  3.7926   264  4.59816  264  -3.4  100   -3.4  0     0     997.9    NA       0.0000   9999     560   0     0    
2019/08/13  23:38:00  BASE  4.0278   260  5.145    260  -3.4  100   -3.4  0     0     997.9    NA       0.0000   9999     520   0     0    
2019/08/13  23:39:00  BASE  4.09836  258  5.145    260  -3.4  100   -3.4  0     0     997.8    NA       0.0000   9999     520   0     0    
2019/08/13  23:40:00  BASE  4.13952  259  5.145    260  -3.4  100   -3.4  0     0     997.8    NA       0.0000   9999     520   0     0    
2019/08/13  23:41:00  BASE  3.79848  266  5.145    260  -3.4  100   -3.4  0     0     997.8    NA       0.0000   9999     520   0     0    
2019/08/13  23:42:00  BASE  3.22224  275  5.145    260  -3.4  100   -3.4  0     0     997.8    NA       0.0000   9999     390   0     0    
2019/08/13  23:43:00  BASE  3.2928   281  5.145    260  -3.4  100   -3.4  0     0     997.8    NA       0.0000   9999     360   0     0    
2019/08/13  23:44:00  BASE  3.80436  286  5.145    260  -3.4  100   -3.4  0     0     997.7    NA       0.0000   9999     260   0     0    
2019/08/13  23:45:00  BASE  3.87492  287  5.145    260  -3.4  100   -3.4  0     0     997.7    NA       0.0000   9999     300   0     0    
2019/08/13  23:46:00  BASE  3.68088  281  5.145    260  -3.5  100   -3.5  0     0     997.7    NA       0.0000   9999     330   0     0    
2019/08/13  23:47:00  BASE  3.22812  277  5.145    260  -3.5  100   -3.5  0     0     997.7    NA       0.0000   9999     300   0     0    
2019/08/13  23:48:00  BASE  2.97528  283  4.93332  267  -3.5  100   -3.5  0     0     997.7    NA       0.0000   9999     330   0     0    
2019/08/13  23:49:00  BASE  3.42804  283  4.50996  259  -3.6  100   -3.6  0     0     997.7    NA       0.0000   9999     360   0     0    
2019/08/13  23:50:00  BASE  3.41628  280  4.47468  272  -3.6  100   -3.6  0     0     997.7    NA       0.0000   9999     330   0     0    
2019/08/13  23:51:00  BASE  3.1752   286  4.47468  272  -3.6  100   -3.6  0     0     997.7    NA       0.0000   9999     360   0     0    
2019/08/13  23:52:00  BASE  3.53976  291  4.47468  272  -3.6  100   -3.6  0     0     997.7    NA       0.0000   9999     330   0     0    
2019/08/13  23:53:00  BASE  3.94548  291  4.47468  272  -3.6  100   -3.6  0     0     997.7    NA       0.0000   9999     300   0     0    
2019/08/13  23:54:00  BASE  3.96312  288  4.93332  282  -3.6  100   -3.6  0     0     997.6    NA       0.0000   9999     390   0     0    
2019/08/13  23:55:00  BASE  3.82788  283  4.93332  282  -3.6  100   -3.6  0     0     997.7    NA       0.0000   9999     460   0     0    
2019/08/13  23:56:00  BASE  3.53388  282  4.93332  282  -3.6  100   -3.6  0     0     997.7    NA       0.0000   9999     390   0     0    
2019/08/13  23:57:00  BASE  3.35748  281  4.93332  282  -3.6  100   -3.6  0     0     997.7    NA       0.0000   9999     430   0     0    
2019/08/13  23:58:00  BASE  3.68088  283  4.93332  293  -3.6  100   -3.6  0     0     997.7    NA       0.0000   9999     300   0     0    
2019/08/13  23:59:00  BASE  3.89256  286  4.93332  293  -3.6  100   -3.6  0     0     997.7    NA       0.0000   9999     260   0     0